<?xml version="1.0" encoding="UTF-8" standalone="no" ?>
<gpx xmlns="http://www.topografix.com/GPX/1/1" xmlns:xsi="http://www.w3.org/2001/XMLSchema-instance" xsi:schemaLocation="http://www.topografix.com/GPX/1/1 http://www.topografix.com/GPX/1/1/gpx.xsd" version="1.1" creator="VisuGPX - https://www.visugpx.com">
  <metadata>
    <name>Le Beaucet : Fraischamp - Barbarenque - Bourguigne - Trois Luisants - Combe de Capellan - Camp Long - Carroufra</name>
  </metadata>
  <trk>
    <name><![CDATA[2020-05-31 12:30:00 nettoyé]]></name>
    <trkseg>
      <trkpt lat="43.98315" lon="5.11887">
        <ele>249</ele>
        <time>2020-05-31T06:36:10Z</time>
      </trkpt>
      <trkpt lat="43.9831" lon="5.11891">
        <ele>250</ele>
        <time>2020-05-31T06:40:00Z</time>
      </trkpt>
      <trkpt lat="43.98307" lon="5.11893">
        <ele>250</ele>
        <time>2020-05-31T06:40:03Z</time>
      </trkpt>
      <trkpt lat="43.98283" lon="5.1192">
        <ele>253</ele>
        <time>2020-05-31T06:40:23Z</time>
      </trkpt>
      <trkpt lat="43.98266" lon="5.11939">
        <ele>254</ele>
        <time>2020-05-31T06:40:36Z</time>
      </trkpt>
      <trkpt lat="43.98261" lon="5.11943">
        <ele>255</ele>
        <time>2020-05-31T06:40:40Z</time>
      </trkpt>
      <trkpt lat="43.98245" lon="5.11956">
        <ele>259</ele>
        <time>2020-05-31T06:40:50Z</time>
      </trkpt>
      <trkpt lat="43.98232" lon="5.11968">
        <ele>260</ele>
        <time>2020-05-31T06:41:00Z</time>
      </trkpt>
      <trkpt lat="43.98229" lon="5.11972">
        <ele>260</ele>
        <time>2020-05-31T06:41:02Z</time>
      </trkpt>
      <trkpt lat="43.98237" lon="5.1199">
        <ele>261</ele>
        <time>2020-05-31T06:41:11Z</time>
      </trkpt>
      <trkpt lat="43.98248" lon="5.11991">
        <ele>262</ele>
        <time>2020-05-31T06:41:17Z</time>
      </trkpt>
      <trkpt lat="43.98253" lon="5.11991">
        <ele>262</ele>
        <time>2020-05-31T06:41:20Z</time>
      </trkpt>
      <trkpt lat="43.98254" lon="5.11995">
        <ele>264</ele>
        <time>2020-05-31T06:41:24Z</time>
      </trkpt>
      <trkpt lat="43.9824" lon="5.12006">
        <ele>266</ele>
        <time>2020-05-31T06:41:35Z</time>
      </trkpt>
      <trkpt lat="43.98224" lon="5.12025">
        <ele>276</ele>
        <time>2020-05-31T06:41:49Z</time>
      </trkpt>
      <trkpt lat="43.98211" lon="5.12039">
        <ele>281</ele>
        <time>2020-05-31T06:41:58Z</time>
      </trkpt>
      <trkpt lat="43.98202" lon="5.12045">
        <ele>282</ele>
        <time>2020-05-31T06:42:04Z</time>
      </trkpt>
      <trkpt lat="43.98196" lon="5.12045">
        <ele>282</ele>
        <time>2020-05-31T06:42:08Z</time>
      </trkpt>
      <trkpt lat="43.98181" lon="5.12048">
        <ele>283</ele>
        <time>2020-05-31T06:42:20Z</time>
      </trkpt>
      <trkpt lat="43.98168" lon="5.12047">
        <ele>281</ele>
        <time>2020-05-31T06:42:30Z</time>
      </trkpt>
      <trkpt lat="43.98152" lon="5.12047">
        <ele>280</ele>
        <time>2020-05-31T06:42:41Z</time>
      </trkpt>
      <trkpt lat="43.9814" lon="5.12048">
        <ele>279</ele>
        <time>2020-05-31T06:42:52Z</time>
      </trkpt>
      <trkpt lat="43.98122" lon="5.12051">
        <ele>281</ele>
        <time>2020-05-31T06:43:06Z</time>
      </trkpt>
      <trkpt lat="43.98103" lon="5.12067">
        <ele>290</ele>
        <time>2020-05-31T06:43:18Z</time>
      </trkpt>
      <trkpt lat="43.98088" lon="5.12071">
        <ele>293</ele>
        <time>2020-05-31T06:43:31Z</time>
      </trkpt>
      <trkpt lat="43.98073" lon="5.12072">
        <ele>294</ele>
        <time>2020-05-31T06:43:44Z</time>
      </trkpt>
      <trkpt lat="43.98059" lon="5.12072">
        <ele>295</ele>
        <time>2020-05-31T06:43:54Z</time>
      </trkpt>
      <trkpt lat="43.98044" lon="5.12074">
        <ele>296</ele>
        <time>2020-05-31T06:44:04Z</time>
      </trkpt>
      <trkpt lat="43.98035" lon="5.12077">
        <ele>298</ele>
        <time>2020-05-31T06:44:13Z</time>
      </trkpt>
      <trkpt lat="43.9803" lon="5.1208">
        <ele>298</ele>
        <time>2020-05-31T06:44:20Z</time>
      </trkpt>
      <trkpt lat="43.98012" lon="5.12094">
        <ele>301</ele>
        <time>2020-05-31T06:44:34Z</time>
      </trkpt>
      <trkpt lat="43.98003" lon="5.12101">
        <ele>302</ele>
        <time>2020-05-31T06:44:43Z</time>
      </trkpt>
      <trkpt lat="43.97994" lon="5.12111">
        <ele>304</ele>
        <time>2020-05-31T06:44:56Z</time>
      </trkpt>
      <trkpt lat="43.97982" lon="5.12122">
        <ele>305</ele>
        <time>2020-05-31T06:45:07Z</time>
      </trkpt>
      <trkpt lat="43.97981" lon="5.12123">
        <ele>305</ele>
        <time>2020-05-31T06:45:08Z</time>
      </trkpt>
      <trkpt lat="43.97965" lon="5.12136">
        <ele>308</ele>
        <time>2020-05-31T06:45:22Z</time>
      </trkpt>
      <trkpt lat="43.97951" lon="5.12148">
        <ele>309</ele>
        <time>2020-05-31T06:45:31Z</time>
      </trkpt>
      <trkpt lat="43.97934" lon="5.12166">
        <ele>310</ele>
        <time>2020-05-31T06:45:43Z</time>
      </trkpt>
      <trkpt lat="43.97915" lon="5.12182">
        <ele>311</ele>
        <time>2020-05-31T06:45:54Z</time>
      </trkpt>
      <trkpt lat="43.97891" lon="5.12195">
        <ele>310</ele>
        <time>2020-05-31T06:46:06Z</time>
      </trkpt>
      <trkpt lat="43.97866" lon="5.12194">
        <ele>310</ele>
        <time>2020-05-31T06:46:17Z</time>
      </trkpt>
      <trkpt lat="43.97852" lon="5.12179">
        <ele>310</ele>
        <time>2020-05-31T06:46:26Z</time>
      </trkpt>
      <trkpt lat="43.97844" lon="5.12155">
        <ele>312</ele>
        <time>2020-05-31T06:46:36Z</time>
      </trkpt>
      <trkpt lat="43.97837" lon="5.12135">
        <ele>315</ele>
        <time>2020-05-31T06:46:46Z</time>
      </trkpt>
      <trkpt lat="43.97829" lon="5.12116">
        <ele>318</ele>
        <time>2020-05-31T06:46:55Z</time>
      </trkpt>
      <trkpt lat="43.97821" lon="5.12087">
        <ele>322</ele>
        <time>2020-05-31T06:47:06Z</time>
      </trkpt>
      <trkpt lat="43.97814" lon="5.12065">
        <ele>324</ele>
        <time>2020-05-31T06:47:15Z</time>
      </trkpt>
      <trkpt lat="43.97805" lon="5.12043">
        <ele>327</ele>
        <time>2020-05-31T06:47:25Z</time>
      </trkpt>
      <trkpt lat="43.97794" lon="5.12014">
        <ele>330</ele>
        <time>2020-05-31T06:47:37Z</time>
      </trkpt>
      <trkpt lat="43.97786" lon="5.11994">
        <ele>333</ele>
        <time>2020-05-31T06:47:46Z</time>
      </trkpt>
      <trkpt lat="43.97781" lon="5.11975">
        <ele>336</ele>
        <time>2020-05-31T06:47:54Z</time>
      </trkpt>
      <trkpt lat="43.97779" lon="5.11974">
        <ele>337</ele>
        <time>2020-05-31T06:47:55Z</time>
      </trkpt>
      <trkpt lat="43.97778" lon="5.11971">
        <ele>337</ele>
        <time>2020-05-31T06:48:04Z</time>
      </trkpt>
      <trkpt lat="43.9777" lon="5.1197">
        <ele>338</ele>
        <time>2020-05-31T06:48:16Z</time>
      </trkpt>
      <trkpt lat="43.97764" lon="5.11971">
        <ele>338</ele>
        <time>2020-05-31T06:48:28Z</time>
      </trkpt>
      <trkpt lat="43.97762" lon="5.1197">
        <ele>338</ele>
        <time>2020-05-31T06:48:30Z</time>
      </trkpt>
      <trkpt lat="43.97749" lon="5.11971">
        <ele>339</ele>
        <time>2020-05-31T06:50:27Z</time>
      </trkpt>
      <trkpt lat="43.97746" lon="5.11972">
        <ele>339</ele>
        <time>2020-05-31T06:50:29Z</time>
      </trkpt>
      <trkpt lat="43.97719" lon="5.11973">
        <ele>340</ele>
        <time>2020-05-31T06:50:44Z</time>
      </trkpt>
      <trkpt lat="43.97703" lon="5.11958">
        <ele>340</ele>
        <time>2020-05-31T06:50:55Z</time>
      </trkpt>
      <trkpt lat="43.97684" lon="5.11937">
        <ele>340</ele>
        <time>2020-05-31T06:51:06Z</time>
      </trkpt>
      <trkpt lat="43.97668" lon="5.11925">
        <ele>340</ele>
        <time>2020-05-31T06:51:14Z</time>
      </trkpt>
      <trkpt lat="43.97666" lon="5.11924">
        <ele>340</ele>
        <time>2020-05-31T06:51:15Z</time>
      </trkpt>
      <trkpt lat="43.97664" lon="5.11924">
        <ele>340</ele>
        <time>2020-05-31T06:51:16Z</time>
      </trkpt>
      <trkpt lat="43.97661" lon="5.11924">
        <ele>340</ele>
        <time>2020-05-31T06:51:17Z</time>
      </trkpt>
      <trkpt lat="43.97659" lon="5.11924">
        <ele>340</ele>
        <time>2020-05-31T06:51:18Z</time>
      </trkpt>
      <trkpt lat="43.97657" lon="5.11924">
        <ele>340</ele>
        <time>2020-05-31T06:51:19Z</time>
      </trkpt>
      <trkpt lat="43.97654" lon="5.11925">
        <ele>340</ele>
        <time>2020-05-31T06:51:20Z</time>
      </trkpt>
      <trkpt lat="43.97632" lon="5.11928">
        <ele>341</ele>
        <time>2020-05-31T06:51:30Z</time>
      </trkpt>
      <trkpt lat="43.97609" lon="5.11925">
        <ele>342</ele>
        <time>2020-05-31T06:51:41Z</time>
      </trkpt>
      <trkpt lat="43.97588" lon="5.11923">
        <ele>344</ele>
        <time>2020-05-31T06:51:52Z</time>
      </trkpt>
      <trkpt lat="43.97568" lon="5.1192">
        <ele>345</ele>
        <time>2020-05-31T06:52:02Z</time>
      </trkpt>
      <trkpt lat="43.97546" lon="5.11916">
        <ele>347</ele>
        <time>2020-05-31T06:52:13Z</time>
      </trkpt>
      <trkpt lat="43.97526" lon="5.11914">
        <ele>348</ele>
        <time>2020-05-31T06:52:23Z</time>
      </trkpt>
      <trkpt lat="43.97505" lon="5.11912">
        <ele>348</ele>
        <time>2020-05-31T06:52:33Z</time>
      </trkpt>
      <trkpt lat="43.9749" lon="5.11911">
        <ele>348</ele>
        <time>2020-05-31T06:52:42Z</time>
      </trkpt>
      <trkpt lat="43.97491" lon="5.11911">
        <ele>348</ele>
        <time>2020-05-31T06:52:43Z</time>
      </trkpt>
      <trkpt lat="43.97492" lon="5.11911">
        <ele>348</ele>
        <time>2020-05-31T06:52:44Z</time>
      </trkpt>
      <trkpt lat="43.97493" lon="5.1191">
        <ele>348</ele>
        <time>2020-05-31T06:52:45Z</time>
      </trkpt>
      <trkpt lat="43.97492" lon="5.11907">
        <ele>348</ele>
        <time>2020-05-31T06:52:47Z</time>
      </trkpt>
      <trkpt lat="43.97491" lon="5.11905">
        <ele>348</ele>
        <time>2020-05-31T06:52:48Z</time>
      </trkpt>
      <trkpt lat="43.97474" lon="5.11894">
        <ele>347</ele>
        <time>2020-05-31T06:52:58Z</time>
      </trkpt>
      <trkpt lat="43.97472" lon="5.11893">
        <ele>347</ele>
        <time>2020-05-31T06:52:59Z</time>
      </trkpt>
      <trkpt lat="43.9747" lon="5.11893">
        <ele>347</ele>
        <time>2020-05-31T06:53:00Z</time>
      </trkpt>
      <trkpt lat="43.97467" lon="5.11892">
        <ele>347</ele>
        <time>2020-05-31T06:53:01Z</time>
      </trkpt>
      <trkpt lat="43.97465" lon="5.11891">
        <ele>347</ele>
        <time>2020-05-31T06:53:02Z</time>
      </trkpt>
      <trkpt lat="43.97462" lon="5.11891">
        <ele>347</ele>
        <time>2020-05-31T06:53:03Z</time>
      </trkpt>
      <trkpt lat="43.9746" lon="5.11891">
        <ele>347</ele>
        <time>2020-05-31T06:53:04Z</time>
      </trkpt>
      <trkpt lat="43.97458" lon="5.11891">
        <ele>347</ele>
        <time>2020-05-31T06:53:05Z</time>
      </trkpt>
      <trkpt lat="43.97456" lon="5.1189">
        <ele>347</ele>
        <time>2020-05-31T06:53:06Z</time>
      </trkpt>
      <trkpt lat="43.97454" lon="5.1189">
        <ele>347</ele>
        <time>2020-05-31T06:53:07Z</time>
      </trkpt>
      <trkpt lat="43.97452" lon="5.11889">
        <ele>347</ele>
        <time>2020-05-31T06:53:08Z</time>
      </trkpt>
      <trkpt lat="43.97451" lon="5.11887">
        <ele>347</ele>
        <time>2020-05-31T06:53:09Z</time>
      </trkpt>
      <trkpt lat="43.97449" lon="5.11885">
        <ele>347</ele>
        <time>2020-05-31T06:53:10Z</time>
      </trkpt>
      <trkpt lat="43.97447" lon="5.11883">
        <ele>347</ele>
        <time>2020-05-31T06:53:11Z</time>
      </trkpt>
      <trkpt lat="43.97446" lon="5.11881">
        <ele>346</ele>
        <time>2020-05-31T06:53:12Z</time>
      </trkpt>
      <trkpt lat="43.97441" lon="5.11875">
        <ele>345</ele>
        <time>2020-05-31T06:53:29Z</time>
      </trkpt>
      <trkpt lat="43.9744" lon="5.11877">
        <ele>345</ele>
        <time>2020-05-31T06:53:30Z</time>
      </trkpt>
      <trkpt lat="43.97439" lon="5.11879">
        <ele>345</ele>
        <time>2020-05-31T06:53:31Z</time>
      </trkpt>
      <trkpt lat="43.97437" lon="5.11881">
        <ele>345</ele>
        <time>2020-05-31T06:53:32Z</time>
      </trkpt>
      <trkpt lat="43.97435" lon="5.11883">
        <ele>344</ele>
        <time>2020-05-31T06:53:33Z</time>
      </trkpt>
      <trkpt lat="43.97433" lon="5.11885">
        <ele>344</ele>
        <time>2020-05-31T06:53:34Z</time>
      </trkpt>
      <trkpt lat="43.97432" lon="5.11886">
        <ele>344</ele>
        <time>2020-05-31T06:53:35Z</time>
      </trkpt>
      <trkpt lat="43.9743" lon="5.11887">
        <ele>344</ele>
        <time>2020-05-31T06:53:36Z</time>
      </trkpt>
      <trkpt lat="43.97427" lon="5.11886">
        <ele>343</ele>
        <time>2020-05-31T06:53:37Z</time>
      </trkpt>
      <trkpt lat="43.97425" lon="5.11886">
        <ele>343</ele>
        <time>2020-05-31T06:53:38Z</time>
      </trkpt>
      <trkpt lat="43.97423" lon="5.11886">
        <ele>342</ele>
        <time>2020-05-31T06:53:39Z</time>
      </trkpt>
      <trkpt lat="43.97421" lon="5.11887">
        <ele>342</ele>
        <time>2020-05-31T06:53:40Z</time>
      </trkpt>
      <trkpt lat="43.97419" lon="5.11889">
        <ele>341</ele>
        <time>2020-05-31T06:53:41Z</time>
      </trkpt>
      <trkpt lat="43.97417" lon="5.11891">
        <ele>342</ele>
        <time>2020-05-31T06:53:42Z</time>
      </trkpt>
      <trkpt lat="43.97416" lon="5.11893">
        <ele>342</ele>
        <time>2020-05-31T06:53:43Z</time>
      </trkpt>
      <trkpt lat="43.97415" lon="5.11895">
        <ele>342</ele>
        <time>2020-05-31T06:53:44Z</time>
      </trkpt>
      <trkpt lat="43.97413" lon="5.11897">
        <ele>343</ele>
        <time>2020-05-31T06:53:45Z</time>
      </trkpt>
      <trkpt lat="43.97412" lon="5.11899">
        <ele>343</ele>
        <time>2020-05-31T06:53:46Z</time>
      </trkpt>
      <trkpt lat="43.97405" lon="5.11914">
        <ele>346</ele>
        <time>2020-05-31T06:53:56Z</time>
      </trkpt>
      <trkpt lat="43.97403" lon="5.11914">
        <ele>345</ele>
        <time>2020-05-31T06:53:57Z</time>
      </trkpt>
      <trkpt lat="43.97393" lon="5.11907">
        <ele>344</ele>
        <time>2020-05-31T06:54:03Z</time>
      </trkpt>
      <trkpt lat="43.97376" lon="5.11881">
        <ele>338</ele>
        <time>2020-05-31T06:54:15Z</time>
      </trkpt>
      <trkpt lat="43.97357" lon="5.1187">
        <ele>334</ele>
        <time>2020-05-31T06:54:25Z</time>
      </trkpt>
      <trkpt lat="43.97342" lon="5.11872">
        <ele>332</ele>
        <time>2020-05-31T06:54:31Z</time>
      </trkpt>
      <trkpt lat="43.9734" lon="5.11872">
        <ele>332</ele>
        <time>2020-05-31T06:54:32Z</time>
      </trkpt>
      <trkpt lat="43.97337" lon="5.11874">
        <ele>332</ele>
        <time>2020-05-31T06:54:33Z</time>
      </trkpt>
      <trkpt lat="43.97317" lon="5.11889">
        <ele>334</ele>
        <time>2020-05-31T06:54:42Z</time>
      </trkpt>
      <trkpt lat="43.973" lon="5.11903">
        <ele>334</ele>
        <time>2020-05-31T06:54:50Z</time>
      </trkpt>
      <trkpt lat="43.97283" lon="5.11917">
        <ele>337</ele>
        <time>2020-05-31T06:54:59Z</time>
      </trkpt>
      <trkpt lat="43.97263" lon="5.11932">
        <ele>337</ele>
        <time>2020-05-31T06:55:08Z</time>
      </trkpt>
      <trkpt lat="43.97259" lon="5.11938">
        <ele>338</ele>
        <time>2020-05-31T06:55:10Z</time>
      </trkpt>
      <trkpt lat="43.97257" lon="5.1194">
        <ele>338</ele>
        <time>2020-05-31T06:55:11Z</time>
      </trkpt>
      <trkpt lat="43.97245" lon="5.1195">
        <ele>339</ele>
        <time>2020-05-31T06:55:18Z</time>
      </trkpt>
      <trkpt lat="43.97244" lon="5.11951">
        <ele>339</ele>
        <time>2020-05-31T06:55:19Z</time>
      </trkpt>
      <trkpt lat="43.97243" lon="5.11952">
        <ele>339</ele>
        <time>2020-05-31T06:55:20Z</time>
      </trkpt>
      <trkpt lat="43.97225" lon="5.11964">
        <ele>340</ele>
        <time>2020-05-31T06:55:29Z</time>
      </trkpt>
      <trkpt lat="43.97212" lon="5.11974">
        <ele>341</ele>
        <time>2020-05-31T06:55:36Z</time>
      </trkpt>
      <trkpt lat="43.97198" lon="5.11989">
        <ele>342</ele>
        <time>2020-05-31T06:55:44Z</time>
      </trkpt>
      <trkpt lat="43.9718" lon="5.12003">
        <ele>342</ele>
        <time>2020-05-31T06:55:53Z</time>
      </trkpt>
      <trkpt lat="43.97175" lon="5.1201">
        <ele>343</ele>
        <time>2020-05-31T06:55:56Z</time>
      </trkpt>
      <trkpt lat="43.97174" lon="5.12012">
        <ele>343</ele>
        <time>2020-05-31T06:55:57Z</time>
      </trkpt>
      <trkpt lat="43.97173" lon="5.12015">
        <ele>343</ele>
        <time>2020-05-31T06:55:58Z</time>
      </trkpt>
      <trkpt lat="43.97172" lon="5.12017">
        <ele>343</ele>
        <time>2020-05-31T06:55:59Z</time>
      </trkpt>
      <trkpt lat="43.97171" lon="5.12017">
        <ele>343</ele>
        <time>2020-05-31T06:56:00Z</time>
      </trkpt>
      <trkpt lat="43.97153" lon="5.12028">
        <ele>342</ele>
        <time>2020-05-31T06:56:10Z</time>
      </trkpt>
      <trkpt lat="43.97139" lon="5.12044">
        <ele>343</ele>
        <time>2020-05-31T06:56:20Z</time>
      </trkpt>
      <trkpt lat="43.97127" lon="5.12059">
        <ele>342</ele>
        <time>2020-05-31T06:56:28Z</time>
      </trkpt>
      <trkpt lat="43.97119" lon="5.12075">
        <ele>344</ele>
        <time>2020-05-31T06:56:34Z</time>
      </trkpt>
      <trkpt lat="43.97117" lon="5.12077">
        <ele>344</ele>
        <time>2020-05-31T06:56:35Z</time>
      </trkpt>
      <trkpt lat="43.97116" lon="5.12079">
        <ele>344</ele>
        <time>2020-05-31T06:56:36Z</time>
      </trkpt>
      <trkpt lat="43.97115" lon="5.12081">
        <ele>344</ele>
        <time>2020-05-31T06:56:37Z</time>
      </trkpt>
      <trkpt lat="43.97113" lon="5.12084">
        <ele>344</ele>
        <time>2020-05-31T06:56:38Z</time>
      </trkpt>
      <trkpt lat="43.97112" lon="5.12086">
        <ele>345</ele>
        <time>2020-05-31T06:56:39Z</time>
      </trkpt>
      <trkpt lat="43.97102" lon="5.12107">
        <ele>345</ele>
        <time>2020-05-31T06:56:47Z</time>
      </trkpt>
      <trkpt lat="43.97101" lon="5.1211">
        <ele>346</ele>
        <time>2020-05-31T06:56:48Z</time>
      </trkpt>
      <trkpt lat="43.97089" lon="5.12131">
        <ele>347</ele>
        <time>2020-05-31T06:56:57Z</time>
      </trkpt>
      <trkpt lat="43.97076" lon="5.12146">
        <ele>348</ele>
        <time>2020-05-31T06:57:05Z</time>
      </trkpt>
      <trkpt lat="43.97057" lon="5.12164">
        <ele>349</ele>
        <time>2020-05-31T06:57:15Z</time>
      </trkpt>
      <trkpt lat="43.97052" lon="5.12169">
        <ele>349</ele>
        <time>2020-05-31T06:57:18Z</time>
      </trkpt>
      <trkpt lat="43.9705" lon="5.12169">
        <ele>349</ele>
        <time>2020-05-31T06:57:19Z</time>
      </trkpt>
      <trkpt lat="43.97048" lon="5.1217">
        <ele>348</ele>
        <time>2020-05-31T06:57:20Z</time>
      </trkpt>
      <trkpt lat="43.97046" lon="5.12171">
        <ele>348</ele>
        <time>2020-05-31T06:57:21Z</time>
      </trkpt>
      <trkpt lat="43.97044" lon="5.12173">
        <ele>347</ele>
        <time>2020-05-31T06:57:22Z</time>
      </trkpt>
      <trkpt lat="43.97042" lon="5.12174">
        <ele>347</ele>
        <time>2020-05-31T06:57:23Z</time>
      </trkpt>
      <trkpt lat="43.9704" lon="5.12176">
        <ele>347</ele>
        <time>2020-05-31T06:57:24Z</time>
      </trkpt>
      <trkpt lat="43.97039" lon="5.12179">
        <ele>347</ele>
        <time>2020-05-31T06:57:25Z</time>
      </trkpt>
      <trkpt lat="43.97038" lon="5.12181">
        <ele>348</ele>
        <time>2020-05-31T06:57:26Z</time>
      </trkpt>
      <trkpt lat="43.97037" lon="5.12184">
        <ele>348</ele>
        <time>2020-05-31T06:57:27Z</time>
      </trkpt>
      <trkpt lat="43.97035" lon="5.12186">
        <ele>348</ele>
        <time>2020-05-31T06:57:28Z</time>
      </trkpt>
      <trkpt lat="43.97034" lon="5.12188">
        <ele>348</ele>
        <time>2020-05-31T06:57:29Z</time>
      </trkpt>
      <trkpt lat="43.97018" lon="5.12209">
        <ele>348</ele>
        <time>2020-05-31T06:57:38Z</time>
      </trkpt>
      <trkpt lat="43.97017" lon="5.12211">
        <ele>347</ele>
        <time>2020-05-31T06:57:39Z</time>
      </trkpt>
      <trkpt lat="43.97015" lon="5.12213">
        <ele>347</ele>
        <time>2020-05-31T06:57:40Z</time>
      </trkpt>
      <trkpt lat="43.97014" lon="5.12216">
        <ele>348</ele>
        <time>2020-05-31T06:57:41Z</time>
      </trkpt>
      <trkpt lat="43.97013" lon="5.1222">
        <ele>348</ele>
        <time>2020-05-31T06:57:42Z</time>
      </trkpt>
      <trkpt lat="43.97013" lon="5.12222">
        <ele>349</ele>
        <time>2020-05-31T06:57:43Z</time>
      </trkpt>
      <trkpt lat="43.97013" lon="5.12225">
        <ele>349</ele>
        <time>2020-05-31T06:57:44Z</time>
      </trkpt>
      <trkpt lat="43.97013" lon="5.12228">
        <ele>350</ele>
        <time>2020-05-31T06:57:45Z</time>
      </trkpt>
      <trkpt lat="43.97014" lon="5.12231">
        <ele>350</ele>
        <time>2020-05-31T06:57:46Z</time>
      </trkpt>
      <trkpt lat="43.97014" lon="5.12233">
        <ele>351</ele>
        <time>2020-05-31T06:57:47Z</time>
      </trkpt>
      <trkpt lat="43.97008" lon="5.12259">
        <ele>353</ele>
        <time>2020-05-31T06:57:56Z</time>
      </trkpt>
      <trkpt lat="43.97007" lon="5.12262">
        <ele>353</ele>
        <time>2020-05-31T06:57:57Z</time>
      </trkpt>
      <trkpt lat="43.97006" lon="5.12264">
        <ele>353</ele>
        <time>2020-05-31T06:57:58Z</time>
      </trkpt>
      <trkpt lat="43.97004" lon="5.12267">
        <ele>353</ele>
        <time>2020-05-31T06:57:59Z</time>
      </trkpt>
      <trkpt lat="43.96988" lon="5.12298">
        <ele>350</ele>
        <time>2020-05-31T06:58:10Z</time>
      </trkpt>
      <trkpt lat="43.96986" lon="5.123">
        <ele>350</ele>
        <time>2020-05-31T06:58:11Z</time>
      </trkpt>
      <trkpt lat="43.96985" lon="5.12303">
        <ele>350</ele>
        <time>2020-05-31T06:58:12Z</time>
      </trkpt>
      <trkpt lat="43.96983" lon="5.12306">
        <ele>350</ele>
        <time>2020-05-31T06:58:13Z</time>
      </trkpt>
      <trkpt lat="43.96982" lon="5.12308">
        <ele>350</ele>
        <time>2020-05-31T06:58:14Z</time>
      </trkpt>
      <trkpt lat="43.9698" lon="5.12311">
        <ele>349</ele>
        <time>2020-05-31T06:58:15Z</time>
      </trkpt>
      <trkpt lat="43.96979" lon="5.12313">
        <ele>349</ele>
        <time>2020-05-31T06:58:16Z</time>
      </trkpt>
      <trkpt lat="43.96977" lon="5.12316">
        <ele>349</ele>
        <time>2020-05-31T06:58:17Z</time>
      </trkpt>
      <trkpt lat="43.96963" lon="5.1234">
        <ele>349</ele>
        <time>2020-05-31T06:58:26Z</time>
      </trkpt>
      <trkpt lat="43.96947" lon="5.12364">
        <ele>349</ele>
        <time>2020-05-31T06:58:36Z</time>
      </trkpt>
      <trkpt lat="43.9694" lon="5.12387">
        <ele>349</ele>
        <time>2020-05-31T06:58:44Z</time>
      </trkpt>
      <trkpt lat="43.96938" lon="5.1239">
        <ele>349</ele>
        <time>2020-05-31T06:58:45Z</time>
      </trkpt>
      <trkpt lat="43.96937" lon="5.12393">
        <ele>348</ele>
        <time>2020-05-31T06:58:46Z</time>
      </trkpt>
      <trkpt lat="43.96935" lon="5.12396">
        <ele>348</ele>
        <time>2020-05-31T06:58:47Z</time>
      </trkpt>
      <trkpt lat="43.96933" lon="5.12399">
        <ele>347</ele>
        <time>2020-05-31T06:58:48Z</time>
      </trkpt>
      <trkpt lat="43.96932" lon="5.12403">
        <ele>347</ele>
        <time>2020-05-31T06:58:49Z</time>
      </trkpt>
      <trkpt lat="43.9693" lon="5.12406">
        <ele>346</ele>
        <time>2020-05-31T06:58:50Z</time>
      </trkpt>
      <trkpt lat="43.96929" lon="5.12409">
        <ele>346</ele>
        <time>2020-05-31T06:58:51Z</time>
      </trkpt>
      <trkpt lat="43.96928" lon="5.12413">
        <ele>346</ele>
        <time>2020-05-31T06:58:52Z</time>
      </trkpt>
      <trkpt lat="43.96926" lon="5.12416">
        <ele>345</ele>
        <time>2020-05-31T06:58:53Z</time>
      </trkpt>
      <trkpt lat="43.96921" lon="5.12423">
        <ele>344</ele>
        <time>2020-05-31T06:59:00Z</time>
      </trkpt>
      <trkpt lat="43.9692" lon="5.12425">
        <ele>344</ele>
        <time>2020-05-31T06:59:02Z</time>
      </trkpt>
      <trkpt lat="43.96918" lon="5.12428">
        <ele>344</ele>
        <time>2020-05-31T06:59:10Z</time>
      </trkpt>
      <trkpt lat="43.96916" lon="5.12427">
        <ele>343</ele>
        <time>2020-05-31T06:59:25Z</time>
      </trkpt>
      <trkpt lat="43.96913" lon="5.12425">
        <ele>343</ele>
        <time>2020-05-31T06:59:55Z</time>
      </trkpt>
      <trkpt lat="43.96911" lon="5.12425">
        <ele>342</ele>
        <time>2020-05-31T06:59:56Z</time>
      </trkpt>
      <trkpt lat="43.9691" lon="5.12425">
        <ele>342</ele>
        <time>2020-05-31T06:59:57Z</time>
      </trkpt>
      <trkpt lat="43.96908" lon="5.12426">
        <ele>342</ele>
        <time>2020-05-31T06:59:58Z</time>
      </trkpt>
      <trkpt lat="43.96906" lon="5.12426">
        <ele>342</ele>
        <time>2020-05-31T06:59:59Z</time>
      </trkpt>
      <trkpt lat="43.96905" lon="5.12426">
        <ele>342</ele>
        <time>2020-05-31T07:00:00Z</time>
      </trkpt>
      <trkpt lat="43.96902" lon="5.12426">
        <ele>342</ele>
        <time>2020-05-31T07:00:03Z</time>
      </trkpt>
      <trkpt lat="43.96898" lon="5.1243">
        <ele>342</ele>
        <time>2020-05-31T07:00:08Z</time>
      </trkpt>
      <trkpt lat="43.96897" lon="5.12431">
        <ele>342</ele>
        <time>2020-05-31T07:00:09Z</time>
      </trkpt>
      <trkpt lat="43.96895" lon="5.12432">
        <ele>342</ele>
        <time>2020-05-31T07:00:10Z</time>
      </trkpt>
      <trkpt lat="43.96894" lon="5.12434">
        <ele>342</ele>
        <time>2020-05-31T07:00:11Z</time>
      </trkpt>
      <trkpt lat="43.96893" lon="5.12435">
        <ele>342</ele>
        <time>2020-05-31T07:00:12Z</time>
      </trkpt>
      <trkpt lat="43.96892" lon="5.12437">
        <ele>342</ele>
        <time>2020-05-31T07:00:13Z</time>
      </trkpt>
      <trkpt lat="43.9689" lon="5.12439">
        <ele>342</ele>
        <time>2020-05-31T07:00:14Z</time>
      </trkpt>
      <trkpt lat="43.96889" lon="5.12441">
        <ele>342</ele>
        <time>2020-05-31T07:00:15Z</time>
      </trkpt>
      <trkpt lat="43.96889" lon="5.12443">
        <ele>342</ele>
        <time>2020-05-31T07:00:16Z</time>
      </trkpt>
      <trkpt lat="43.96887" lon="5.12446">
        <ele>342</ele>
        <time>2020-05-31T07:00:17Z</time>
      </trkpt>
      <trkpt lat="43.96886" lon="5.12449">
        <ele>343</ele>
        <time>2020-05-31T07:00:18Z</time>
      </trkpt>
      <trkpt lat="43.96886" lon="5.12452">
        <ele>343</ele>
        <time>2020-05-31T07:00:19Z</time>
      </trkpt>
      <trkpt lat="43.96878" lon="5.12469">
        <ele>345</ele>
        <time>2020-05-31T07:00:27Z</time>
      </trkpt>
      <trkpt lat="43.96871" lon="5.12471">
        <ele>347</ele>
        <time>2020-05-31T07:00:31Z</time>
      </trkpt>
      <trkpt lat="43.96868" lon="5.1247">
        <ele>347</ele>
        <time>2020-05-31T07:00:32Z</time>
      </trkpt>
      <trkpt lat="43.96866" lon="5.12469">
        <ele>347</ele>
        <time>2020-05-31T07:00:33Z</time>
      </trkpt>
      <trkpt lat="43.96865" lon="5.12467">
        <ele>347</ele>
        <time>2020-05-31T07:00:34Z</time>
      </trkpt>
      <trkpt lat="43.96863" lon="5.12466">
        <ele>348</ele>
        <time>2020-05-31T07:00:35Z</time>
      </trkpt>
      <trkpt lat="43.96861" lon="5.12464">
        <ele>348</ele>
        <time>2020-05-31T07:00:36Z</time>
      </trkpt>
      <trkpt lat="43.9685" lon="5.12458">
        <ele>349</ele>
        <time>2020-05-31T07:00:44Z</time>
      </trkpt>
      <trkpt lat="43.96848" lon="5.12458">
        <ele>349</ele>
        <time>2020-05-31T07:00:45Z</time>
      </trkpt>
      <trkpt lat="43.96847" lon="5.1246">
        <ele>349</ele>
        <time>2020-05-31T07:00:46Z</time>
      </trkpt>
      <trkpt lat="43.96846" lon="5.12462">
        <ele>349</ele>
        <time>2020-05-31T07:00:47Z</time>
      </trkpt>
      <trkpt lat="43.96846" lon="5.12464">
        <ele>349</ele>
        <time>2020-05-31T07:00:48Z</time>
      </trkpt>
      <trkpt lat="43.96845" lon="5.12466">
        <ele>349</ele>
        <time>2020-05-31T07:00:49Z</time>
      </trkpt>
      <trkpt lat="43.96845" lon="5.12468">
        <ele>349</ele>
        <time>2020-05-31T07:00:50Z</time>
      </trkpt>
      <trkpt lat="43.96838" lon="5.12491">
        <ele>350</ele>
        <time>2020-05-31T07:01:02Z</time>
      </trkpt>
      <trkpt lat="43.96835" lon="5.12515">
        <ele>350</ele>
        <time>2020-05-31T07:01:11Z</time>
      </trkpt>
      <trkpt lat="43.96834" lon="5.12546">
        <ele>352</ele>
        <time>2020-05-31T07:01:23Z</time>
      </trkpt>
      <trkpt lat="43.96835" lon="5.1258">
        <ele>353</ele>
        <time>2020-05-31T07:01:35Z</time>
      </trkpt>
      <trkpt lat="43.96834" lon="5.12588">
        <ele>353</ele>
        <time>2020-05-31T07:01:38Z</time>
      </trkpt>
      <trkpt lat="43.96834" lon="5.12591">
        <ele>354</ele>
        <time>2020-05-31T07:01:39Z</time>
      </trkpt>
      <trkpt lat="43.96833" lon="5.12612">
        <ele>355</ele>
        <time>2020-05-31T07:01:49Z</time>
      </trkpt>
      <trkpt lat="43.96833" lon="5.12615">
        <ele>355</ele>
        <time>2020-05-31T07:01:50Z</time>
      </trkpt>
      <trkpt lat="43.96832" lon="5.12617">
        <ele>355</ele>
        <time>2020-05-31T07:01:51Z</time>
      </trkpt>
      <trkpt lat="43.96831" lon="5.12619">
        <ele>356</ele>
        <time>2020-05-31T07:01:52Z</time>
      </trkpt>
      <trkpt lat="43.9683" lon="5.12622">
        <ele>356</ele>
        <time>2020-05-31T07:01:53Z</time>
      </trkpt>
      <trkpt lat="43.96829" lon="5.12624">
        <ele>356</ele>
        <time>2020-05-31T07:01:54Z</time>
      </trkpt>
      <trkpt lat="43.96819" lon="5.12657">
        <ele>359</ele>
        <time>2020-05-31T07:02:04Z</time>
      </trkpt>
      <trkpt lat="43.96812" lon="5.12677">
        <ele>362</ele>
        <time>2020-05-31T07:02:15Z</time>
      </trkpt>
      <trkpt lat="43.96809" lon="5.12681">
        <ele>363</ele>
        <time>2020-05-31T07:02:18Z</time>
      </trkpt>
      <trkpt lat="43.96808" lon="5.12682">
        <ele>363</ele>
        <time>2020-05-31T07:02:19Z</time>
      </trkpt>
      <trkpt lat="43.96806" lon="5.12684">
        <ele>364</ele>
        <time>2020-05-31T07:02:20Z</time>
      </trkpt>
      <trkpt lat="43.96795" lon="5.12699">
        <ele>367</ele>
        <time>2020-05-31T07:02:29Z</time>
      </trkpt>
      <trkpt lat="43.96785" lon="5.12712">
        <ele>369</ele>
        <time>2020-05-31T07:02:37Z</time>
      </trkpt>
      <trkpt lat="43.96775" lon="5.12724">
        <ele>369</ele>
        <time>2020-05-31T07:02:48Z</time>
      </trkpt>
      <trkpt lat="43.96765" lon="5.12736">
        <ele>370</ele>
        <time>2020-05-31T07:02:59Z</time>
      </trkpt>
      <trkpt lat="43.96764" lon="5.12738">
        <ele>370</ele>
        <time>2020-05-31T07:03:00Z</time>
      </trkpt>
      <trkpt lat="43.96763" lon="5.12739">
        <ele>371</ele>
        <time>2020-05-31T07:03:01Z</time>
      </trkpt>
      <trkpt lat="43.96761" lon="5.12741">
        <ele>371</ele>
        <time>2020-05-31T07:03:02Z</time>
      </trkpt>
      <trkpt lat="43.9676" lon="5.12742">
        <ele>371</ele>
        <time>2020-05-31T07:03:03Z</time>
      </trkpt>
      <trkpt lat="43.96759" lon="5.12744">
        <ele>371</ele>
        <time>2020-05-31T07:03:04Z</time>
      </trkpt>
      <trkpt lat="43.96757" lon="5.12746">
        <ele>371</ele>
        <time>2020-05-31T07:03:05Z</time>
      </trkpt>
      <trkpt lat="43.9674" lon="5.12763">
        <ele>373</ele>
        <time>2020-05-31T07:03:15Z</time>
      </trkpt>
      <trkpt lat="43.96718" lon="5.12784">
        <ele>376</ele>
        <time>2020-05-31T07:03:27Z</time>
      </trkpt>
      <trkpt lat="43.96693" lon="5.128">
        <ele>379</ele>
        <time>2020-05-31T07:03:40Z</time>
      </trkpt>
      <trkpt lat="43.9667" lon="5.12819">
        <ele>381</ele>
        <time>2020-05-31T07:03:52Z</time>
      </trkpt>
      <trkpt lat="43.96649" lon="5.12832">
        <ele>383</ele>
        <time>2020-05-31T07:04:04Z</time>
      </trkpt>
      <trkpt lat="43.9664" lon="5.12835">
        <ele>383</ele>
        <time>2020-05-31T07:06:10Z</time>
      </trkpt>
      <trkpt lat="43.96636" lon="5.12839">
        <ele>384</ele>
        <time>2020-05-31T07:07:15Z</time>
      </trkpt>
      <trkpt lat="43.96634" lon="5.1284">
        <ele>384</ele>
        <time>2020-05-31T07:07:16Z</time>
      </trkpt>
      <trkpt lat="43.96633" lon="5.12842">
        <ele>384</ele>
        <time>2020-05-31T07:07:17Z</time>
      </trkpt>
      <trkpt lat="43.96631" lon="5.12843">
        <ele>384</ele>
        <time>2020-05-31T07:07:18Z</time>
      </trkpt>
      <trkpt lat="43.96629" lon="5.12845">
        <ele>385</ele>
        <time>2020-05-31T07:07:19Z</time>
      </trkpt>
      <trkpt lat="43.96627" lon="5.12846">
        <ele>385</ele>
        <time>2020-05-31T07:07:20Z</time>
      </trkpt>
      <trkpt lat="43.96625" lon="5.12848">
        <ele>385</ele>
        <time>2020-05-31T07:07:21Z</time>
      </trkpt>
      <trkpt lat="43.96623" lon="5.12849">
        <ele>385</ele>
        <time>2020-05-31T07:07:22Z</time>
      </trkpt>
      <trkpt lat="43.96621" lon="5.1285">
        <ele>385</ele>
        <time>2020-05-31T07:07:23Z</time>
      </trkpt>
      <trkpt lat="43.96619" lon="5.12852">
        <ele>385</ele>
        <time>2020-05-31T07:07:24Z</time>
      </trkpt>
      <trkpt lat="43.96617" lon="5.12853">
        <ele>386</ele>
        <time>2020-05-31T07:07:25Z</time>
      </trkpt>
      <trkpt lat="43.96598" lon="5.12869">
        <ele>387</ele>
        <time>2020-05-31T07:07:37Z</time>
      </trkpt>
      <trkpt lat="43.96582" lon="5.12888">
        <ele>387</ele>
        <time>2020-05-31T07:07:48Z</time>
      </trkpt>
      <trkpt lat="43.96572" lon="5.12906">
        <ele>389</ele>
        <time>2020-05-31T07:07:57Z</time>
      </trkpt>
      <trkpt lat="43.96565" lon="5.12917">
        <ele>389</ele>
        <time>2020-05-31T07:08:02Z</time>
      </trkpt>
      <trkpt lat="43.96565" lon="5.1292">
        <ele>390</ele>
        <time>2020-05-31T07:08:03Z</time>
      </trkpt>
      <trkpt lat="43.96565" lon="5.12922">
        <ele>390</ele>
        <time>2020-05-31T07:08:04Z</time>
      </trkpt>
      <trkpt lat="43.96566" lon="5.12934">
        <ele>391</ele>
        <time>2020-05-31T07:08:09Z</time>
      </trkpt>
      <trkpt lat="43.96567" lon="5.12936">
        <ele>391</ele>
        <time>2020-05-31T07:08:10Z</time>
      </trkpt>
      <trkpt lat="43.96568" lon="5.12937">
        <ele>391</ele>
        <time>2020-05-31T07:08:11Z</time>
      </trkpt>
      <trkpt lat="43.96579" lon="5.12945">
        <ele>391</ele>
        <time>2020-05-31T07:08:21Z</time>
      </trkpt>
      <trkpt lat="43.9658" lon="5.12947">
        <ele>392</ele>
        <time>2020-05-31T07:08:22Z</time>
      </trkpt>
      <trkpt lat="43.9658" lon="5.1295">
        <ele>392</ele>
        <time>2020-05-31T07:08:23Z</time>
      </trkpt>
      <trkpt lat="43.9658" lon="5.12952">
        <ele>393</ele>
        <time>2020-05-31T07:08:24Z</time>
      </trkpt>
      <trkpt lat="43.9658" lon="5.12955">
        <ele>393</ele>
        <time>2020-05-31T07:08:25Z</time>
      </trkpt>
      <trkpt lat="43.9658" lon="5.12957">
        <ele>394</ele>
        <time>2020-05-31T07:08:26Z</time>
      </trkpt>
      <trkpt lat="43.9658" lon="5.12959">
        <ele>394</ele>
        <time>2020-05-31T07:08:27Z</time>
      </trkpt>
      <trkpt lat="43.96579" lon="5.12961">
        <ele>394</ele>
        <time>2020-05-31T07:08:28Z</time>
      </trkpt>
      <trkpt lat="43.96578" lon="5.12962">
        <ele>395</ele>
        <time>2020-05-31T07:08:29Z</time>
      </trkpt>
      <trkpt lat="43.96577" lon="5.12963">
        <ele>395</ele>
        <time>2020-05-31T07:08:30Z</time>
      </trkpt>
      <trkpt lat="43.96576" lon="5.12964">
        <ele>395</ele>
        <time>2020-05-31T07:08:31Z</time>
      </trkpt>
      <trkpt lat="43.96574" lon="5.12965">
        <ele>396</ele>
        <time>2020-05-31T07:08:32Z</time>
      </trkpt>
      <trkpt lat="43.96563" lon="5.12972">
        <ele>398</ele>
        <time>2020-05-31T07:08:39Z</time>
      </trkpt>
      <trkpt lat="43.96561" lon="5.12973">
        <ele>399</ele>
        <time>2020-05-31T07:08:40Z</time>
      </trkpt>
      <trkpt lat="43.9656" lon="5.12974">
        <ele>399</ele>
        <time>2020-05-31T07:08:41Z</time>
      </trkpt>
      <trkpt lat="43.96558" lon="5.12975">
        <ele>399</ele>
        <time>2020-05-31T07:08:42Z</time>
      </trkpt>
      <trkpt lat="43.96557" lon="5.12977">
        <ele>399</ele>
        <time>2020-05-31T07:08:43Z</time>
      </trkpt>
      <trkpt lat="43.9655" lon="5.12986">
        <ele>401</ele>
        <time>2020-05-31T07:08:48Z</time>
      </trkpt>
      <trkpt lat="43.9655" lon="5.12988">
        <ele>401</ele>
        <time>2020-05-31T07:08:49Z</time>
      </trkpt>
      <trkpt lat="43.96552" lon="5.12992">
        <ele>401</ele>
        <time>2020-05-31T07:08:52Z</time>
      </trkpt>
      <trkpt lat="43.96562" lon="5.13002">
        <ele>402</ele>
        <time>2020-05-31T07:08:59Z</time>
      </trkpt>
      <trkpt lat="43.96563" lon="5.13004">
        <ele>402</ele>
        <time>2020-05-31T07:09:00Z</time>
      </trkpt>
      <trkpt lat="43.96564" lon="5.13007">
        <ele>402</ele>
        <time>2020-05-31T07:09:01Z</time>
      </trkpt>
      <trkpt lat="43.96564" lon="5.13009">
        <ele>402</ele>
        <time>2020-05-31T07:09:02Z</time>
      </trkpt>
      <trkpt lat="43.96565" lon="5.13011">
        <ele>403</ele>
        <time>2020-05-31T07:09:03Z</time>
      </trkpt>
      <trkpt lat="43.96565" lon="5.13014">
        <ele>403</ele>
        <time>2020-05-31T07:09:04Z</time>
      </trkpt>
      <trkpt lat="43.96566" lon="5.13016">
        <ele>403</ele>
        <time>2020-05-31T07:09:05Z</time>
      </trkpt>
      <trkpt lat="43.96567" lon="5.13018">
        <ele>403</ele>
        <time>2020-05-31T07:09:06Z</time>
      </trkpt>
      <trkpt lat="43.96568" lon="5.13024">
        <ele>404</ele>
        <time>2020-05-31T07:09:10Z</time>
      </trkpt>
      <trkpt lat="43.96567" lon="5.13034">
        <ele>405</ele>
        <time>2020-05-31T07:09:20Z</time>
      </trkpt>
      <trkpt lat="43.96567" lon="5.13036">
        <ele>405</ele>
        <time>2020-05-31T07:09:35Z</time>
      </trkpt>
      <trkpt lat="43.96566" lon="5.13039">
        <ele>406</ele>
        <time>2020-05-31T07:09:52Z</time>
      </trkpt>
      <trkpt lat="43.96565" lon="5.1304">
        <ele>406</ele>
        <time>2020-05-31T07:10:13Z</time>
      </trkpt>
      <trkpt lat="43.96558" lon="5.13043">
        <ele>406</ele>
        <time>2020-05-31T07:11:40Z</time>
      </trkpt>
      <trkpt lat="43.96555" lon="5.13042">
        <ele>407</ele>
        <time>2020-05-31T07:11:43Z</time>
      </trkpt>
      <trkpt lat="43.96554" lon="5.13042">
        <ele>407</ele>
        <time>2020-05-31T07:11:44Z</time>
      </trkpt>
      <trkpt lat="43.96552" lon="5.13041">
        <ele>407</ele>
        <time>2020-05-31T07:11:46Z</time>
      </trkpt>
      <trkpt lat="43.96547" lon="5.13039">
        <ele>408</ele>
        <time>2020-05-31T07:11:50Z</time>
      </trkpt>
      <trkpt lat="43.96546" lon="5.13039">
        <ele>408</ele>
        <time>2020-05-31T07:11:51Z</time>
      </trkpt>
      <trkpt lat="43.96544" lon="5.13039">
        <ele>408</ele>
        <time>2020-05-31T07:11:52Z</time>
      </trkpt>
      <trkpt lat="43.96542" lon="5.13039">
        <ele>408</ele>
        <time>2020-05-31T07:11:53Z</time>
      </trkpt>
      <trkpt lat="43.96534" lon="5.13038">
        <ele>410</ele>
        <time>2020-05-31T07:12:02Z</time>
      </trkpt>
      <trkpt lat="43.96512" lon="5.13037">
        <ele>411</ele>
        <time>2020-05-31T07:12:16Z</time>
      </trkpt>
      <trkpt lat="43.96504" lon="5.13042">
        <ele>411</ele>
        <time>2020-05-31T07:12:22Z</time>
      </trkpt>
      <trkpt lat="43.96503" lon="5.13044">
        <ele>412</ele>
        <time>2020-05-31T07:12:23Z</time>
      </trkpt>
      <trkpt lat="43.96503" lon="5.13046">
        <ele>412</ele>
        <time>2020-05-31T07:12:24Z</time>
      </trkpt>
      <trkpt lat="43.96502" lon="5.13048">
        <ele>412</ele>
        <time>2020-05-31T07:12:25Z</time>
      </trkpt>
      <trkpt lat="43.96502" lon="5.1305">
        <ele>412</ele>
        <time>2020-05-31T07:12:26Z</time>
      </trkpt>
      <trkpt lat="43.96503" lon="5.13058">
        <ele>413</ele>
        <time>2020-05-31T07:12:30Z</time>
      </trkpt>
      <trkpt lat="43.96501" lon="5.1306">
        <ele>413</ele>
        <time>2020-05-31T07:12:33Z</time>
      </trkpt>
      <trkpt lat="43.96487" lon="5.13065">
        <ele>415</ele>
        <time>2020-05-31T07:12:42Z</time>
      </trkpt>
      <trkpt lat="43.96468" lon="5.13076">
        <ele>419</ele>
        <time>2020-05-31T07:12:52Z</time>
      </trkpt>
      <trkpt lat="43.96454" lon="5.13082">
        <ele>420</ele>
        <time>2020-05-31T07:13:01Z</time>
      </trkpt>
      <trkpt lat="43.96441" lon="5.13083">
        <ele>421</ele>
        <time>2020-05-31T07:13:08Z</time>
      </trkpt>
      <trkpt lat="43.9644" lon="5.13083">
        <ele>421</ele>
        <time>2020-05-31T07:13:09Z</time>
      </trkpt>
      <trkpt lat="43.96438" lon="5.13083">
        <ele>421</ele>
        <time>2020-05-31T07:13:10Z</time>
      </trkpt>
      <trkpt lat="43.96436" lon="5.13083">
        <ele>421</ele>
        <time>2020-05-31T07:13:11Z</time>
      </trkpt>
      <trkpt lat="43.96435" lon="5.13083">
        <ele>422</ele>
        <time>2020-05-31T07:13:12Z</time>
      </trkpt>
      <trkpt lat="43.96433" lon="5.13083">
        <ele>422</ele>
        <time>2020-05-31T07:13:13Z</time>
      </trkpt>
      <trkpt lat="43.96413" lon="5.13085">
        <ele>424</ele>
        <time>2020-05-31T07:13:23Z</time>
      </trkpt>
      <trkpt lat="43.964" lon="5.1309">
        <ele>426</ele>
        <time>2020-05-31T07:13:33Z</time>
      </trkpt>
      <trkpt lat="43.96383" lon="5.13095">
        <ele>428</ele>
        <time>2020-05-31T07:13:44Z</time>
      </trkpt>
      <trkpt lat="43.96363" lon="5.13104">
        <ele>432</ele>
        <time>2020-05-31T07:13:54Z</time>
      </trkpt>
      <trkpt lat="43.9635" lon="5.13111">
        <ele>434</ele>
        <time>2020-05-31T07:14:01Z</time>
      </trkpt>
      <trkpt lat="43.96334" lon="5.13118">
        <ele>436</ele>
        <time>2020-05-31T07:14:13Z</time>
      </trkpt>
      <trkpt lat="43.96316" lon="5.13121">
        <ele>439</ele>
        <time>2020-05-31T07:14:27Z</time>
      </trkpt>
      <trkpt lat="43.96293" lon="5.13127">
        <ele>442</ele>
        <time>2020-05-31T07:14:38Z</time>
      </trkpt>
      <trkpt lat="43.9628" lon="5.13131">
        <ele>444</ele>
        <time>2020-05-31T07:14:48Z</time>
      </trkpt>
      <trkpt lat="43.96262" lon="5.1314">
        <ele>446</ele>
        <time>2020-05-31T07:14:59Z</time>
      </trkpt>
      <trkpt lat="43.96239" lon="5.1315">
        <ele>450</ele>
        <time>2020-05-31T07:15:10Z</time>
      </trkpt>
      <trkpt lat="43.96221" lon="5.13153">
        <ele>452</ele>
        <time>2020-05-31T07:15:21Z</time>
      </trkpt>
      <trkpt lat="43.96206" lon="5.13157">
        <ele>455</ele>
        <time>2020-05-31T07:15:33Z</time>
      </trkpt>
      <trkpt lat="43.96183" lon="5.13161">
        <ele>458</ele>
        <time>2020-05-31T07:15:46Z</time>
      </trkpt>
      <trkpt lat="43.96171" lon="5.13161">
        <ele>459</ele>
        <time>2020-05-31T07:15:59Z</time>
      </trkpt>
      <trkpt lat="43.9615" lon="5.13165">
        <ele>462</ele>
        <time>2020-05-31T07:16:12Z</time>
      </trkpt>
      <trkpt lat="43.96134" lon="5.1317">
        <ele>464</ele>
        <time>2020-05-31T07:16:22Z</time>
      </trkpt>
      <trkpt lat="43.96113" lon="5.1317">
        <ele>467</ele>
        <time>2020-05-31T07:16:34Z</time>
      </trkpt>
      <trkpt lat="43.96097" lon="5.13174">
        <ele>469</ele>
        <time>2020-05-31T07:16:46Z</time>
      </trkpt>
      <trkpt lat="43.96073" lon="5.13183">
        <ele>472</ele>
        <time>2020-05-31T07:16:57Z</time>
      </trkpt>
      <trkpt lat="43.96067" lon="5.13185">
        <ele>472</ele>
        <time>2020-05-31T07:17:00Z</time>
      </trkpt>
      <trkpt lat="43.96064" lon="5.13185">
        <ele>473</ele>
        <time>2020-05-31T07:17:01Z</time>
      </trkpt>
      <trkpt lat="43.96062" lon="5.13186">
        <ele>473</ele>
        <time>2020-05-31T07:17:02Z</time>
      </trkpt>
      <trkpt lat="43.9606" lon="5.13187">
        <ele>473</ele>
        <time>2020-05-31T07:17:03Z</time>
      </trkpt>
      <trkpt lat="43.96059" lon="5.13188">
        <ele>473</ele>
        <time>2020-05-31T07:17:04Z</time>
      </trkpt>
      <trkpt lat="43.96057" lon="5.13189">
        <ele>473</ele>
        <time>2020-05-31T07:17:05Z</time>
      </trkpt>
      <trkpt lat="43.96055" lon="5.1319">
        <ele>474</ele>
        <time>2020-05-31T07:17:06Z</time>
      </trkpt>
      <trkpt lat="43.96054" lon="5.13191">
        <ele>474</ele>
        <time>2020-05-31T07:17:07Z</time>
      </trkpt>
      <trkpt lat="43.96039" lon="5.132">
        <ele>476</ele>
        <time>2020-05-31T07:17:17Z</time>
      </trkpt>
      <trkpt lat="43.9603" lon="5.13203">
        <ele>478</ele>
        <time>2020-05-31T07:17:26Z</time>
      </trkpt>
      <trkpt lat="43.96025" lon="5.13203">
        <ele>478</ele>
        <time>2020-05-31T07:17:35Z</time>
      </trkpt>
      <trkpt lat="43.96022" lon="5.13205">
        <ele>479</ele>
        <time>2020-05-31T07:17:46Z</time>
      </trkpt>
      <trkpt lat="43.96022" lon="5.13205">
        <ele>479</ele>
        <time>2020-05-31T07:18:05Z</time>
      </trkpt>
      <trkpt lat="43.96017" lon="5.13206">
        <ele>479</ele>
        <time>2020-05-31T07:20:25Z</time>
      </trkpt>
      <trkpt lat="43.96015" lon="5.13208">
        <ele>479</ele>
        <time>2020-05-31T07:20:27Z</time>
      </trkpt>
      <trkpt lat="43.96003" lon="5.1321">
        <ele>480</ele>
        <time>2020-05-31T07:20:35Z</time>
      </trkpt>
      <trkpt lat="43.95984" lon="5.13218">
        <ele>483</ele>
        <time>2020-05-31T07:20:47Z</time>
      </trkpt>
      <trkpt lat="43.95964" lon="5.13222">
        <ele>485</ele>
        <time>2020-05-31T07:20:59Z</time>
      </trkpt>
      <trkpt lat="43.95938" lon="5.13228">
        <ele>488</ele>
        <time>2020-05-31T07:21:11Z</time>
      </trkpt>
      <trkpt lat="43.95915" lon="5.13233">
        <ele>491</ele>
        <time>2020-05-31T07:21:23Z</time>
      </trkpt>
      <trkpt lat="43.95895" lon="5.13236">
        <ele>492</ele>
        <time>2020-05-31T07:21:32Z</time>
      </trkpt>
      <trkpt lat="43.95878" lon="5.13237">
        <ele>493</ele>
        <time>2020-05-31T07:21:42Z</time>
      </trkpt>
      <trkpt lat="43.95857" lon="5.13233">
        <ele>493</ele>
        <time>2020-05-31T07:21:54Z</time>
      </trkpt>
      <trkpt lat="43.95837" lon="5.13229">
        <ele>493</ele>
        <time>2020-05-31T07:22:04Z</time>
      </trkpt>
      <trkpt lat="43.95816" lon="5.13225">
        <ele>494</ele>
        <time>2020-05-31T07:22:14Z</time>
      </trkpt>
      <trkpt lat="43.95796" lon="5.13229">
        <ele>494</ele>
        <time>2020-05-31T07:22:24Z</time>
      </trkpt>
      <trkpt lat="43.95782" lon="5.13243">
        <ele>495</ele>
        <time>2020-05-31T07:22:33Z</time>
      </trkpt>
      <trkpt lat="43.9578" lon="5.13248">
        <ele>495</ele>
        <time>2020-05-31T07:22:35Z</time>
      </trkpt>
      <trkpt lat="43.95778" lon="5.1325">
        <ele>495</ele>
        <time>2020-05-31T07:22:36Z</time>
      </trkpt>
      <trkpt lat="43.95776" lon="5.13252">
        <ele>495</ele>
        <time>2020-05-31T07:22:37Z</time>
      </trkpt>
      <trkpt lat="43.95774" lon="5.13253">
        <ele>495</ele>
        <time>2020-05-31T07:22:38Z</time>
      </trkpt>
      <trkpt lat="43.95772" lon="5.13255">
        <ele>495</ele>
        <time>2020-05-31T07:22:39Z</time>
      </trkpt>
      <trkpt lat="43.9577" lon="5.13256">
        <ele>496</ele>
        <time>2020-05-31T07:22:40Z</time>
      </trkpt>
      <trkpt lat="43.95768" lon="5.13258">
        <ele>496</ele>
        <time>2020-05-31T07:22:41Z</time>
      </trkpt>
      <trkpt lat="43.95767" lon="5.13259">
        <ele>496</ele>
        <time>2020-05-31T07:22:42Z</time>
      </trkpt>
      <trkpt lat="43.95765" lon="5.1326">
        <ele>496</ele>
        <time>2020-05-31T07:22:43Z</time>
      </trkpt>
      <trkpt lat="43.95763" lon="5.13262">
        <ele>496</ele>
        <time>2020-05-31T07:22:44Z</time>
      </trkpt>
      <trkpt lat="43.95761" lon="5.13263">
        <ele>496</ele>
        <time>2020-05-31T07:22:45Z</time>
      </trkpt>
      <trkpt lat="43.9576" lon="5.13264">
        <ele>496</ele>
        <time>2020-05-31T07:22:46Z</time>
      </trkpt>
      <trkpt lat="43.95758" lon="5.13265">
        <ele>496</ele>
        <time>2020-05-31T07:22:47Z</time>
      </trkpt>
      <trkpt lat="43.95756" lon="5.13266">
        <ele>497</ele>
        <time>2020-05-31T07:22:48Z</time>
      </trkpt>
      <trkpt lat="43.95755" lon="5.13267">
        <ele>497</ele>
        <time>2020-05-31T07:22:49Z</time>
      </trkpt>
      <trkpt lat="43.95753" lon="5.13267">
        <ele>497</ele>
        <time>2020-05-31T07:22:50Z</time>
      </trkpt>
      <trkpt lat="43.95752" lon="5.13268">
        <ele>497</ele>
        <time>2020-05-31T07:22:51Z</time>
      </trkpt>
      <trkpt lat="43.9575" lon="5.13268">
        <ele>497</ele>
        <time>2020-05-31T07:22:52Z</time>
      </trkpt>
      <trkpt lat="43.95748" lon="5.13268">
        <ele>497</ele>
        <time>2020-05-31T07:22:53Z</time>
      </trkpt>
      <trkpt lat="43.95746" lon="5.13269">
        <ele>497</ele>
        <time>2020-05-31T07:22:54Z</time>
      </trkpt>
      <trkpt lat="43.95745" lon="5.1327">
        <ele>497</ele>
        <time>2020-05-31T07:22:55Z</time>
      </trkpt>
      <trkpt lat="43.95743" lon="5.13271">
        <ele>497</ele>
        <time>2020-05-31T07:22:56Z</time>
      </trkpt>
      <trkpt lat="43.95741" lon="5.13271">
        <ele>498</ele>
        <time>2020-05-31T07:22:57Z</time>
      </trkpt>
      <trkpt lat="43.9574" lon="5.13271">
        <ele>498</ele>
        <time>2020-05-31T07:22:58Z</time>
      </trkpt>
      <trkpt lat="43.95738" lon="5.13271">
        <ele>498</ele>
        <time>2020-05-31T07:22:59Z</time>
      </trkpt>
      <trkpt lat="43.95719" lon="5.13272">
        <ele>499</ele>
        <time>2020-05-31T07:23:10Z</time>
      </trkpt>
      <trkpt lat="43.95701" lon="5.13286">
        <ele>501</ele>
        <time>2020-05-31T07:23:21Z</time>
      </trkpt>
      <trkpt lat="43.957" lon="5.13287">
        <ele>501</ele>
        <time>2020-05-31T07:23:22Z</time>
      </trkpt>
      <trkpt lat="43.95698" lon="5.13288">
        <ele>501</ele>
        <time>2020-05-31T07:23:23Z</time>
      </trkpt>
      <trkpt lat="43.95697" lon="5.13289">
        <ele>501</ele>
        <time>2020-05-31T07:23:24Z</time>
      </trkpt>
      <trkpt lat="43.95696" lon="5.1329">
        <ele>501</ele>
        <time>2020-05-31T07:23:25Z</time>
      </trkpt>
      <trkpt lat="43.95695" lon="5.13292">
        <ele>501</ele>
        <time>2020-05-31T07:23:26Z</time>
      </trkpt>
      <trkpt lat="43.95694" lon="5.13294">
        <ele>502</ele>
        <time>2020-05-31T07:23:27Z</time>
      </trkpt>
      <trkpt lat="43.9568" lon="5.1331">
        <ele>504</ele>
        <time>2020-05-31T07:23:38Z</time>
      </trkpt>
      <trkpt lat="43.95659" lon="5.13336">
        <ele>506</ele>
        <time>2020-05-31T07:23:53Z</time>
      </trkpt>
      <trkpt lat="43.95642" lon="5.13353">
        <ele>509</ele>
        <time>2020-05-31T07:24:06Z</time>
      </trkpt>
      <trkpt lat="43.95626" lon="5.13367">
        <ele>511</ele>
        <time>2020-05-31T07:24:15Z</time>
      </trkpt>
      <trkpt lat="43.95625" lon="5.13369">
        <ele>511</ele>
        <time>2020-05-31T07:24:16Z</time>
      </trkpt>
      <trkpt lat="43.95617" lon="5.13382">
        <ele>513</ele>
        <time>2020-05-31T07:24:26Z</time>
      </trkpt>
      <trkpt lat="43.95616" lon="5.13384">
        <ele>513</ele>
        <time>2020-05-31T07:24:27Z</time>
      </trkpt>
      <trkpt lat="43.95607" lon="5.13403">
        <ele>515</ele>
        <time>2020-05-31T07:24:39Z</time>
      </trkpt>
      <trkpt lat="43.95604" lon="5.13418">
        <ele>517</ele>
        <time>2020-05-31T07:24:49Z</time>
      </trkpt>
      <trkpt lat="43.95596" lon="5.1344">
        <ele>518</ele>
        <time>2020-05-31T07:25:00Z</time>
      </trkpt>
      <trkpt lat="43.95587" lon="5.1346">
        <ele>519</ele>
        <time>2020-05-31T07:25:14Z</time>
      </trkpt>
      <trkpt lat="43.95582" lon="5.13471">
        <ele>520</ele>
        <time>2020-05-31T07:25:24Z</time>
      </trkpt>
      <trkpt lat="43.95575" lon="5.13483">
        <ele>521</ele>
        <time>2020-05-31T07:25:35Z</time>
      </trkpt>
      <trkpt lat="43.95564" lon="5.13506">
        <ele>523</ele>
        <time>2020-05-31T07:25:50Z</time>
      </trkpt>
      <trkpt lat="43.95558" lon="5.13537">
        <ele>526</ele>
        <time>2020-05-31T07:26:04Z</time>
      </trkpt>
      <trkpt lat="43.95548" lon="5.13565">
        <ele>529</ele>
        <time>2020-05-31T07:26:17Z</time>
      </trkpt>
      <trkpt lat="43.95536" lon="5.13587">
        <ele>531</ele>
        <time>2020-05-31T07:26:28Z</time>
      </trkpt>
      <trkpt lat="43.95525" lon="5.13607">
        <ele>534</ele>
        <time>2020-05-31T07:26:39Z</time>
      </trkpt>
      <trkpt lat="43.95523" lon="5.13618">
        <ele>536</ele>
        <time>2020-05-31T07:26:44Z</time>
      </trkpt>
      <trkpt lat="43.95522" lon="5.1362">
        <ele>536</ele>
        <time>2020-05-31T07:26:45Z</time>
      </trkpt>
      <trkpt lat="43.95514" lon="5.1364">
        <ele>538</ele>
        <time>2020-05-31T07:26:54Z</time>
      </trkpt>
      <trkpt lat="43.95509" lon="5.13667">
        <ele>541</ele>
        <time>2020-05-31T07:27:06Z</time>
      </trkpt>
      <trkpt lat="43.95504" lon="5.13695">
        <ele>544</ele>
        <time>2020-05-31T07:27:18Z</time>
      </trkpt>
      <trkpt lat="43.95497" lon="5.13719">
        <ele>546</ele>
        <time>2020-05-31T07:27:29Z</time>
      </trkpt>
      <trkpt lat="43.95497" lon="5.13721">
        <ele>547</ele>
        <time>2020-05-31T07:27:30Z</time>
      </trkpt>
      <trkpt lat="43.95496" lon="5.13723">
        <ele>547</ele>
        <time>2020-05-31T07:27:31Z</time>
      </trkpt>
      <trkpt lat="43.95496" lon="5.13726">
        <ele>547</ele>
        <time>2020-05-31T07:27:32Z</time>
      </trkpt>
      <trkpt lat="43.95496" lon="5.13728">
        <ele>548</ele>
        <time>2020-05-31T07:27:33Z</time>
      </trkpt>
      <trkpt lat="43.95496" lon="5.1373">
        <ele>548</ele>
        <time>2020-05-31T07:27:34Z</time>
      </trkpt>
      <trkpt lat="43.95495" lon="5.13732">
        <ele>548</ele>
        <time>2020-05-31T07:27:35Z</time>
      </trkpt>
      <trkpt lat="43.95491" lon="5.13754">
        <ele>551</ele>
        <time>2020-05-31T07:27:45Z</time>
      </trkpt>
      <trkpt lat="43.95488" lon="5.1378">
        <ele>555</ele>
        <time>2020-05-31T07:27:57Z</time>
      </trkpt>
      <trkpt lat="43.95482" lon="5.13805">
        <ele>558</ele>
        <time>2020-05-31T07:28:08Z</time>
      </trkpt>
      <trkpt lat="43.95478" lon="5.13822">
        <ele>561</ele>
        <time>2020-05-31T07:28:16Z</time>
      </trkpt>
      <trkpt lat="43.95486" lon="5.13842">
        <ele>565</ele>
        <time>2020-05-31T07:28:28Z</time>
      </trkpt>
      <trkpt lat="43.9549" lon="5.13843">
        <ele>565</ele>
        <time>2020-05-31T07:28:31Z</time>
      </trkpt>
      <trkpt lat="43.95491" lon="5.13843">
        <ele>565</ele>
        <time>2020-05-31T07:28:32Z</time>
      </trkpt>
      <trkpt lat="43.95495" lon="5.13844">
        <ele>565</ele>
        <time>2020-05-31T07:28:35Z</time>
      </trkpt>
      <trkpt lat="43.95497" lon="5.13845">
        <ele>565</ele>
        <time>2020-05-31T07:28:36Z</time>
      </trkpt>
      <trkpt lat="43.95498" lon="5.13845">
        <ele>565</ele>
        <time>2020-05-31T07:28:37Z</time>
      </trkpt>
      <trkpt lat="43.95501" lon="5.13847">
        <ele>565</ele>
        <time>2020-05-31T07:28:45Z</time>
      </trkpt>
      <trkpt lat="43.95504" lon="5.13847">
        <ele>565</ele>
        <time>2020-05-31T07:28:58Z</time>
      </trkpt>
      <trkpt lat="43.95506" lon="5.13851">
        <ele>566</ele>
        <time>2020-05-31T07:33:08Z</time>
      </trkpt>
      <trkpt lat="43.95507" lon="5.13853">
        <ele>566</ele>
        <time>2020-05-31T07:33:33Z</time>
      </trkpt>
      <trkpt lat="43.95508" lon="5.13856">
        <ele>566</ele>
        <time>2020-05-31T07:33:46Z</time>
      </trkpt>
      <trkpt lat="43.95509" lon="5.13857">
        <ele>567</ele>
        <time>2020-05-31T07:33:47Z</time>
      </trkpt>
      <trkpt lat="43.9551" lon="5.13859">
        <ele>567</ele>
        <time>2020-05-31T07:33:48Z</time>
      </trkpt>
      <trkpt lat="43.95511" lon="5.13861">
        <ele>567</ele>
        <time>2020-05-31T07:33:49Z</time>
      </trkpt>
      <trkpt lat="43.95512" lon="5.13864">
        <ele>567</ele>
        <time>2020-05-31T07:33:50Z</time>
      </trkpt>
      <trkpt lat="43.95516" lon="5.13883">
        <ele>570</ele>
        <time>2020-05-31T07:33:58Z</time>
      </trkpt>
      <trkpt lat="43.95517" lon="5.13902">
        <ele>572</ele>
        <time>2020-05-31T07:34:06Z</time>
      </trkpt>
      <trkpt lat="43.95514" lon="5.13923">
        <ele>575</ele>
        <time>2020-05-31T07:34:16Z</time>
      </trkpt>
      <trkpt lat="43.95511" lon="5.13931">
        <ele>576</ele>
        <time>2020-05-31T07:34:20Z</time>
      </trkpt>
      <trkpt lat="43.9551" lon="5.13933">
        <ele>577</ele>
        <time>2020-05-31T07:34:21Z</time>
      </trkpt>
      <trkpt lat="43.95499" lon="5.13949">
        <ele>581</ele>
        <time>2020-05-31T07:34:30Z</time>
      </trkpt>
      <trkpt lat="43.95486" lon="5.13955">
        <ele>583</ele>
        <time>2020-05-31T07:34:39Z</time>
      </trkpt>
      <trkpt lat="43.95482" lon="5.13958">
        <ele>584</ele>
        <time>2020-05-31T07:34:42Z</time>
      </trkpt>
      <trkpt lat="43.95481" lon="5.13959">
        <ele>584</ele>
        <time>2020-05-31T07:34:43Z</time>
      </trkpt>
      <trkpt lat="43.9548" lon="5.13959">
        <ele>585</ele>
        <time>2020-05-31T07:34:44Z</time>
      </trkpt>
      <trkpt lat="43.95479" lon="5.1396">
        <ele>585</ele>
        <time>2020-05-31T07:34:45Z</time>
      </trkpt>
      <trkpt lat="43.95478" lon="5.13962">
        <ele>585</ele>
        <time>2020-05-31T07:34:46Z</time>
      </trkpt>
      <trkpt lat="43.95477" lon="5.13964">
        <ele>586</ele>
        <time>2020-05-31T07:34:47Z</time>
      </trkpt>
      <trkpt lat="43.95477" lon="5.13966">
        <ele>586</ele>
        <time>2020-05-31T07:34:48Z</time>
      </trkpt>
      <trkpt lat="43.95477" lon="5.13968">
        <ele>586</ele>
        <time>2020-05-31T07:34:49Z</time>
      </trkpt>
      <trkpt lat="43.95476" lon="5.13974">
        <ele>588</ele>
        <time>2020-05-31T07:34:57Z</time>
      </trkpt>
      <trkpt lat="43.95474" lon="5.13991">
        <ele>590</ele>
        <time>2020-05-31T07:35:06Z</time>
      </trkpt>
      <trkpt lat="43.95473" lon="5.13993">
        <ele>591</ele>
        <time>2020-05-31T07:35:08Z</time>
      </trkpt>
      <trkpt lat="43.95473" lon="5.13995">
        <ele>591</ele>
        <time>2020-05-31T07:35:10Z</time>
      </trkpt>
      <trkpt lat="43.95473" lon="5.13997">
        <ele>591</ele>
        <time>2020-05-31T07:35:11Z</time>
      </trkpt>
      <trkpt lat="43.95473" lon="5.14">
        <ele>592</ele>
        <time>2020-05-31T07:35:13Z</time>
      </trkpt>
      <trkpt lat="43.95472" lon="5.14008">
        <ele>593</ele>
        <time>2020-05-31T07:35:23Z</time>
      </trkpt>
      <trkpt lat="43.95469" lon="5.14024">
        <ele>594</ele>
        <time>2020-05-31T07:35:36Z</time>
      </trkpt>
      <trkpt lat="43.95471" lon="5.14032">
        <ele>596</ele>
        <time>2020-05-31T07:35:43Z</time>
      </trkpt>
      <trkpt lat="43.95473" lon="5.14035">
        <ele>596</ele>
        <time>2020-05-31T07:35:45Z</time>
      </trkpt>
      <trkpt lat="43.95474" lon="5.14037">
        <ele>596</ele>
        <time>2020-05-31T07:35:46Z</time>
      </trkpt>
      <trkpt lat="43.95475" lon="5.14038">
        <ele>596</ele>
        <time>2020-05-31T07:35:47Z</time>
      </trkpt>
      <trkpt lat="43.95475" lon="5.1404">
        <ele>596</ele>
        <time>2020-05-31T07:35:48Z</time>
      </trkpt>
      <trkpt lat="43.95476" lon="5.14048">
        <ele>597</ele>
        <time>2020-05-31T07:35:54Z</time>
      </trkpt>
      <trkpt lat="43.95477" lon="5.14056">
        <ele>598</ele>
        <time>2020-05-31T07:36:01Z</time>
      </trkpt>
      <trkpt lat="43.95478" lon="5.14058">
        <ele>598</ele>
        <time>2020-05-31T07:36:02Z</time>
      </trkpt>
      <trkpt lat="43.95479" lon="5.1406">
        <ele>599</ele>
        <time>2020-05-31T07:36:03Z</time>
      </trkpt>
      <trkpt lat="43.95479" lon="5.14062">
        <ele>599</ele>
        <time>2020-05-31T07:36:04Z</time>
      </trkpt>
      <trkpt lat="43.9548" lon="5.14072">
        <ele>601</ele>
        <time>2020-05-31T07:36:14Z</time>
      </trkpt>
      <trkpt lat="43.95478" lon="5.14073">
        <ele>602</ele>
        <time>2020-05-31T07:36:24Z</time>
      </trkpt>
      <trkpt lat="43.95465" lon="5.1408">
        <ele>603</ele>
        <time>2020-05-31T07:37:43Z</time>
      </trkpt>
      <trkpt lat="43.95464" lon="5.14083">
        <ele>604</ele>
        <time>2020-05-31T07:37:46Z</time>
      </trkpt>
      <trkpt lat="43.95459" lon="5.1409">
        <ele>605</ele>
        <time>2020-05-31T07:37:54Z</time>
      </trkpt>
      <trkpt lat="43.95459" lon="5.14092">
        <ele>606</ele>
        <time>2020-05-31T07:37:55Z</time>
      </trkpt>
      <trkpt lat="43.95458" lon="5.14094">
        <ele>606</ele>
        <time>2020-05-31T07:37:56Z</time>
      </trkpt>
      <trkpt lat="43.95458" lon="5.14096">
        <ele>607</ele>
        <time>2020-05-31T07:37:57Z</time>
      </trkpt>
      <trkpt lat="43.95457" lon="5.14098">
        <ele>607</ele>
        <time>2020-05-31T07:37:58Z</time>
      </trkpt>
      <trkpt lat="43.95453" lon="5.14107">
        <ele>609</ele>
        <time>2020-05-31T07:38:06Z</time>
      </trkpt>
      <trkpt lat="43.95446" lon="5.14122">
        <ele>612</ele>
        <time>2020-05-31T07:38:15Z</time>
      </trkpt>
      <trkpt lat="43.95439" lon="5.14133">
        <ele>613</ele>
        <time>2020-05-31T07:38:22Z</time>
      </trkpt>
      <trkpt lat="43.95437" lon="5.14144">
        <ele>615</ele>
        <time>2020-05-31T07:38:27Z</time>
      </trkpt>
      <trkpt lat="43.95436" lon="5.14145">
        <ele>615</ele>
        <time>2020-05-31T07:38:28Z</time>
      </trkpt>
      <trkpt lat="43.95434" lon="5.14146">
        <ele>615</ele>
        <time>2020-05-31T07:38:29Z</time>
      </trkpt>
      <trkpt lat="43.95433" lon="5.14148">
        <ele>615</ele>
        <time>2020-05-31T07:38:30Z</time>
      </trkpt>
      <trkpt lat="43.95432" lon="5.14149">
        <ele>615</ele>
        <time>2020-05-31T07:38:31Z</time>
      </trkpt>
      <trkpt lat="43.9543" lon="5.1415">
        <ele>615</ele>
        <time>2020-05-31T07:38:32Z</time>
      </trkpt>
      <trkpt lat="43.95429" lon="5.14151">
        <ele>615</ele>
        <time>2020-05-31T07:38:33Z</time>
      </trkpt>
      <trkpt lat="43.95428" lon="5.14153">
        <ele>615</ele>
        <time>2020-05-31T07:38:34Z</time>
      </trkpt>
      <trkpt lat="43.95427" lon="5.14155">
        <ele>615</ele>
        <time>2020-05-31T07:38:35Z</time>
      </trkpt>
      <trkpt lat="43.95417" lon="5.1417">
        <ele>617</ele>
        <time>2020-05-31T07:38:45Z</time>
      </trkpt>
      <trkpt lat="43.95416" lon="5.14171">
        <ele>618</ele>
        <time>2020-05-31T07:38:46Z</time>
      </trkpt>
      <trkpt lat="43.95415" lon="5.14173">
        <ele>618</ele>
        <time>2020-05-31T07:38:47Z</time>
      </trkpt>
      <trkpt lat="43.95415" lon="5.14175">
        <ele>619</ele>
        <time>2020-05-31T07:38:48Z</time>
      </trkpt>
      <trkpt lat="43.95414" lon="5.14176">
        <ele>619</ele>
        <time>2020-05-31T07:38:49Z</time>
      </trkpt>
      <trkpt lat="43.95413" lon="5.14178">
        <ele>620</ele>
        <time>2020-05-31T07:38:50Z</time>
      </trkpt>
      <trkpt lat="43.95412" lon="5.14182">
        <ele>621</ele>
        <time>2020-05-31T07:38:52Z</time>
      </trkpt>
      <trkpt lat="43.95404" lon="5.14198">
        <ele>625</ele>
        <time>2020-05-31T07:39:01Z</time>
      </trkpt>
      <trkpt lat="43.95397" lon="5.14208">
        <ele>626</ele>
        <time>2020-05-31T07:39:09Z</time>
      </trkpt>
      <trkpt lat="43.95396" lon="5.1421">
        <ele>627</ele>
        <time>2020-05-31T07:39:10Z</time>
      </trkpt>
      <trkpt lat="43.95385" lon="5.14224">
        <ele>630</ele>
        <time>2020-05-31T07:39:20Z</time>
      </trkpt>
      <trkpt lat="43.95385" lon="5.14228">
        <ele>631</ele>
        <time>2020-05-31T07:39:22Z</time>
      </trkpt>
      <trkpt lat="43.95388" lon="5.14235">
        <ele>634</ele>
        <time>2020-05-31T07:39:26Z</time>
      </trkpt>
      <trkpt lat="43.95394" lon="5.1424">
        <ele>635</ele>
        <time>2020-05-31T07:39:30Z</time>
      </trkpt>
      <trkpt lat="43.95406" lon="5.14238">
        <ele>634</ele>
        <time>2020-05-31T07:39:41Z</time>
      </trkpt>
      <trkpt lat="43.95408" lon="5.14238">
        <ele>634</ele>
        <time>2020-05-31T07:39:43Z</time>
      </trkpt>
      <trkpt lat="43.9541" lon="5.14239">
        <ele>634</ele>
        <time>2020-05-31T07:39:44Z</time>
      </trkpt>
      <trkpt lat="43.95414" lon="5.14246">
        <ele>635</ele>
        <time>2020-05-31T07:39:48Z</time>
      </trkpt>
      <trkpt lat="43.95414" lon="5.14248">
        <ele>635</ele>
        <time>2020-05-31T07:39:49Z</time>
      </trkpt>
      <trkpt lat="43.95414" lon="5.14255">
        <ele>636</ele>
        <time>2020-05-31T07:44:50Z</time>
      </trkpt>
      <trkpt lat="43.95413" lon="5.14255">
        <ele>636</ele>
        <time>2020-05-31T07:44:51Z</time>
      </trkpt>
      <trkpt lat="43.95411" lon="5.14255">
        <ele>636</ele>
        <time>2020-05-31T07:44:52Z</time>
      </trkpt>
      <trkpt lat="43.9541" lon="5.14256">
        <ele>636</ele>
        <time>2020-05-31T07:44:53Z</time>
      </trkpt>
      <trkpt lat="43.95408" lon="5.14258">
        <ele>636</ele>
        <time>2020-05-31T07:44:54Z</time>
      </trkpt>
      <trkpt lat="43.95407" lon="5.14259">
        <ele>637</ele>
        <time>2020-05-31T07:44:55Z</time>
      </trkpt>
      <trkpt lat="43.95406" lon="5.14261">
        <ele>637</ele>
        <time>2020-05-31T07:44:56Z</time>
      </trkpt>
      <trkpt lat="43.95406" lon="5.14263">
        <ele>637</ele>
        <time>2020-05-31T07:44:57Z</time>
      </trkpt>
      <trkpt lat="43.95405" lon="5.14272">
        <ele>638</ele>
        <time>2020-05-31T07:45:01Z</time>
      </trkpt>
      <trkpt lat="43.95405" lon="5.14275">
        <ele>638</ele>
        <time>2020-05-31T07:45:02Z</time>
      </trkpt>
      <trkpt lat="43.95404" lon="5.14276">
        <ele>638</ele>
        <time>2020-05-31T07:45:03Z</time>
      </trkpt>
      <trkpt lat="43.95403" lon="5.14278">
        <ele>638</ele>
        <time>2020-05-31T07:45:04Z</time>
      </trkpt>
      <trkpt lat="43.95402" lon="5.14279">
        <ele>639</ele>
        <time>2020-05-31T07:45:05Z</time>
      </trkpt>
      <trkpt lat="43.954" lon="5.1428">
        <ele>639</ele>
        <time>2020-05-31T07:45:06Z</time>
      </trkpt>
      <trkpt lat="43.95399" lon="5.14281">
        <ele>639</ele>
        <time>2020-05-31T07:45:07Z</time>
      </trkpt>
      <trkpt lat="43.95397" lon="5.14281">
        <ele>639</ele>
        <time>2020-05-31T07:45:08Z</time>
      </trkpt>
      <trkpt lat="43.95394" lon="5.14282">
        <ele>639</ele>
        <time>2020-05-31T07:45:10Z</time>
      </trkpt>
      <trkpt lat="43.95392" lon="5.14282">
        <ele>640</ele>
        <time>2020-05-31T07:45:11Z</time>
      </trkpt>
      <trkpt lat="43.95391" lon="5.14283">
        <ele>640</ele>
        <time>2020-05-31T07:45:12Z</time>
      </trkpt>
      <trkpt lat="43.95389" lon="5.14284">
        <ele>640</ele>
        <time>2020-05-31T07:45:13Z</time>
      </trkpt>
      <trkpt lat="43.95388" lon="5.14286">
        <ele>640</ele>
        <time>2020-05-31T07:45:14Z</time>
      </trkpt>
      <trkpt lat="43.95382" lon="5.14293">
        <ele>640</ele>
        <time>2020-05-31T07:45:19Z</time>
      </trkpt>
      <trkpt lat="43.95381" lon="5.14294">
        <ele>640</ele>
        <time>2020-05-31T07:45:20Z</time>
      </trkpt>
      <trkpt lat="43.95378" lon="5.14296">
        <ele>640</ele>
        <time>2020-05-31T07:45:22Z</time>
      </trkpt>
      <trkpt lat="43.95377" lon="5.14298">
        <ele>640</ele>
        <time>2020-05-31T07:45:23Z</time>
      </trkpt>
      <trkpt lat="43.95376" lon="5.143">
        <ele>640</ele>
        <time>2020-05-31T07:45:24Z</time>
      </trkpt>
      <trkpt lat="43.95374" lon="5.14301">
        <ele>640</ele>
        <time>2020-05-31T07:45:25Z</time>
      </trkpt>
      <trkpt lat="43.95373" lon="5.14302">
        <ele>641</ele>
        <time>2020-05-31T07:45:26Z</time>
      </trkpt>
      <trkpt lat="43.95371" lon="5.14304">
        <ele>641</ele>
        <time>2020-05-31T07:45:27Z</time>
      </trkpt>
      <trkpt lat="43.95365" lon="5.14311">
        <ele>641</ele>
        <time>2020-05-31T07:45:31Z</time>
      </trkpt>
      <trkpt lat="43.95355" lon="5.14337">
        <ele>643</ele>
        <time>2020-05-31T07:45:42Z</time>
      </trkpt>
      <trkpt lat="43.95342" lon="5.1436">
        <ele>646</ele>
        <time>2020-05-31T07:45:55Z</time>
      </trkpt>
      <trkpt lat="43.95333" lon="5.14376">
        <ele>648</ele>
        <time>2020-05-31T07:46:04Z</time>
      </trkpt>
      <trkpt lat="43.9532" lon="5.14396">
        <ele>649</ele>
        <time>2020-05-31T07:46:14Z</time>
      </trkpt>
      <trkpt lat="43.95307" lon="5.14419">
        <ele>650</ele>
        <time>2020-05-31T07:46:24Z</time>
      </trkpt>
      <trkpt lat="43.95296" lon="5.14433">
        <ele>651</ele>
        <time>2020-05-31T07:46:33Z</time>
      </trkpt>
      <trkpt lat="43.95282" lon="5.14445">
        <ele>653</ele>
        <time>2020-05-31T07:46:43Z</time>
      </trkpt>
      <trkpt lat="43.95271" lon="5.14462">
        <ele>654</ele>
        <time>2020-05-31T07:46:52Z</time>
      </trkpt>
      <trkpt lat="43.95271" lon="5.14467">
        <ele>654</ele>
        <time>2020-05-31T07:46:54Z</time>
      </trkpt>
      <trkpt lat="43.95279" lon="5.14488">
        <ele>656</ele>
        <time>2020-05-31T07:47:04Z</time>
      </trkpt>
      <trkpt lat="43.9528" lon="5.14491">
        <ele>656</ele>
        <time>2020-05-31T07:47:05Z</time>
      </trkpt>
      <trkpt lat="43.95281" lon="5.14493">
        <ele>656</ele>
        <time>2020-05-31T07:47:06Z</time>
      </trkpt>
      <trkpt lat="43.95285" lon="5.14506">
        <ele>657</ele>
        <time>2020-05-31T07:47:12Z</time>
      </trkpt>
      <trkpt lat="43.95288" lon="5.14514">
        <ele>657</ele>
        <time>2020-05-31T07:47:17Z</time>
      </trkpt>
      <trkpt lat="43.95289" lon="5.14515">
        <ele>657</ele>
        <time>2020-05-31T07:47:18Z</time>
      </trkpt>
      <trkpt lat="43.9529" lon="5.14517">
        <ele>658</ele>
        <time>2020-05-31T07:47:19Z</time>
      </trkpt>
      <trkpt lat="43.95298" lon="5.14534">
        <ele>658</ele>
        <time>2020-05-31T07:47:28Z</time>
      </trkpt>
      <trkpt lat="43.95298" lon="5.14536">
        <ele>658</ele>
        <time>2020-05-31T07:47:30Z</time>
      </trkpt>
      <trkpt lat="43.95299" lon="5.14541">
        <ele>658</ele>
        <time>2020-05-31T07:47:32Z</time>
      </trkpt>
      <trkpt lat="43.95299" lon="5.14543">
        <ele>659</ele>
        <time>2020-05-31T07:47:33Z</time>
      </trkpt>
      <trkpt lat="43.953" lon="5.14546">
        <ele>659</ele>
        <time>2020-05-31T07:47:34Z</time>
      </trkpt>
      <trkpt lat="43.95303" lon="5.14572">
        <ele>660</ele>
        <time>2020-05-31T07:47:43Z</time>
      </trkpt>
      <trkpt lat="43.95306" lon="5.14596">
        <ele>660</ele>
        <time>2020-05-31T07:47:51Z</time>
      </trkpt>
      <trkpt lat="43.95299" lon="5.1462">
        <ele>660</ele>
        <time>2020-05-31T07:48:00Z</time>
      </trkpt>
      <trkpt lat="43.95291" lon="5.14649">
        <ele>660</ele>
        <time>2020-05-31T07:48:11Z</time>
      </trkpt>
      <trkpt lat="43.95281" lon="5.14679">
        <ele>660</ele>
        <time>2020-05-31T07:48:22Z</time>
      </trkpt>
      <trkpt lat="43.95276" lon="5.14704">
        <ele>660</ele>
        <time>2020-05-31T07:48:30Z</time>
      </trkpt>
      <trkpt lat="43.95272" lon="5.14736">
        <ele>660</ele>
        <time>2020-05-31T07:48:40Z</time>
      </trkpt>
      <trkpt lat="43.95267" lon="5.14754">
        <ele>660</ele>
        <time>2020-05-31T07:48:46Z</time>
      </trkpt>
      <trkpt lat="43.95266" lon="5.14756">
        <ele>660</ele>
        <time>2020-05-31T07:48:47Z</time>
      </trkpt>
      <trkpt lat="43.95255" lon="5.14796">
        <ele>659</ele>
        <time>2020-05-31T07:48:59Z</time>
      </trkpt>
      <trkpt lat="43.95249" lon="5.14832">
        <ele>659</ele>
        <time>2020-05-31T07:49:10Z</time>
      </trkpt>
      <trkpt lat="43.95239" lon="5.14864">
        <ele>659</ele>
        <time>2020-05-31T07:49:21Z</time>
      </trkpt>
      <trkpt lat="43.9523" lon="5.14889">
        <ele>657</ele>
        <time>2020-05-31T07:49:29Z</time>
      </trkpt>
      <trkpt lat="43.95224" lon="5.14918">
        <ele>656</ele>
        <time>2020-05-31T07:49:38Z</time>
      </trkpt>
      <trkpt lat="43.9522" lon="5.14947">
        <ele>656</ele>
        <time>2020-05-31T07:49:47Z</time>
      </trkpt>
      <trkpt lat="43.95204" lon="5.14969">
        <ele>654</ele>
        <time>2020-05-31T07:49:56Z</time>
      </trkpt>
      <trkpt lat="43.95187" lon="5.14986">
        <ele>653</ele>
        <time>2020-05-31T07:50:04Z</time>
      </trkpt>
      <trkpt lat="43.95166" lon="5.15021">
        <ele>651</ele>
        <time>2020-05-31T07:50:17Z</time>
      </trkpt>
      <trkpt lat="43.95152" lon="5.15048">
        <ele>650</ele>
        <time>2020-05-31T07:50:27Z</time>
      </trkpt>
      <trkpt lat="43.95137" lon="5.15079">
        <ele>650</ele>
        <time>2020-05-31T07:50:37Z</time>
      </trkpt>
      <trkpt lat="43.95122" lon="5.15106">
        <ele>650</ele>
        <time>2020-05-31T07:50:46Z</time>
      </trkpt>
      <trkpt lat="43.95105" lon="5.15136">
        <ele>650</ele>
        <time>2020-05-31T07:50:57Z</time>
      </trkpt>
      <trkpt lat="43.9509" lon="5.15161">
        <ele>649</ele>
        <time>2020-05-31T07:51:07Z</time>
      </trkpt>
      <trkpt lat="43.95074" lon="5.15189">
        <ele>647</ele>
        <time>2020-05-31T07:51:18Z</time>
      </trkpt>
      <trkpt lat="43.95065" lon="5.15216">
        <ele>646</ele>
        <time>2020-05-31T07:51:26Z</time>
      </trkpt>
      <trkpt lat="43.95058" lon="5.15249">
        <ele>644</ele>
        <time>2020-05-31T07:51:36Z</time>
      </trkpt>
      <trkpt lat="43.95049" lon="5.15297">
        <ele>643</ele>
        <time>2020-05-31T07:51:50Z</time>
      </trkpt>
      <trkpt lat="43.95046" lon="5.1533">
        <ele>642</ele>
        <time>2020-05-31T07:52:00Z</time>
      </trkpt>
      <trkpt lat="43.95044" lon="5.15374">
        <ele>641</ele>
        <time>2020-05-31T07:52:13Z</time>
      </trkpt>
      <trkpt lat="43.95036" lon="5.15414">
        <ele>640</ele>
        <time>2020-05-31T07:52:25Z</time>
      </trkpt>
      <trkpt lat="43.95028" lon="5.15444">
        <ele>640</ele>
        <time>2020-05-31T07:52:35Z</time>
      </trkpt>
      <trkpt lat="43.9502" lon="5.15473">
        <ele>640</ele>
        <time>2020-05-31T07:52:44Z</time>
      </trkpt>
      <trkpt lat="43.95007" lon="5.15493">
        <ele>640</ele>
        <time>2020-05-31T07:52:52Z</time>
      </trkpt>
      <trkpt lat="43.94982" lon="5.15505">
        <ele>640</ele>
        <time>2020-05-31T07:53:04Z</time>
      </trkpt>
      <trkpt lat="43.94962" lon="5.15529">
        <ele>639</ele>
        <time>2020-05-31T07:53:14Z</time>
      </trkpt>
      <trkpt lat="43.94964" lon="5.15562">
        <ele>636</ele>
        <time>2020-05-31T07:53:24Z</time>
      </trkpt>
      <trkpt lat="43.94971" lon="5.15573">
        <ele>635</ele>
        <time>2020-05-31T07:53:34Z</time>
      </trkpt>
      <trkpt lat="43.94973" lon="5.15574">
        <ele>635</ele>
        <time>2020-05-31T07:53:38Z</time>
      </trkpt>
      <trkpt lat="43.94974" lon="5.15575">
        <ele>635</ele>
        <time>2020-05-31T07:53:39Z</time>
      </trkpt>
      <trkpt lat="43.94981" lon="5.15598">
        <ele>634</ele>
        <time>2020-05-31T07:53:48Z</time>
      </trkpt>
      <trkpt lat="43.94989" lon="5.15625">
        <ele>633</ele>
        <time>2020-05-31T07:53:57Z</time>
      </trkpt>
      <trkpt lat="43.94999" lon="5.1564">
        <ele>633</ele>
        <time>2020-05-31T07:54:04Z</time>
      </trkpt>
      <trkpt lat="43.95013" lon="5.15647">
        <ele>634</ele>
        <time>2020-05-31T07:54:11Z</time>
      </trkpt>
      <trkpt lat="43.95015" lon="5.15649">
        <ele>634</ele>
        <time>2020-05-31T07:54:12Z</time>
      </trkpt>
      <trkpt lat="43.95017" lon="5.1565">
        <ele>634</ele>
        <time>2020-05-31T07:54:13Z</time>
      </trkpt>
      <trkpt lat="43.95019" lon="5.15651">
        <ele>634</ele>
        <time>2020-05-31T07:54:14Z</time>
      </trkpt>
      <trkpt lat="43.9502" lon="5.15651">
        <ele>634</ele>
        <time>2020-05-31T07:54:15Z</time>
      </trkpt>
      <trkpt lat="43.95042" lon="5.15666">
        <ele>636</ele>
        <time>2020-05-31T07:54:27Z</time>
      </trkpt>
      <trkpt lat="43.95065" lon="5.15679">
        <ele>637</ele>
        <time>2020-05-31T07:54:38Z</time>
      </trkpt>
      <trkpt lat="43.95091" lon="5.15689">
        <ele>639</ele>
        <time>2020-05-31T07:54:51Z</time>
      </trkpt>
      <trkpt lat="43.95113" lon="5.15683">
        <ele>641</ele>
        <time>2020-05-31T07:55:03Z</time>
      </trkpt>
      <trkpt lat="43.95114" lon="5.15682">
        <ele>641</ele>
        <time>2020-05-31T07:55:04Z</time>
      </trkpt>
      <trkpt lat="43.95116" lon="5.15681">
        <ele>641</ele>
        <time>2020-05-31T07:55:05Z</time>
      </trkpt>
      <trkpt lat="43.95118" lon="5.1568">
        <ele>642</ele>
        <time>2020-05-31T07:55:06Z</time>
      </trkpt>
      <trkpt lat="43.9512" lon="5.15679">
        <ele>642</ele>
        <time>2020-05-31T07:55:07Z</time>
      </trkpt>
      <trkpt lat="43.95122" lon="5.15678">
        <ele>642</ele>
        <time>2020-05-31T07:55:08Z</time>
      </trkpt>
      <trkpt lat="43.95123" lon="5.15677">
        <ele>642</ele>
        <time>2020-05-31T07:55:09Z</time>
      </trkpt>
      <trkpt lat="43.95125" lon="5.15677">
        <ele>642</ele>
        <time>2020-05-31T07:55:10Z</time>
      </trkpt>
      <trkpt lat="43.95127" lon="5.15676">
        <ele>642</ele>
        <time>2020-05-31T07:55:11Z</time>
      </trkpt>
      <trkpt lat="43.95129" lon="5.15676">
        <ele>643</ele>
        <time>2020-05-31T07:55:12Z</time>
      </trkpt>
      <trkpt lat="43.95131" lon="5.15676">
        <ele>643</ele>
        <time>2020-05-31T07:55:13Z</time>
      </trkpt>
      <trkpt lat="43.95154" lon="5.15685">
        <ele>643</ele>
        <time>2020-05-31T07:55:23Z</time>
      </trkpt>
      <trkpt lat="43.95178" lon="5.15689">
        <ele>642</ele>
        <time>2020-05-31T07:55:33Z</time>
      </trkpt>
      <trkpt lat="43.95204" lon="5.15686">
        <ele>642</ele>
        <time>2020-05-31T07:55:44Z</time>
      </trkpt>
      <trkpt lat="43.95225" lon="5.15693">
        <ele>641</ele>
        <time>2020-05-31T07:55:53Z</time>
      </trkpt>
      <trkpt lat="43.95243" lon="5.15713">
        <ele>638</ele>
        <time>2020-05-31T07:56:03Z</time>
      </trkpt>
      <trkpt lat="43.95265" lon="5.15708">
        <ele>638</ele>
        <time>2020-05-31T07:56:13Z</time>
      </trkpt>
      <trkpt lat="43.95287" lon="5.15705">
        <ele>638</ele>
        <time>2020-05-31T07:56:23Z</time>
      </trkpt>
      <trkpt lat="43.95309" lon="5.15706">
        <ele>637</ele>
        <time>2020-05-31T07:56:32Z</time>
      </trkpt>
      <trkpt lat="43.95334" lon="5.15711">
        <ele>635</ele>
        <time>2020-05-31T07:56:43Z</time>
      </trkpt>
      <trkpt lat="43.9536" lon="5.15716">
        <ele>635</ele>
        <time>2020-05-31T07:56:55Z</time>
      </trkpt>
      <trkpt lat="43.95385" lon="5.15719">
        <ele>634</ele>
        <time>2020-05-31T07:57:05Z</time>
      </trkpt>
      <trkpt lat="43.95413" lon="5.1572">
        <ele>634</ele>
        <time>2020-05-31T07:57:15Z</time>
      </trkpt>
      <trkpt lat="43.95434" lon="5.1572">
        <ele>634</ele>
        <time>2020-05-31T07:57:25Z</time>
      </trkpt>
      <trkpt lat="43.95456" lon="5.15724">
        <ele>634</ele>
        <time>2020-05-31T07:57:36Z</time>
      </trkpt>
      <trkpt lat="43.95483" lon="5.15745">
        <ele>634</ele>
        <time>2020-05-31T07:57:45Z</time>
      </trkpt>
      <trkpt lat="43.95496" lon="5.15781">
        <ele>633</ele>
        <time>2020-05-31T07:57:55Z</time>
      </trkpt>
      <trkpt lat="43.955" lon="5.15811">
        <ele>633</ele>
        <time>2020-05-31T07:58:04Z</time>
      </trkpt>
      <trkpt lat="43.95496" lon="5.15841">
        <ele>633</ele>
        <time>2020-05-31T07:58:13Z</time>
      </trkpt>
      <trkpt lat="43.95489" lon="5.15865">
        <ele>634</ele>
        <time>2020-05-31T07:58:21Z</time>
      </trkpt>
      <trkpt lat="43.95479" lon="5.15889">
        <ele>634</ele>
        <time>2020-05-31T07:58:29Z</time>
      </trkpt>
      <trkpt lat="43.95471" lon="5.15919">
        <ele>634</ele>
        <time>2020-05-31T07:58:39Z</time>
      </trkpt>
      <trkpt lat="43.95464" lon="5.1595">
        <ele>633</ele>
        <time>2020-05-31T07:58:49Z</time>
      </trkpt>
      <trkpt lat="43.95459" lon="5.15979">
        <ele>633</ele>
        <time>2020-05-31T07:58:58Z</time>
      </trkpt>
      <trkpt lat="43.95458" lon="5.16012">
        <ele>633</ele>
        <time>2020-05-31T07:59:08Z</time>
      </trkpt>
      <trkpt lat="43.9547" lon="5.16042">
        <ele>633</ele>
        <time>2020-05-31T07:59:19Z</time>
      </trkpt>
      <trkpt lat="43.95487" lon="5.16071">
        <ele>633</ele>
        <time>2020-05-31T07:59:30Z</time>
      </trkpt>
      <trkpt lat="43.95499" lon="5.16097">
        <ele>634</ele>
        <time>2020-05-31T07:59:39Z</time>
      </trkpt>
      <trkpt lat="43.95511" lon="5.16117">
        <ele>634</ele>
        <time>2020-05-31T07:59:47Z</time>
      </trkpt>
      <trkpt lat="43.95523" lon="5.16142">
        <ele>635</ele>
        <time>2020-05-31T07:59:56Z</time>
      </trkpt>
      <trkpt lat="43.95535" lon="5.16164">
        <ele>635</ele>
        <time>2020-05-31T08:00:04Z</time>
      </trkpt>
      <trkpt lat="43.95545" lon="5.16186">
        <ele>635</ele>
        <time>2020-05-31T08:00:13Z</time>
      </trkpt>
      <trkpt lat="43.95559" lon="5.16206">
        <ele>635</ele>
        <time>2020-05-31T08:00:22Z</time>
      </trkpt>
      <trkpt lat="43.95582" lon="5.16222">
        <ele>635</ele>
        <time>2020-05-31T08:00:32Z</time>
      </trkpt>
      <trkpt lat="43.95593" lon="5.16238">
        <ele>634</ele>
        <time>2020-05-31T08:00:38Z</time>
      </trkpt>
      <trkpt lat="43.95605" lon="5.16266">
        <ele>631</ele>
        <time>2020-05-31T08:00:47Z</time>
      </trkpt>
      <trkpt lat="43.95617" lon="5.16297">
        <ele>628</ele>
        <time>2020-05-31T08:00:56Z</time>
      </trkpt>
      <trkpt lat="43.95635" lon="5.16324">
        <ele>624</ele>
        <time>2020-05-31T08:01:06Z</time>
      </trkpt>
      <trkpt lat="43.95655" lon="5.16344">
        <ele>621</ele>
        <time>2020-05-31T08:01:15Z</time>
      </trkpt>
      <trkpt lat="43.95658" lon="5.16372">
        <ele>618</ele>
        <time>2020-05-31T08:01:24Z</time>
      </trkpt>
      <trkpt lat="43.95648" lon="5.16396">
        <ele>616</ele>
        <time>2020-05-31T08:01:32Z</time>
      </trkpt>
      <trkpt lat="43.95643" lon="5.16422">
        <ele>613</ele>
        <time>2020-05-31T08:01:40Z</time>
      </trkpt>
      <trkpt lat="43.9564" lon="5.16451">
        <ele>611</ele>
        <time>2020-05-31T08:01:48Z</time>
      </trkpt>
      <trkpt lat="43.95635" lon="5.1648">
        <ele>609</ele>
        <time>2020-05-31T08:01:57Z</time>
      </trkpt>
      <trkpt lat="43.95631" lon="5.1651">
        <ele>609</ele>
        <time>2020-05-31T08:02:06Z</time>
      </trkpt>
      <trkpt lat="43.95625" lon="5.16538">
        <ele>609</ele>
        <time>2020-05-31T08:02:14Z</time>
      </trkpt>
      <trkpt lat="43.95611" lon="5.16563">
        <ele>609</ele>
        <time>2020-05-31T08:02:23Z</time>
      </trkpt>
      <trkpt lat="43.95596" lon="5.16588">
        <ele>609</ele>
        <time>2020-05-31T08:02:33Z</time>
      </trkpt>
      <trkpt lat="43.9559" lon="5.16597">
        <ele>609</ele>
        <time>2020-05-31T08:02:37Z</time>
      </trkpt>
      <trkpt lat="43.95587" lon="5.16602">
        <ele>609</ele>
        <time>2020-05-31T08:02:46Z</time>
      </trkpt>
      <trkpt lat="43.95586" lon="5.16606">
        <ele>609</ele>
        <time>2020-05-31T08:03:20Z</time>
      </trkpt>
      <trkpt lat="43.95585" lon="5.16611">
        <ele>609</ele>
        <time>2020-05-31T08:06:12Z</time>
      </trkpt>
      <trkpt lat="43.95571" lon="5.16623">
        <ele>609</ele>
        <time>2020-05-31T08:06:20Z</time>
      </trkpt>
      <trkpt lat="43.95558" lon="5.1664">
        <ele>609</ele>
        <time>2020-05-31T08:06:28Z</time>
      </trkpt>
      <trkpt lat="43.95538" lon="5.16668">
        <ele>607</ele>
        <time>2020-05-31T08:06:39Z</time>
      </trkpt>
      <trkpt lat="43.95525" lon="5.16693">
        <ele>605</ele>
        <time>2020-05-31T08:06:48Z</time>
      </trkpt>
      <trkpt lat="43.95512" lon="5.16716">
        <ele>603</ele>
        <time>2020-05-31T08:06:57Z</time>
      </trkpt>
      <trkpt lat="43.95503" lon="5.16753">
        <ele>602</ele>
        <time>2020-05-31T08:07:08Z</time>
      </trkpt>
      <trkpt lat="43.95495" lon="5.1679">
        <ele>602</ele>
        <time>2020-05-31T08:07:18Z</time>
      </trkpt>
      <trkpt lat="43.95496" lon="5.16824">
        <ele>601</ele>
        <time>2020-05-31T08:07:28Z</time>
      </trkpt>
      <trkpt lat="43.95511" lon="5.16848">
        <ele>601</ele>
        <time>2020-05-31T08:07:38Z</time>
      </trkpt>
      <trkpt lat="43.95528" lon="5.16865">
        <ele>601</ele>
        <time>2020-05-31T08:07:46Z</time>
      </trkpt>
      <trkpt lat="43.95549" lon="5.16879">
        <ele>600</ele>
        <time>2020-05-31T08:07:55Z</time>
      </trkpt>
      <trkpt lat="43.95571" lon="5.16889">
        <ele>601</ele>
        <time>2020-05-31T08:08:04Z</time>
      </trkpt>
      <trkpt lat="43.95593" lon="5.16896">
        <ele>601</ele>
        <time>2020-05-31T08:08:13Z</time>
      </trkpt>
      <trkpt lat="43.95611" lon="5.16912">
        <ele>599</ele>
        <time>2020-05-31T08:08:22Z</time>
      </trkpt>
      <trkpt lat="43.95613" lon="5.16917">
        <ele>599</ele>
        <time>2020-05-31T08:08:24Z</time>
      </trkpt>
      <trkpt lat="43.95618" lon="5.16953">
        <ele>597</ele>
        <time>2020-05-31T08:08:35Z</time>
      </trkpt>
      <trkpt lat="43.95622" lon="5.16986">
        <ele>596</ele>
        <time>2020-05-31T08:08:46Z</time>
      </trkpt>
      <trkpt lat="43.95624" lon="5.17021">
        <ele>594</ele>
        <time>2020-05-31T08:08:55Z</time>
      </trkpt>
      <trkpt lat="43.95619" lon="5.17045">
        <ele>594</ele>
        <time>2020-05-31T08:09:02Z</time>
      </trkpt>
      <trkpt lat="43.9562" lon="5.17047">
        <ele>593</ele>
        <time>2020-05-31T08:09:03Z</time>
      </trkpt>
      <trkpt lat="43.95626" lon="5.17063">
        <ele>592</ele>
        <time>2020-05-31T08:09:10Z</time>
      </trkpt>
      <trkpt lat="43.95628" lon="5.17065">
        <ele>592</ele>
        <time>2020-05-31T08:09:11Z</time>
      </trkpt>
      <trkpt lat="43.9563" lon="5.17067">
        <ele>592</ele>
        <time>2020-05-31T08:09:12Z</time>
      </trkpt>
      <trkpt lat="43.95632" lon="5.17068">
        <ele>591</ele>
        <time>2020-05-31T08:09:13Z</time>
      </trkpt>
      <trkpt lat="43.95634" lon="5.1707">
        <ele>591</ele>
        <time>2020-05-31T08:09:14Z</time>
      </trkpt>
      <trkpt lat="43.95635" lon="5.17073">
        <ele>591</ele>
        <time>2020-05-31T08:09:15Z</time>
      </trkpt>
      <trkpt lat="43.95637" lon="5.17076">
        <ele>591</ele>
        <time>2020-05-31T08:09:16Z</time>
      </trkpt>
      <trkpt lat="43.95638" lon="5.17077">
        <ele>590</ele>
        <time>2020-05-31T08:09:17Z</time>
      </trkpt>
      <trkpt lat="43.9564" lon="5.17078">
        <ele>590</ele>
        <time>2020-05-31T08:09:18Z</time>
      </trkpt>
      <trkpt lat="43.95642" lon="5.17078">
        <ele>590</ele>
        <time>2020-05-31T08:09:19Z</time>
      </trkpt>
      <trkpt lat="43.95645" lon="5.17078">
        <ele>590</ele>
        <time>2020-05-31T08:09:20Z</time>
      </trkpt>
      <trkpt lat="43.95647" lon="5.17079">
        <ele>590</ele>
        <time>2020-05-31T08:09:21Z</time>
      </trkpt>
      <trkpt lat="43.95649" lon="5.17081">
        <ele>590</ele>
        <time>2020-05-31T08:09:22Z</time>
      </trkpt>
      <trkpt lat="43.9565" lon="5.17084">
        <ele>590</ele>
        <time>2020-05-31T08:09:23Z</time>
      </trkpt>
      <trkpt lat="43.95651" lon="5.17086">
        <ele>590</ele>
        <time>2020-05-31T08:09:24Z</time>
      </trkpt>
      <trkpt lat="43.95653" lon="5.17088">
        <ele>590</ele>
        <time>2020-05-31T08:09:25Z</time>
      </trkpt>
      <trkpt lat="43.95654" lon="5.1709">
        <ele>589</ele>
        <time>2020-05-31T08:09:26Z</time>
      </trkpt>
      <trkpt lat="43.95656" lon="5.17092">
        <ele>589</ele>
        <time>2020-05-31T08:09:27Z</time>
      </trkpt>
      <trkpt lat="43.95663" lon="5.17105">
        <ele>589</ele>
        <time>2020-05-31T08:09:32Z</time>
      </trkpt>
      <trkpt lat="43.95683" lon="5.17121">
        <ele>587</ele>
        <time>2020-05-31T08:09:41Z</time>
      </trkpt>
      <trkpt lat="43.957" lon="5.17132">
        <ele>584</ele>
        <time>2020-05-31T08:09:49Z</time>
      </trkpt>
      <trkpt lat="43.95719" lon="5.17148">
        <ele>580</ele>
        <time>2020-05-31T08:09:59Z</time>
      </trkpt>
      <trkpt lat="43.95741" lon="5.17154">
        <ele>580</ele>
        <time>2020-05-31T08:10:08Z</time>
      </trkpt>
      <trkpt lat="43.95743" lon="5.17155">
        <ele>580</ele>
        <time>2020-05-31T08:10:09Z</time>
      </trkpt>
      <trkpt lat="43.95746" lon="5.17156">
        <ele>579</ele>
        <time>2020-05-31T08:10:10Z</time>
      </trkpt>
      <trkpt lat="43.95748" lon="5.17158">
        <ele>579</ele>
        <time>2020-05-31T08:10:11Z</time>
      </trkpt>
      <trkpt lat="43.95751" lon="5.17159">
        <ele>579</ele>
        <time>2020-05-31T08:10:12Z</time>
      </trkpt>
      <trkpt lat="43.95753" lon="5.17161">
        <ele>579</ele>
        <time>2020-05-31T08:10:13Z</time>
      </trkpt>
      <trkpt lat="43.95756" lon="5.17162">
        <ele>579</ele>
        <time>2020-05-31T08:10:14Z</time>
      </trkpt>
      <trkpt lat="43.95758" lon="5.17164">
        <ele>578</ele>
        <time>2020-05-31T08:10:15Z</time>
      </trkpt>
      <trkpt lat="43.95761" lon="5.17165">
        <ele>578</ele>
        <time>2020-05-31T08:10:16Z</time>
      </trkpt>
      <trkpt lat="43.95768" lon="5.17167">
        <ele>577</ele>
        <time>2020-05-31T08:10:20Z</time>
      </trkpt>
      <trkpt lat="43.9577" lon="5.17166">
        <ele>577</ele>
        <time>2020-05-31T08:10:21Z</time>
      </trkpt>
      <trkpt lat="43.95772" lon="5.17165">
        <ele>577</ele>
        <time>2020-05-31T08:10:22Z</time>
      </trkpt>
      <trkpt lat="43.95774" lon="5.17165">
        <ele>576</ele>
        <time>2020-05-31T08:10:23Z</time>
      </trkpt>
      <trkpt lat="43.95776" lon="5.17165">
        <ele>576</ele>
        <time>2020-05-31T08:10:24Z</time>
      </trkpt>
      <trkpt lat="43.95795" lon="5.17173">
        <ele>573</ele>
        <time>2020-05-31T08:10:32Z</time>
      </trkpt>
      <trkpt lat="43.95814" lon="5.17188">
        <ele>571</ele>
        <time>2020-05-31T08:10:42Z</time>
      </trkpt>
      <trkpt lat="43.9582" lon="5.17188">
        <ele>570</ele>
        <time>2020-05-31T08:10:45Z</time>
      </trkpt>
      <trkpt lat="43.95841" lon="5.17188">
        <ele>568</ele>
        <time>2020-05-31T08:10:53Z</time>
      </trkpt>
      <trkpt lat="43.95873" lon="5.1719">
        <ele>565</ele>
        <time>2020-05-31T08:11:05Z</time>
      </trkpt>
      <trkpt lat="43.95904" lon="5.17199">
        <ele>562</ele>
        <time>2020-05-31T08:11:15Z</time>
      </trkpt>
      <trkpt lat="43.95924" lon="5.1721">
        <ele>561</ele>
        <time>2020-05-31T08:11:23Z</time>
      </trkpt>
      <trkpt lat="43.95948" lon="5.1721">
        <ele>560</ele>
        <time>2020-05-31T08:11:32Z</time>
      </trkpt>
      <trkpt lat="43.95971" lon="5.17223">
        <ele>559</ele>
        <time>2020-05-31T08:11:40Z</time>
      </trkpt>
      <trkpt lat="43.95997" lon="5.17229">
        <ele>558</ele>
        <time>2020-05-31T08:11:48Z</time>
      </trkpt>
      <trkpt lat="43.9602" lon="5.17227">
        <ele>556</ele>
        <time>2020-05-31T08:11:57Z</time>
      </trkpt>
      <trkpt lat="43.96061" lon="5.17222">
        <ele>551</ele>
        <time>2020-05-31T08:12:09Z</time>
      </trkpt>
      <trkpt lat="43.96091" lon="5.17242">
        <ele>549</ele>
        <time>2020-05-31T08:12:19Z</time>
      </trkpt>
      <trkpt lat="43.9612" lon="5.17256">
        <ele>549</ele>
        <time>2020-05-31T08:12:29Z</time>
      </trkpt>
      <trkpt lat="43.96145" lon="5.1725">
        <ele>548</ele>
        <time>2020-05-31T08:12:39Z</time>
      </trkpt>
      <trkpt lat="43.96175" lon="5.17242">
        <ele>548</ele>
        <time>2020-05-31T08:12:51Z</time>
      </trkpt>
      <trkpt lat="43.96212" lon="5.17249">
        <ele>548</ele>
        <time>2020-05-31T08:13:03Z</time>
      </trkpt>
      <trkpt lat="43.96234" lon="5.17252">
        <ele>547</ele>
        <time>2020-05-31T08:13:11Z</time>
      </trkpt>
      <trkpt lat="43.96244" lon="5.17254">
        <ele>547</ele>
        <time>2020-05-31T08:14:03Z</time>
      </trkpt>
      <trkpt lat="43.9625" lon="5.17253">
        <ele>546</ele>
        <time>2020-05-31T08:14:07Z</time>
      </trkpt>
      <trkpt lat="43.96252" lon="5.17252">
        <ele>546</ele>
        <time>2020-05-31T08:14:08Z</time>
      </trkpt>
      <trkpt lat="43.96254" lon="5.17252">
        <ele>545</ele>
        <time>2020-05-31T08:14:09Z</time>
      </trkpt>
      <trkpt lat="43.96256" lon="5.17251">
        <ele>545</ele>
        <time>2020-05-31T08:14:10Z</time>
      </trkpt>
      <trkpt lat="43.96258" lon="5.17251">
        <ele>545</ele>
        <time>2020-05-31T08:14:11Z</time>
      </trkpt>
      <trkpt lat="43.96259" lon="5.17251">
        <ele>544</ele>
        <time>2020-05-31T08:14:12Z</time>
      </trkpt>
      <trkpt lat="43.96261" lon="5.17251">
        <ele>544</ele>
        <time>2020-05-31T08:14:13Z</time>
      </trkpt>
      <trkpt lat="43.96263" lon="5.17251">
        <ele>544</ele>
        <time>2020-05-31T08:14:14Z</time>
      </trkpt>
      <trkpt lat="43.96264" lon="5.17251">
        <ele>544</ele>
        <time>2020-05-31T08:14:15Z</time>
      </trkpt>
      <trkpt lat="43.96286" lon="5.1725">
        <ele>541</ele>
        <time>2020-05-31T08:14:25Z</time>
      </trkpt>
      <trkpt lat="43.96294" lon="5.1725">
        <ele>542</ele>
        <time>2020-05-31T08:14:29Z</time>
      </trkpt>
      <trkpt lat="43.96311" lon="5.17253">
        <ele>543</ele>
        <time>2020-05-31T08:14:39Z</time>
      </trkpt>
      <trkpt lat="43.96316" lon="5.17253">
        <ele>543</ele>
        <time>2020-05-31T08:14:42Z</time>
      </trkpt>
      <trkpt lat="43.96318" lon="5.17253">
        <ele>543</ele>
        <time>2020-05-31T08:14:43Z</time>
      </trkpt>
      <trkpt lat="43.9632" lon="5.17253">
        <ele>543</ele>
        <time>2020-05-31T08:14:44Z</time>
      </trkpt>
      <trkpt lat="43.96348" lon="5.17253">
        <ele>546</ele>
        <time>2020-05-31T08:14:55Z</time>
      </trkpt>
      <trkpt lat="43.9635" lon="5.17253">
        <ele>547</ele>
        <time>2020-05-31T08:14:56Z</time>
      </trkpt>
      <trkpt lat="43.96352" lon="5.17253">
        <ele>547</ele>
        <time>2020-05-31T08:14:57Z</time>
      </trkpt>
      <trkpt lat="43.96356" lon="5.17254">
        <ele>548</ele>
        <time>2020-05-31T08:15:00Z</time>
      </trkpt>
      <trkpt lat="43.96378" lon="5.17253">
        <ele>549</ele>
        <time>2020-05-31T08:15:12Z</time>
      </trkpt>
      <trkpt lat="43.9638" lon="5.17253">
        <ele>549</ele>
        <time>2020-05-31T08:15:13Z</time>
      </trkpt>
      <trkpt lat="43.96382" lon="5.17254">
        <ele>550</ele>
        <time>2020-05-31T08:15:14Z</time>
      </trkpt>
      <trkpt lat="43.96383" lon="5.17255">
        <ele>550</ele>
        <time>2020-05-31T08:15:15Z</time>
      </trkpt>
      <trkpt lat="43.96385" lon="5.17256">
        <ele>550</ele>
        <time>2020-05-31T08:15:16Z</time>
      </trkpt>
      <trkpt lat="43.96387" lon="5.17257">
        <ele>550</ele>
        <time>2020-05-31T08:15:17Z</time>
      </trkpt>
      <trkpt lat="43.96389" lon="5.17258">
        <ele>550</ele>
        <time>2020-05-31T08:15:18Z</time>
      </trkpt>
      <trkpt lat="43.96391" lon="5.1726">
        <ele>550</ele>
        <time>2020-05-31T08:15:19Z</time>
      </trkpt>
      <trkpt lat="43.96393" lon="5.17261">
        <ele>551</ele>
        <time>2020-05-31T08:15:20Z</time>
      </trkpt>
      <trkpt lat="43.96395" lon="5.17263">
        <ele>551</ele>
        <time>2020-05-31T08:15:21Z</time>
      </trkpt>
      <trkpt lat="43.96398" lon="5.17265">
        <ele>551</ele>
        <time>2020-05-31T08:15:22Z</time>
      </trkpt>
      <trkpt lat="43.964" lon="5.17266">
        <ele>551</ele>
        <time>2020-05-31T08:15:23Z</time>
      </trkpt>
      <trkpt lat="43.96402" lon="5.17268">
        <ele>551</ele>
        <time>2020-05-31T08:15:24Z</time>
      </trkpt>
      <trkpt lat="43.96404" lon="5.1727">
        <ele>551</ele>
        <time>2020-05-31T08:15:25Z</time>
      </trkpt>
      <trkpt lat="43.96406" lon="5.17273">
        <ele>552</ele>
        <time>2020-05-31T08:15:26Z</time>
      </trkpt>
      <trkpt lat="43.96408" lon="5.17275">
        <ele>552</ele>
        <time>2020-05-31T08:15:27Z</time>
      </trkpt>
      <trkpt lat="43.96411" lon="5.17276">
        <ele>552</ele>
        <time>2020-05-31T08:15:28Z</time>
      </trkpt>
      <trkpt lat="43.96413" lon="5.17277">
        <ele>552</ele>
        <time>2020-05-31T08:15:29Z</time>
      </trkpt>
      <trkpt lat="43.96415" lon="5.17279">
        <ele>552</ele>
        <time>2020-05-31T08:15:30Z</time>
      </trkpt>
      <trkpt lat="43.96417" lon="5.17281">
        <ele>552</ele>
        <time>2020-05-31T08:15:31Z</time>
      </trkpt>
      <trkpt lat="43.96419" lon="5.17282">
        <ele>552</ele>
        <time>2020-05-31T08:15:32Z</time>
      </trkpt>
      <trkpt lat="43.96421" lon="5.17284">
        <ele>552</ele>
        <time>2020-05-31T08:15:33Z</time>
      </trkpt>
      <trkpt lat="43.96422" lon="5.17286">
        <ele>552</ele>
        <time>2020-05-31T08:15:34Z</time>
      </trkpt>
      <trkpt lat="43.96424" lon="5.17288">
        <ele>552</ele>
        <time>2020-05-31T08:15:35Z</time>
      </trkpt>
      <trkpt lat="43.96425" lon="5.17289">
        <ele>552</ele>
        <time>2020-05-31T08:15:36Z</time>
      </trkpt>
      <trkpt lat="43.96437" lon="5.17297">
        <ele>553</ele>
        <time>2020-05-31T08:15:42Z</time>
      </trkpt>
      <trkpt lat="43.96439" lon="5.17298">
        <ele>553</ele>
        <time>2020-05-31T08:15:43Z</time>
      </trkpt>
      <trkpt lat="43.96441" lon="5.17299">
        <ele>553</ele>
        <time>2020-05-31T08:15:44Z</time>
      </trkpt>
      <trkpt lat="43.96443" lon="5.173">
        <ele>553</ele>
        <time>2020-05-31T08:15:45Z</time>
      </trkpt>
      <trkpt lat="43.96445" lon="5.17301">
        <ele>553</ele>
        <time>2020-05-31T08:15:46Z</time>
      </trkpt>
      <trkpt lat="43.96448" lon="5.17302">
        <ele>553</ele>
        <time>2020-05-31T08:15:47Z</time>
      </trkpt>
      <trkpt lat="43.9645" lon="5.17303">
        <ele>553</ele>
        <time>2020-05-31T08:15:48Z</time>
      </trkpt>
      <trkpt lat="43.96452" lon="5.17303">
        <ele>553</ele>
        <time>2020-05-31T08:15:49Z</time>
      </trkpt>
      <trkpt lat="43.96454" lon="5.17304">
        <ele>553</ele>
        <time>2020-05-31T08:15:50Z</time>
      </trkpt>
      <trkpt lat="43.96456" lon="5.17306">
        <ele>553</ele>
        <time>2020-05-31T08:15:51Z</time>
      </trkpt>
      <trkpt lat="43.96458" lon="5.17307">
        <ele>553</ele>
        <time>2020-05-31T08:15:52Z</time>
      </trkpt>
      <trkpt lat="43.96476" lon="5.17315">
        <ele>552</ele>
        <time>2020-05-31T08:16:00Z</time>
      </trkpt>
      <trkpt lat="43.96492" lon="5.17332">
        <ele>549</ele>
        <time>2020-05-31T08:16:09Z</time>
      </trkpt>
      <trkpt lat="43.96505" lon="5.17355">
        <ele>547</ele>
        <time>2020-05-31T08:16:18Z</time>
      </trkpt>
      <trkpt lat="43.96519" lon="5.17378">
        <ele>545</ele>
        <time>2020-05-31T08:16:26Z</time>
      </trkpt>
      <trkpt lat="43.96534" lon="5.17389">
        <ele>543</ele>
        <time>2020-05-31T08:16:33Z</time>
      </trkpt>
      <trkpt lat="43.96546" lon="5.17396">
        <ele>541</ele>
        <time>2020-05-31T08:16:38Z</time>
      </trkpt>
      <trkpt lat="43.96549" lon="5.17398">
        <ele>541</ele>
        <time>2020-05-31T08:16:39Z</time>
      </trkpt>
      <trkpt lat="43.96551" lon="5.17399">
        <ele>541</ele>
        <time>2020-05-31T08:16:40Z</time>
      </trkpt>
      <trkpt lat="43.96554" lon="5.174">
        <ele>540</ele>
        <time>2020-05-31T08:16:41Z</time>
      </trkpt>
      <trkpt lat="43.96557" lon="5.17401">
        <ele>540</ele>
        <time>2020-05-31T08:16:42Z</time>
      </trkpt>
      <trkpt lat="43.9656" lon="5.17402">
        <ele>540</ele>
        <time>2020-05-31T08:16:43Z</time>
      </trkpt>
      <trkpt lat="43.96562" lon="5.17404">
        <ele>540</ele>
        <time>2020-05-31T08:16:44Z</time>
      </trkpt>
      <trkpt lat="43.96564" lon="5.17406">
        <ele>539</ele>
        <time>2020-05-31T08:16:45Z</time>
      </trkpt>
      <trkpt lat="43.96566" lon="5.17409">
        <ele>539</ele>
        <time>2020-05-31T08:16:46Z</time>
      </trkpt>
      <trkpt lat="43.96568" lon="5.17411">
        <ele>539</ele>
        <time>2020-05-31T08:16:47Z</time>
      </trkpt>
      <trkpt lat="43.96569" lon="5.17415">
        <ele>539</ele>
        <time>2020-05-31T08:16:48Z</time>
      </trkpt>
      <trkpt lat="43.96575" lon="5.17432">
        <ele>538</ele>
        <time>2020-05-31T08:16:56Z</time>
      </trkpt>
      <trkpt lat="43.96578" lon="5.17434">
        <ele>538</ele>
        <time>2020-05-31T08:18:41Z</time>
      </trkpt>
      <trkpt lat="43.96581" lon="5.17437">
        <ele>538</ele>
        <time>2020-05-31T08:18:43Z</time>
      </trkpt>
      <trkpt lat="43.96583" lon="5.17438">
        <ele>538</ele>
        <time>2020-05-31T08:18:44Z</time>
      </trkpt>
      <trkpt lat="43.96584" lon="5.17439">
        <ele>538</ele>
        <time>2020-05-31T08:18:45Z</time>
      </trkpt>
      <trkpt lat="43.96585" lon="5.17439">
        <ele>538</ele>
        <time>2020-05-31T08:18:46Z</time>
      </trkpt>
      <trkpt lat="43.96588" lon="5.17436">
        <ele>538</ele>
        <time>2020-05-31T08:18:51Z</time>
      </trkpt>
      <trkpt lat="43.96597" lon="5.17413">
        <ele>537</ele>
        <time>2020-05-31T08:19:02Z</time>
      </trkpt>
      <trkpt lat="43.96604" lon="5.17391">
        <ele>536</ele>
        <time>2020-05-31T08:19:12Z</time>
      </trkpt>
      <trkpt lat="43.96605" lon="5.17379">
        <ele>536</ele>
        <time>2020-05-31T08:19:23Z</time>
      </trkpt>
      <trkpt lat="43.96611" lon="5.17363">
        <ele>536</ele>
        <time>2020-05-31T08:19:36Z</time>
      </trkpt>
      <trkpt lat="43.96613" lon="5.17361">
        <ele>536</ele>
        <time>2020-05-31T08:19:37Z</time>
      </trkpt>
      <trkpt lat="43.96622" lon="5.17351">
        <ele>536</ele>
        <time>2020-05-31T08:19:47Z</time>
      </trkpt>
      <trkpt lat="43.96626" lon="5.17344">
        <ele>536</ele>
        <time>2020-05-31T08:20:00Z</time>
      </trkpt>
      <trkpt lat="43.96632" lon="5.1733">
        <ele>537</ele>
        <time>2020-05-31T08:20:10Z</time>
      </trkpt>
      <trkpt lat="43.96633" lon="5.17329">
        <ele>537</ele>
        <time>2020-05-31T08:20:11Z</time>
      </trkpt>
      <trkpt lat="43.96635" lon="5.17327">
        <ele>537</ele>
        <time>2020-05-31T08:20:12Z</time>
      </trkpt>
      <trkpt lat="43.96637" lon="5.17325">
        <ele>537</ele>
        <time>2020-05-31T08:20:13Z</time>
      </trkpt>
      <trkpt lat="43.96639" lon="5.17322">
        <ele>537</ele>
        <time>2020-05-31T08:20:14Z</time>
      </trkpt>
      <trkpt lat="43.96656" lon="5.173">
        <ele>539</ele>
        <time>2020-05-31T08:20:25Z</time>
      </trkpt>
      <trkpt lat="43.96669" lon="5.17277">
        <ele>540</ele>
        <time>2020-05-31T08:20:35Z</time>
      </trkpt>
      <trkpt lat="43.96679" lon="5.17263">
        <ele>540</ele>
        <time>2020-05-31T08:21:57Z</time>
      </trkpt>
      <trkpt lat="43.96682" lon="5.17268">
        <ele>540</ele>
        <time>2020-05-31T08:22:00Z</time>
      </trkpt>
      <trkpt lat="43.96686" lon="5.1727">
        <ele>540</ele>
        <time>2020-05-31T08:22:04Z</time>
      </trkpt>
      <trkpt lat="43.96688" lon="5.1727">
        <ele>540</ele>
        <time>2020-05-31T08:22:05Z</time>
      </trkpt>
      <trkpt lat="43.9669" lon="5.17272">
        <ele>539</ele>
        <time>2020-05-31T08:22:07Z</time>
      </trkpt>
      <trkpt lat="43.96692" lon="5.17273">
        <ele>539</ele>
        <time>2020-05-31T08:22:08Z</time>
      </trkpt>
      <trkpt lat="43.96693" lon="5.17274">
        <ele>539</ele>
        <time>2020-05-31T08:22:09Z</time>
      </trkpt>
      <trkpt lat="43.96695" lon="5.17276">
        <ele>539</ele>
        <time>2020-05-31T08:22:10Z</time>
      </trkpt>
      <trkpt lat="43.96696" lon="5.17278">
        <ele>539</ele>
        <time>2020-05-31T08:22:11Z</time>
      </trkpt>
      <trkpt lat="43.96697" lon="5.1728">
        <ele>538</ele>
        <time>2020-05-31T08:22:12Z</time>
      </trkpt>
      <trkpt lat="43.96698" lon="5.17283">
        <ele>538</ele>
        <time>2020-05-31T08:22:15Z</time>
      </trkpt>
      <trkpt lat="43.96699" lon="5.17285">
        <ele>537</ele>
        <time>2020-05-31T08:22:16Z</time>
      </trkpt>
      <trkpt lat="43.96701" lon="5.17286">
        <ele>537</ele>
        <time>2020-05-31T08:22:17Z</time>
      </trkpt>
      <trkpt lat="43.96703" lon="5.17287">
        <ele>537</ele>
        <time>2020-05-31T08:22:18Z</time>
      </trkpt>
      <trkpt lat="43.96705" lon="5.17287">
        <ele>536</ele>
        <time>2020-05-31T08:22:19Z</time>
      </trkpt>
      <trkpt lat="43.96708" lon="5.17288">
        <ele>536</ele>
        <time>2020-05-31T08:22:20Z</time>
      </trkpt>
      <trkpt lat="43.9671" lon="5.17288">
        <ele>535</ele>
        <time>2020-05-31T08:22:21Z</time>
      </trkpt>
      <trkpt lat="43.96713" lon="5.17291">
        <ele>534</ele>
        <time>2020-05-31T08:22:23Z</time>
      </trkpt>
      <trkpt lat="43.96714" lon="5.17293">
        <ele>534</ele>
        <time>2020-05-31T08:22:24Z</time>
      </trkpt>
      <trkpt lat="43.96717" lon="5.17299">
        <ele>533</ele>
        <time>2020-05-31T08:22:27Z</time>
      </trkpt>
      <trkpt lat="43.96718" lon="5.17302">
        <ele>532</ele>
        <time>2020-05-31T08:22:29Z</time>
      </trkpt>
      <trkpt lat="43.96719" lon="5.17303">
        <ele>532</ele>
        <time>2020-05-31T08:22:30Z</time>
      </trkpt>
      <trkpt lat="43.9672" lon="5.17305">
        <ele>531</ele>
        <time>2020-05-31T08:22:31Z</time>
      </trkpt>
      <trkpt lat="43.96721" lon="5.17306">
        <ele>531</ele>
        <time>2020-05-31T08:22:32Z</time>
      </trkpt>
      <trkpt lat="43.96723" lon="5.17307">
        <ele>531</ele>
        <time>2020-05-31T08:22:33Z</time>
      </trkpt>
      <trkpt lat="43.96725" lon="5.17309">
        <ele>531</ele>
        <time>2020-05-31T08:22:34Z</time>
      </trkpt>
      <trkpt lat="43.96727" lon="5.1731">
        <ele>531</ele>
        <time>2020-05-31T08:22:35Z</time>
      </trkpt>
      <trkpt lat="43.96729" lon="5.17312">
        <ele>531</ele>
        <time>2020-05-31T08:22:36Z</time>
      </trkpt>
      <trkpt lat="43.9673" lon="5.17314">
        <ele>531</ele>
        <time>2020-05-31T08:22:37Z</time>
      </trkpt>
      <trkpt lat="43.96732" lon="5.17315">
        <ele>531</ele>
        <time>2020-05-31T08:22:38Z</time>
      </trkpt>
      <trkpt lat="43.96734" lon="5.17316">
        <ele>531</ele>
        <time>2020-05-31T08:22:39Z</time>
      </trkpt>
      <trkpt lat="43.96735" lon="5.17317">
        <ele>531</ele>
        <time>2020-05-31T08:22:40Z</time>
      </trkpt>
      <trkpt lat="43.96737" lon="5.17318">
        <ele>531</ele>
        <time>2020-05-31T08:22:41Z</time>
      </trkpt>
      <trkpt lat="43.96738" lon="5.1732">
        <ele>531</ele>
        <time>2020-05-31T08:22:42Z</time>
      </trkpt>
      <trkpt lat="43.96742" lon="5.17324">
        <ele>531</ele>
        <time>2020-05-31T08:22:46Z</time>
      </trkpt>
      <trkpt lat="43.96748" lon="5.17325">
        <ele>531</ele>
        <time>2020-05-31T08:22:50Z</time>
      </trkpt>
      <trkpt lat="43.96749" lon="5.17324">
        <ele>531</ele>
        <time>2020-05-31T08:22:51Z</time>
      </trkpt>
      <trkpt lat="43.96751" lon="5.17324">
        <ele>531</ele>
        <time>2020-05-31T08:22:52Z</time>
      </trkpt>
      <trkpt lat="43.96752" lon="5.17324">
        <ele>531</ele>
        <time>2020-05-31T08:22:53Z</time>
      </trkpt>
      <trkpt lat="43.96754" lon="5.17323">
        <ele>531</ele>
        <time>2020-05-31T08:22:54Z</time>
      </trkpt>
      <trkpt lat="43.96757" lon="5.17325">
        <ele>532</ele>
        <time>2020-05-31T08:22:57Z</time>
      </trkpt>
      <trkpt lat="43.96758" lon="5.17326">
        <ele>532</ele>
        <time>2020-05-31T08:22:58Z</time>
      </trkpt>
      <trkpt lat="43.96766" lon="5.17345">
        <ele>535</ele>
        <time>2020-05-31T08:23:07Z</time>
      </trkpt>
      <trkpt lat="43.96768" lon="5.17348">
        <ele>535</ele>
        <time>2020-05-31T08:23:08Z</time>
      </trkpt>
      <trkpt lat="43.9677" lon="5.17348">
        <ele>535</ele>
        <time>2020-05-31T08:23:09Z</time>
      </trkpt>
      <trkpt lat="43.96772" lon="5.17349">
        <ele>536</ele>
        <time>2020-05-31T08:23:10Z</time>
      </trkpt>
      <trkpt lat="43.96778" lon="5.1735">
        <ele>536</ele>
        <time>2020-05-31T08:23:14Z</time>
      </trkpt>
      <trkpt lat="43.9678" lon="5.17349">
        <ele>536</ele>
        <time>2020-05-31T08:23:15Z</time>
      </trkpt>
      <trkpt lat="43.96781" lon="5.17348">
        <ele>536</ele>
        <time>2020-05-31T08:23:16Z</time>
      </trkpt>
      <trkpt lat="43.96783" lon="5.17347">
        <ele>536</ele>
        <time>2020-05-31T08:23:17Z</time>
      </trkpt>
      <trkpt lat="43.96785" lon="5.17347">
        <ele>536</ele>
        <time>2020-05-31T08:23:18Z</time>
      </trkpt>
      <trkpt lat="43.96787" lon="5.17346">
        <ele>536</ele>
        <time>2020-05-31T08:23:19Z</time>
      </trkpt>
      <trkpt lat="43.96789" lon="5.17345">
        <ele>536</ele>
        <time>2020-05-31T08:23:20Z</time>
      </trkpt>
      <trkpt lat="43.9679" lon="5.17346">
        <ele>537</ele>
        <time>2020-05-31T08:23:21Z</time>
      </trkpt>
      <trkpt lat="43.96793" lon="5.17347">
        <ele>537</ele>
        <time>2020-05-31T08:23:22Z</time>
      </trkpt>
      <trkpt lat="43.96795" lon="5.17348">
        <ele>537</ele>
        <time>2020-05-31T08:23:23Z</time>
      </trkpt>
      <trkpt lat="43.96798" lon="5.17352">
        <ele>539</ele>
        <time>2020-05-31T08:23:26Z</time>
      </trkpt>
      <trkpt lat="43.96804" lon="5.17351">
        <ele>539</ele>
        <time>2020-05-31T08:23:30Z</time>
      </trkpt>
      <trkpt lat="43.96806" lon="5.1735">
        <ele>539</ele>
        <time>2020-05-31T08:23:31Z</time>
      </trkpt>
      <trkpt lat="43.96808" lon="5.1735">
        <ele>539</ele>
        <time>2020-05-31T08:23:32Z</time>
      </trkpt>
      <trkpt lat="43.9681" lon="5.1735">
        <ele>539</ele>
        <time>2020-05-31T08:23:33Z</time>
      </trkpt>
      <trkpt lat="43.96811" lon="5.17351">
        <ele>539</ele>
        <time>2020-05-31T08:23:34Z</time>
      </trkpt>
      <trkpt lat="43.9682" lon="5.17357">
        <ele>541</ele>
        <time>2020-05-31T08:23:43Z</time>
      </trkpt>
      <trkpt lat="43.96822" lon="5.17356">
        <ele>540</ele>
        <time>2020-05-31T08:23:51Z</time>
      </trkpt>
      <trkpt lat="43.96827" lon="5.17356">
        <ele>540</ele>
        <time>2020-05-31T08:24:01Z</time>
      </trkpt>
      <trkpt lat="43.96829" lon="5.17357">
        <ele>540</ele>
        <time>2020-05-31T08:24:02Z</time>
      </trkpt>
      <trkpt lat="43.96831" lon="5.17358">
        <ele>540</ele>
        <time>2020-05-31T08:24:03Z</time>
      </trkpt>
      <trkpt lat="43.96833" lon="5.17358">
        <ele>541</ele>
        <time>2020-05-31T08:24:04Z</time>
      </trkpt>
      <trkpt lat="43.96835" lon="5.17359">
        <ele>540</ele>
        <time>2020-05-31T08:24:05Z</time>
      </trkpt>
      <trkpt lat="43.96837" lon="5.1736">
        <ele>539</ele>
        <time>2020-05-31T08:24:06Z</time>
      </trkpt>
      <trkpt lat="43.96851" lon="5.17375">
        <ele>538</ele>
        <time>2020-05-31T08:24:14Z</time>
      </trkpt>
      <trkpt lat="43.96852" lon="5.17377">
        <ele>539</ele>
        <time>2020-05-31T08:24:15Z</time>
      </trkpt>
      <trkpt lat="43.96854" lon="5.17379">
        <ele>539</ele>
        <time>2020-05-31T08:24:16Z</time>
      </trkpt>
      <trkpt lat="43.96869" lon="5.17391">
        <ele>542</ele>
        <time>2020-05-31T08:24:25Z</time>
      </trkpt>
      <trkpt lat="43.96877" lon="5.17396">
        <ele>542</ele>
        <time>2020-05-31T08:24:32Z</time>
      </trkpt>
      <trkpt lat="43.96893" lon="5.17402">
        <ele>542</ele>
        <time>2020-05-31T08:24:40Z</time>
      </trkpt>
      <trkpt lat="43.96894" lon="5.17404">
        <ele>543</ele>
        <time>2020-05-31T08:24:41Z</time>
      </trkpt>
      <trkpt lat="43.96897" lon="5.17408">
        <ele>544</ele>
        <time>2020-05-31T08:24:44Z</time>
      </trkpt>
      <trkpt lat="43.96908" lon="5.17415">
        <ele>547</ele>
        <time>2020-05-31T08:24:50Z</time>
      </trkpt>
      <trkpt lat="43.96928" lon="5.1742">
        <ele>547</ele>
        <time>2020-05-31T08:24:59Z</time>
      </trkpt>
      <trkpt lat="43.9693" lon="5.17421">
        <ele>547</ele>
        <time>2020-05-31T08:25:00Z</time>
      </trkpt>
      <trkpt lat="43.96931" lon="5.17423">
        <ele>548</ele>
        <time>2020-05-31T08:25:01Z</time>
      </trkpt>
      <trkpt lat="43.96933" lon="5.17425">
        <ele>548</ele>
        <time>2020-05-31T08:25:02Z</time>
      </trkpt>
      <trkpt lat="43.96934" lon="5.17427">
        <ele>548</ele>
        <time>2020-05-31T08:25:03Z</time>
      </trkpt>
      <trkpt lat="43.96936" lon="5.17427">
        <ele>548</ele>
        <time>2020-05-31T08:25:04Z</time>
      </trkpt>
      <trkpt lat="43.96939" lon="5.17427">
        <ele>548</ele>
        <time>2020-05-31T08:25:05Z</time>
      </trkpt>
      <trkpt lat="43.96941" lon="5.17427">
        <ele>548</ele>
        <time>2020-05-31T08:25:06Z</time>
      </trkpt>
      <trkpt lat="43.96944" lon="5.17428">
        <ele>548</ele>
        <time>2020-05-31T08:25:07Z</time>
      </trkpt>
      <trkpt lat="43.96946" lon="5.17428">
        <ele>548</ele>
        <time>2020-05-31T08:25:08Z</time>
      </trkpt>
      <trkpt lat="43.96964" lon="5.17428">
        <ele>549</ele>
        <time>2020-05-31T08:25:17Z</time>
      </trkpt>
      <trkpt lat="43.96965" lon="5.1743">
        <ele>549</ele>
        <time>2020-05-31T08:25:18Z</time>
      </trkpt>
      <trkpt lat="43.96967" lon="5.17431">
        <ele>550</ele>
        <time>2020-05-31T08:25:19Z</time>
      </trkpt>
      <trkpt lat="43.96969" lon="5.17432">
        <ele>550</ele>
        <time>2020-05-31T08:25:20Z</time>
      </trkpt>
      <trkpt lat="43.96972" lon="5.17433">
        <ele>550</ele>
        <time>2020-05-31T08:25:21Z</time>
      </trkpt>
      <trkpt lat="43.96974" lon="5.17433">
        <ele>551</ele>
        <time>2020-05-31T08:25:22Z</time>
      </trkpt>
      <trkpt lat="43.96993" lon="5.17426">
        <ele>551</ele>
        <time>2020-05-31T08:25:31Z</time>
      </trkpt>
      <trkpt lat="43.96994" lon="5.17424">
        <ele>551</ele>
        <time>2020-05-31T08:25:32Z</time>
      </trkpt>
      <trkpt lat="43.96995" lon="5.17421">
        <ele>550</ele>
        <time>2020-05-31T08:25:33Z</time>
      </trkpt>
      <trkpt lat="43.96996" lon="5.17418">
        <ele>550</ele>
        <time>2020-05-31T08:25:34Z</time>
      </trkpt>
      <trkpt lat="43.96997" lon="5.17416">
        <ele>549</ele>
        <time>2020-05-31T08:25:35Z</time>
      </trkpt>
      <trkpt lat="43.96998" lon="5.17414">
        <ele>549</ele>
        <time>2020-05-31T08:25:36Z</time>
      </trkpt>
      <trkpt lat="43.97" lon="5.17412">
        <ele>548</ele>
        <time>2020-05-31T08:25:37Z</time>
      </trkpt>
      <trkpt lat="43.97001" lon="5.1741">
        <ele>547</ele>
        <time>2020-05-31T08:25:38Z</time>
      </trkpt>
      <trkpt lat="43.97003" lon="5.17409">
        <ele>547</ele>
        <time>2020-05-31T08:25:39Z</time>
      </trkpt>
      <trkpt lat="43.97005" lon="5.17408">
        <ele>546</ele>
        <time>2020-05-31T08:25:40Z</time>
      </trkpt>
      <trkpt lat="43.97013" lon="5.17405">
        <ele>543</ele>
        <time>2020-05-31T08:25:48Z</time>
      </trkpt>
      <trkpt lat="43.97016" lon="5.17405">
        <ele>543</ele>
        <time>2020-05-31T08:25:52Z</time>
      </trkpt>
      <trkpt lat="43.97021" lon="5.17401">
        <ele>541</ele>
        <time>2020-05-31T08:26:39Z</time>
      </trkpt>
      <trkpt lat="43.97024" lon="5.17404">
        <ele>541</ele>
        <time>2020-05-31T08:29:09Z</time>
      </trkpt>
      <trkpt lat="43.9701" lon="5.17412">
        <ele>546</ele>
        <time>2020-05-31T08:30:07Z</time>
      </trkpt>
      <trkpt lat="43.97013" lon="5.17412">
        <ele>545</ele>
        <time>2020-05-31T08:30:10Z</time>
      </trkpt>
      <trkpt lat="43.97015" lon="5.17412">
        <ele>545</ele>
        <time>2020-05-31T08:30:13Z</time>
      </trkpt>
      <trkpt lat="43.97019" lon="5.17413">
        <ele>544</ele>
        <time>2020-05-31T08:30:22Z</time>
      </trkpt>
      <trkpt lat="43.97023" lon="5.17411">
        <ele>542</ele>
        <time>2020-05-31T08:30:30Z</time>
      </trkpt>
      <trkpt lat="43.97028" lon="5.17413">
        <ele>542</ele>
        <time>2020-05-31T08:30:42Z</time>
      </trkpt>
      <trkpt lat="43.97032" lon="5.17411">
        <ele>539</ele>
        <time>2020-05-31T08:30:52Z</time>
      </trkpt>
      <trkpt lat="43.97033" lon="5.1741">
        <ele>538</ele>
        <time>2020-05-31T08:30:53Z</time>
      </trkpt>
      <trkpt lat="43.97034" lon="5.17407">
        <ele>537</ele>
        <time>2020-05-31T08:30:58Z</time>
      </trkpt>
      <trkpt lat="43.9704" lon="5.17405">
        <ele>533</ele>
        <time>2020-05-31T08:31:07Z</time>
      </trkpt>
      <trkpt lat="43.97042" lon="5.17403">
        <ele>531</ele>
        <time>2020-05-31T08:31:10Z</time>
      </trkpt>
      <trkpt lat="43.97045" lon="5.17404">
        <ele>530</ele>
        <time>2020-05-31T08:31:13Z</time>
      </trkpt>
      <trkpt lat="43.97047" lon="5.17405">
        <ele>528</ele>
        <time>2020-05-31T08:31:15Z</time>
      </trkpt>
      <trkpt lat="43.9705" lon="5.17407">
        <ele>527</ele>
        <time>2020-05-31T08:31:18Z</time>
      </trkpt>
      <trkpt lat="43.97057" lon="5.1741">
        <ele>525</ele>
        <time>2020-05-31T08:31:23Z</time>
      </trkpt>
      <trkpt lat="43.97064" lon="5.17404">
        <ele>523</ele>
        <time>2020-05-31T08:31:32Z</time>
      </trkpt>
      <trkpt lat="43.97065" lon="5.17404">
        <ele>523</ele>
        <time>2020-05-31T08:31:33Z</time>
      </trkpt>
      <trkpt lat="43.97066" lon="5.17398">
        <ele>521</ele>
        <time>2020-05-31T08:31:38Z</time>
      </trkpt>
      <trkpt lat="43.97067" lon="5.17391">
        <ele>518</ele>
        <time>2020-05-31T08:31:48Z</time>
      </trkpt>
      <trkpt lat="43.97069" lon="5.17391">
        <ele>518</ele>
        <time>2020-05-31T08:31:52Z</time>
      </trkpt>
      <trkpt lat="43.97075" lon="5.17387">
        <ele>516</ele>
        <time>2020-05-31T08:31:58Z</time>
      </trkpt>
      <trkpt lat="43.97079" lon="5.17379">
        <ele>513</ele>
        <time>2020-05-31T08:32:07Z</time>
      </trkpt>
      <trkpt lat="43.97086" lon="5.17375">
        <ele>511</ele>
        <time>2020-05-31T08:32:13Z</time>
      </trkpt>
      <trkpt lat="43.97092" lon="5.17366">
        <ele>508</ele>
        <time>2020-05-31T08:32:20Z</time>
      </trkpt>
      <trkpt lat="43.97097" lon="5.17364">
        <ele>508</ele>
        <time>2020-05-31T08:32:25Z</time>
      </trkpt>
      <trkpt lat="43.97101" lon="5.17362">
        <ele>507</ele>
        <time>2020-05-31T08:32:27Z</time>
      </trkpt>
      <trkpt lat="43.97114" lon="5.1736">
        <ele>506</ele>
        <time>2020-05-31T08:32:35Z</time>
      </trkpt>
      <trkpt lat="43.97117" lon="5.1736">
        <ele>505</ele>
        <time>2020-05-31T08:32:43Z</time>
      </trkpt>
      <trkpt lat="43.9712" lon="5.17357">
        <ele>504</ele>
        <time>2020-05-31T08:32:47Z</time>
      </trkpt>
      <trkpt lat="43.97123" lon="5.17357">
        <ele>503</ele>
        <time>2020-05-31T08:32:53Z</time>
      </trkpt>
      <trkpt lat="43.97127" lon="5.17354">
        <ele>501</ele>
        <time>2020-05-31T08:32:59Z</time>
      </trkpt>
      <trkpt lat="43.97127" lon="5.17351">
        <ele>500</ele>
        <time>2020-05-31T08:33:02Z</time>
      </trkpt>
      <trkpt lat="43.97129" lon="5.17347">
        <ele>498</ele>
        <time>2020-05-31T08:33:12Z</time>
      </trkpt>
      <trkpt lat="43.97134" lon="5.17344">
        <ele>496</ele>
        <time>2020-05-31T08:33:22Z</time>
      </trkpt>
      <trkpt lat="43.97135" lon="5.17343">
        <ele>496</ele>
        <time>2020-05-31T08:33:29Z</time>
      </trkpt>
      <trkpt lat="43.97142" lon="5.17343">
        <ele>494</ele>
        <time>2020-05-31T08:33:46Z</time>
      </trkpt>
      <trkpt lat="43.97145" lon="5.17344">
        <ele>493</ele>
        <time>2020-05-31T08:33:48Z</time>
      </trkpt>
      <trkpt lat="43.97159" lon="5.17347">
        <ele>490</ele>
        <time>2020-05-31T08:33:57Z</time>
      </trkpt>
      <trkpt lat="43.97161" lon="5.17349">
        <ele>489</ele>
        <time>2020-05-31T08:33:58Z</time>
      </trkpt>
      <trkpt lat="43.97162" lon="5.17351">
        <ele>489</ele>
        <time>2020-05-31T08:33:59Z</time>
      </trkpt>
      <trkpt lat="43.97163" lon="5.17353">
        <ele>490</ele>
        <time>2020-05-31T08:34:00Z</time>
      </trkpt>
      <trkpt lat="43.97165" lon="5.17354">
        <ele>489</ele>
        <time>2020-05-31T08:34:01Z</time>
      </trkpt>
      <trkpt lat="43.97166" lon="5.17355">
        <ele>489</ele>
        <time>2020-05-31T08:34:02Z</time>
      </trkpt>
      <trkpt lat="43.97168" lon="5.17356">
        <ele>489</ele>
        <time>2020-05-31T08:34:03Z</time>
      </trkpt>
      <trkpt lat="43.97179" lon="5.17361">
        <ele>487</ele>
        <time>2020-05-31T08:34:11Z</time>
      </trkpt>
      <trkpt lat="43.97181" lon="5.17362">
        <ele>486</ele>
        <time>2020-05-31T08:34:12Z</time>
      </trkpt>
      <trkpt lat="43.9719" lon="5.17366">
        <ele>485</ele>
        <time>2020-05-31T08:34:16Z</time>
      </trkpt>
      <trkpt lat="43.97192" lon="5.17366">
        <ele>485</ele>
        <time>2020-05-31T08:34:17Z</time>
      </trkpt>
      <trkpt lat="43.97194" lon="5.17366">
        <ele>484</ele>
        <time>2020-05-31T08:34:18Z</time>
      </trkpt>
      <trkpt lat="43.97196" lon="5.17366">
        <ele>484</ele>
        <time>2020-05-31T08:34:19Z</time>
      </trkpt>
      <trkpt lat="43.97197" lon="5.17366">
        <ele>483</ele>
        <time>2020-05-31T08:34:20Z</time>
      </trkpt>
      <trkpt lat="43.97213" lon="5.1737">
        <ele>484</ele>
        <time>2020-05-31T08:34:28Z</time>
      </trkpt>
      <trkpt lat="43.97223" lon="5.17372">
        <ele>484</ele>
        <time>2020-05-31T08:34:33Z</time>
      </trkpt>
      <trkpt lat="43.97226" lon="5.17371">
        <ele>484</ele>
        <time>2020-05-31T08:34:34Z</time>
      </trkpt>
      <trkpt lat="43.97228" lon="5.17371">
        <ele>485</ele>
        <time>2020-05-31T08:34:35Z</time>
      </trkpt>
      <trkpt lat="43.9723" lon="5.17371">
        <ele>485</ele>
        <time>2020-05-31T08:34:36Z</time>
      </trkpt>
      <trkpt lat="43.97232" lon="5.17371">
        <ele>485</ele>
        <time>2020-05-31T08:34:37Z</time>
      </trkpt>
      <trkpt lat="43.97234" lon="5.17371">
        <ele>485</ele>
        <time>2020-05-31T08:34:38Z</time>
      </trkpt>
      <trkpt lat="43.97236" lon="5.17369">
        <ele>485</ele>
        <time>2020-05-31T08:34:39Z</time>
      </trkpt>
      <trkpt lat="43.97237" lon="5.17368">
        <ele>484</ele>
        <time>2020-05-31T08:34:40Z</time>
      </trkpt>
      <trkpt lat="43.97239" lon="5.17367">
        <ele>483</ele>
        <time>2020-05-31T08:34:41Z</time>
      </trkpt>
      <trkpt lat="43.97241" lon="5.17365">
        <ele>483</ele>
        <time>2020-05-31T08:34:42Z</time>
      </trkpt>
      <trkpt lat="43.97245" lon="5.17363">
        <ele>481</ele>
        <time>2020-05-31T08:34:44Z</time>
      </trkpt>
      <trkpt lat="43.97248" lon="5.17362">
        <ele>481</ele>
        <time>2020-05-31T08:34:45Z</time>
      </trkpt>
      <trkpt lat="43.9725" lon="5.17363">
        <ele>482</ele>
        <time>2020-05-31T08:34:46Z</time>
      </trkpt>
      <trkpt lat="43.97258" lon="5.17365">
        <ele>486</ele>
        <time>2020-05-31T08:34:55Z</time>
      </trkpt>
      <trkpt lat="43.97261" lon="5.17363">
        <ele>486</ele>
        <time>2020-05-31T08:35:07Z</time>
      </trkpt>
      <trkpt lat="43.97261" lon="5.17359">
        <ele>482</ele>
        <time>2020-05-31T08:35:17Z</time>
      </trkpt>
      <trkpt lat="43.97263" lon="5.17355">
        <ele>479</ele>
        <time>2020-05-31T08:35:27Z</time>
      </trkpt>
      <trkpt lat="43.97264" lon="5.17353">
        <ele>478</ele>
        <time>2020-05-31T08:35:29Z</time>
      </trkpt>
      <trkpt lat="43.97265" lon="5.17348">
        <ele>474</ele>
        <time>2020-05-31T08:35:39Z</time>
      </trkpt>
      <trkpt lat="43.97271" lon="5.17341">
        <ele>470</ele>
        <time>2020-05-31T08:35:48Z</time>
      </trkpt>
      <trkpt lat="43.97276" lon="5.17329">
        <ele>463</ele>
        <time>2020-05-31T08:35:55Z</time>
      </trkpt>
      <trkpt lat="43.97279" lon="5.17323">
        <ele>460</ele>
        <time>2020-05-31T08:36:00Z</time>
      </trkpt>
      <trkpt lat="43.97279" lon="5.17319">
        <ele>458</ele>
        <time>2020-05-31T08:36:02Z</time>
      </trkpt>
      <trkpt lat="43.9728" lon="5.17317">
        <ele>457</ele>
        <time>2020-05-31T08:36:03Z</time>
      </trkpt>
      <trkpt lat="43.97281" lon="5.17315">
        <ele>456</ele>
        <time>2020-05-31T08:36:04Z</time>
      </trkpt>
      <trkpt lat="43.97282" lon="5.17314">
        <ele>456</ele>
        <time>2020-05-31T08:36:05Z</time>
      </trkpt>
      <trkpt lat="43.97283" lon="5.17312">
        <ele>455</ele>
        <time>2020-05-31T08:36:06Z</time>
      </trkpt>
      <trkpt lat="43.97285" lon="5.1731">
        <ele>454</ele>
        <time>2020-05-31T08:36:07Z</time>
      </trkpt>
      <trkpt lat="43.97286" lon="5.17309">
        <ele>454</ele>
        <time>2020-05-31T08:36:08Z</time>
      </trkpt>
      <trkpt lat="43.9729" lon="5.173">
        <ele>450</ele>
        <time>2020-05-31T08:36:14Z</time>
      </trkpt>
      <trkpt lat="43.97292" lon="5.17295">
        <ele>449</ele>
        <time>2020-05-31T08:36:17Z</time>
      </trkpt>
      <trkpt lat="43.97294" lon="5.17294">
        <ele>449</ele>
        <time>2020-05-31T08:36:18Z</time>
      </trkpt>
      <trkpt lat="43.97296" lon="5.17294">
        <ele>448</ele>
        <time>2020-05-31T08:36:19Z</time>
      </trkpt>
      <trkpt lat="43.97298" lon="5.17294">
        <ele>448</ele>
        <time>2020-05-31T08:36:20Z</time>
      </trkpt>
      <trkpt lat="43.973" lon="5.17295">
        <ele>448</ele>
        <time>2020-05-31T08:36:21Z</time>
      </trkpt>
      <trkpt lat="43.97306" lon="5.17292">
        <ele>447</ele>
        <time>2020-05-31T08:36:31Z</time>
      </trkpt>
      <trkpt lat="43.9731" lon="5.17289">
        <ele>445</ele>
        <time>2020-05-31T08:36:41Z</time>
      </trkpt>
      <trkpt lat="43.97317" lon="5.17288">
        <ele>444</ele>
        <time>2020-05-31T08:36:52Z</time>
      </trkpt>
      <trkpt lat="43.97323" lon="5.17286">
        <ele>443</ele>
        <time>2020-05-31T08:37:02Z</time>
      </trkpt>
      <trkpt lat="43.97324" lon="5.17283">
        <ele>442</ele>
        <time>2020-05-31T08:37:08Z</time>
      </trkpt>
      <trkpt lat="43.97325" lon="5.17282">
        <ele>441</ele>
        <time>2020-05-31T08:37:09Z</time>
      </trkpt>
      <trkpt lat="43.97338" lon="5.17277">
        <ele>440</ele>
        <time>2020-05-31T08:37:17Z</time>
      </trkpt>
      <trkpt lat="43.97355" lon="5.17265">
        <ele>438</ele>
        <time>2020-05-31T08:37:28Z</time>
      </trkpt>
      <trkpt lat="43.97356" lon="5.17263">
        <ele>437</ele>
        <time>2020-05-31T08:37:29Z</time>
      </trkpt>
      <trkpt lat="43.97358" lon="5.1726">
        <ele>436</ele>
        <time>2020-05-31T08:37:31Z</time>
      </trkpt>
      <trkpt lat="43.97362" lon="5.17255">
        <ele>433</ele>
        <time>2020-05-31T08:37:35Z</time>
      </trkpt>
      <trkpt lat="43.97365" lon="5.17252">
        <ele>431</ele>
        <time>2020-05-31T08:37:38Z</time>
      </trkpt>
      <trkpt lat="43.97366" lon="5.17252">
        <ele>431</ele>
        <time>2020-05-31T08:37:39Z</time>
      </trkpt>
      <trkpt lat="43.97368" lon="5.17251">
        <ele>430</ele>
        <time>2020-05-31T08:37:40Z</time>
      </trkpt>
      <trkpt lat="43.97373" lon="5.17249">
        <ele>429</ele>
        <time>2020-05-31T08:37:43Z</time>
      </trkpt>
      <trkpt lat="43.97374" lon="5.17247">
        <ele>429</ele>
        <time>2020-05-31T08:37:44Z</time>
      </trkpt>
      <trkpt lat="43.97376" lon="5.17246">
        <ele>429</ele>
        <time>2020-05-31T08:37:45Z</time>
      </trkpt>
      <trkpt lat="43.97378" lon="5.17245">
        <ele>429</ele>
        <time>2020-05-31T08:37:47Z</time>
      </trkpt>
      <trkpt lat="43.97379" lon="5.17244">
        <ele>428</ele>
        <time>2020-05-31T08:37:48Z</time>
      </trkpt>
      <trkpt lat="43.9739" lon="5.17244">
        <ele>428</ele>
        <time>2020-05-31T08:37:55Z</time>
      </trkpt>
      <trkpt lat="43.97394" lon="5.17247">
        <ele>428</ele>
        <time>2020-05-31T08:37:58Z</time>
      </trkpt>
      <trkpt lat="43.97421" lon="5.1726">
        <ele>427</ele>
        <time>2020-05-31T08:38:10Z</time>
      </trkpt>
      <trkpt lat="43.97442" lon="5.1727">
        <ele>428</ele>
        <time>2020-05-31T08:38:20Z</time>
      </trkpt>
      <trkpt lat="43.97447" lon="5.17269">
        <ele>426</ele>
        <time>2020-05-31T08:38:22Z</time>
      </trkpt>
      <trkpt lat="43.9745" lon="5.17269">
        <ele>426</ele>
        <time>2020-05-31T08:38:23Z</time>
      </trkpt>
      <trkpt lat="43.97452" lon="5.17269">
        <ele>426</ele>
        <time>2020-05-31T08:38:24Z</time>
      </trkpt>
      <trkpt lat="43.97454" lon="5.17269">
        <ele>425</ele>
        <time>2020-05-31T08:38:25Z</time>
      </trkpt>
      <trkpt lat="43.97457" lon="5.1727">
        <ele>425</ele>
        <time>2020-05-31T08:38:26Z</time>
      </trkpt>
      <trkpt lat="43.9747" lon="5.1728">
        <ele>424</ele>
        <time>2020-05-31T08:38:32Z</time>
      </trkpt>
      <trkpt lat="43.97474" lon="5.17283">
        <ele>425</ele>
        <time>2020-05-31T08:38:35Z</time>
      </trkpt>
      <trkpt lat="43.9748" lon="5.17284">
        <ele>425</ele>
        <time>2020-05-31T08:38:38Z</time>
      </trkpt>
      <trkpt lat="43.97483" lon="5.17284">
        <ele>425</ele>
        <time>2020-05-31T08:38:39Z</time>
      </trkpt>
      <trkpt lat="43.9749" lon="5.17285">
        <ele>424</ele>
        <time>2020-05-31T08:38:42Z</time>
      </trkpt>
      <trkpt lat="43.97494" lon="5.17286">
        <ele>424</ele>
        <time>2020-05-31T08:38:44Z</time>
      </trkpt>
      <trkpt lat="43.97496" lon="5.17286">
        <ele>424</ele>
        <time>2020-05-31T08:38:45Z</time>
      </trkpt>
      <trkpt lat="43.97498" lon="5.17286">
        <ele>424</ele>
        <time>2020-05-31T08:38:46Z</time>
      </trkpt>
      <trkpt lat="43.975" lon="5.17287">
        <ele>424</ele>
        <time>2020-05-31T08:38:47Z</time>
      </trkpt>
      <trkpt lat="43.97502" lon="5.17288">
        <ele>424</ele>
        <time>2020-05-31T08:38:48Z</time>
      </trkpt>
      <trkpt lat="43.97504" lon="5.17289">
        <ele>424</ele>
        <time>2020-05-31T08:38:49Z</time>
      </trkpt>
      <trkpt lat="43.97506" lon="5.1729">
        <ele>424</ele>
        <time>2020-05-31T08:38:50Z</time>
      </trkpt>
      <trkpt lat="43.97508" lon="5.1729">
        <ele>424</ele>
        <time>2020-05-31T08:38:51Z</time>
      </trkpt>
      <trkpt lat="43.97511" lon="5.17291">
        <ele>424</ele>
        <time>2020-05-31T08:38:52Z</time>
      </trkpt>
      <trkpt lat="43.97531" lon="5.17298">
        <ele>423</ele>
        <time>2020-05-31T08:39:01Z</time>
      </trkpt>
      <trkpt lat="43.97535" lon="5.17301">
        <ele>423</ele>
        <time>2020-05-31T08:39:03Z</time>
      </trkpt>
      <trkpt lat="43.97536" lon="5.17303">
        <ele>423</ele>
        <time>2020-05-31T08:39:04Z</time>
      </trkpt>
      <trkpt lat="43.97538" lon="5.17305">
        <ele>423</ele>
        <time>2020-05-31T08:39:05Z</time>
      </trkpt>
      <trkpt lat="43.97539" lon="5.17305">
        <ele>423</ele>
        <time>2020-05-31T08:39:06Z</time>
      </trkpt>
      <trkpt lat="43.97542" lon="5.17305">
        <ele>422</ele>
        <time>2020-05-31T08:39:07Z</time>
      </trkpt>
      <trkpt lat="43.97546" lon="5.17306">
        <ele>422</ele>
        <time>2020-05-31T08:39:09Z</time>
      </trkpt>
      <trkpt lat="43.97548" lon="5.17308">
        <ele>422</ele>
        <time>2020-05-31T08:39:10Z</time>
      </trkpt>
      <trkpt lat="43.9755" lon="5.17309">
        <ele>422</ele>
        <time>2020-05-31T08:39:11Z</time>
      </trkpt>
      <trkpt lat="43.97552" lon="5.1731">
        <ele>422</ele>
        <time>2020-05-31T08:39:12Z</time>
      </trkpt>
      <trkpt lat="43.97554" lon="5.17312">
        <ele>422</ele>
        <time>2020-05-31T08:39:13Z</time>
      </trkpt>
      <trkpt lat="43.97573" lon="5.17323">
        <ele>420</ele>
        <time>2020-05-31T08:39:21Z</time>
      </trkpt>
      <trkpt lat="43.97577" lon="5.17328">
        <ele>420</ele>
        <time>2020-05-31T08:39:25Z</time>
      </trkpt>
      <trkpt lat="43.97578" lon="5.17329">
        <ele>420</ele>
        <time>2020-05-31T08:39:26Z</time>
      </trkpt>
      <trkpt lat="43.97579" lon="5.17331">
        <ele>420</ele>
        <time>2020-05-31T08:39:27Z</time>
      </trkpt>
      <trkpt lat="43.9758" lon="5.17332">
        <ele>420</ele>
        <time>2020-05-31T08:39:28Z</time>
      </trkpt>
      <trkpt lat="43.97582" lon="5.17334">
        <ele>420</ele>
        <time>2020-05-31T08:39:29Z</time>
      </trkpt>
      <trkpt lat="43.97583" lon="5.17335">
        <ele>420</ele>
        <time>2020-05-31T08:39:30Z</time>
      </trkpt>
      <trkpt lat="43.97588" lon="5.17339">
        <ele>420</ele>
        <time>2020-05-31T08:39:40Z</time>
      </trkpt>
      <trkpt lat="43.97596" lon="5.1734">
        <ele>419</ele>
        <time>2020-05-31T08:39:45Z</time>
      </trkpt>
      <trkpt lat="43.97598" lon="5.1734">
        <ele>418</ele>
        <time>2020-05-31T08:39:46Z</time>
      </trkpt>
      <trkpt lat="43.976" lon="5.17339">
        <ele>418</ele>
        <time>2020-05-31T08:39:47Z</time>
      </trkpt>
      <trkpt lat="43.97603" lon="5.1734">
        <ele>417</ele>
        <time>2020-05-31T08:39:48Z</time>
      </trkpt>
      <trkpt lat="43.97605" lon="5.1734">
        <ele>417</ele>
        <time>2020-05-31T08:39:49Z</time>
      </trkpt>
      <trkpt lat="43.97608" lon="5.17341">
        <ele>417</ele>
        <time>2020-05-31T08:39:50Z</time>
      </trkpt>
      <trkpt lat="43.97611" lon="5.17343">
        <ele>417</ele>
        <time>2020-05-31T08:39:51Z</time>
      </trkpt>
      <trkpt lat="43.97614" lon="5.17345">
        <ele>417</ele>
        <time>2020-05-31T08:39:52Z</time>
      </trkpt>
      <trkpt lat="43.97644" lon="5.17363">
        <ele>413</ele>
        <time>2020-05-31T08:40:02Z</time>
      </trkpt>
      <trkpt lat="43.97647" lon="5.17366">
        <ele>414</ele>
        <time>2020-05-31T08:40:04Z</time>
      </trkpt>
      <trkpt lat="43.97648" lon="5.17366">
        <ele>414</ele>
        <time>2020-05-31T08:40:05Z</time>
      </trkpt>
      <trkpt lat="43.9765" lon="5.17366">
        <ele>413</ele>
        <time>2020-05-31T08:40:06Z</time>
      </trkpt>
      <trkpt lat="43.97651" lon="5.17366">
        <ele>413</ele>
        <time>2020-05-31T08:40:07Z</time>
      </trkpt>
      <trkpt lat="43.97653" lon="5.17365">
        <ele>412</ele>
        <time>2020-05-31T08:40:08Z</time>
      </trkpt>
      <trkpt lat="43.97655" lon="5.17364">
        <ele>412</ele>
        <time>2020-05-31T08:40:09Z</time>
      </trkpt>
      <trkpt lat="43.97657" lon="5.17364">
        <ele>411</ele>
        <time>2020-05-31T08:40:10Z</time>
      </trkpt>
      <trkpt lat="43.97659" lon="5.17364">
        <ele>411</ele>
        <time>2020-05-31T08:40:11Z</time>
      </trkpt>
      <trkpt lat="43.97661" lon="5.17364">
        <ele>410</ele>
        <time>2020-05-31T08:40:12Z</time>
      </trkpt>
      <trkpt lat="43.97663" lon="5.17363">
        <ele>410</ele>
        <time>2020-05-31T08:40:13Z</time>
      </trkpt>
      <trkpt lat="43.97665" lon="5.17362">
        <ele>409</ele>
        <time>2020-05-31T08:40:14Z</time>
      </trkpt>
      <trkpt lat="43.97667" lon="5.17361">
        <ele>408</ele>
        <time>2020-05-31T08:40:15Z</time>
      </trkpt>
      <trkpt lat="43.9768" lon="5.17355">
        <ele>410</ele>
        <time>2020-05-31T08:40:21Z</time>
      </trkpt>
      <trkpt lat="43.97681" lon="5.17353">
        <ele>409</ele>
        <time>2020-05-31T08:40:22Z</time>
      </trkpt>
      <trkpt lat="43.97685" lon="5.17348">
        <ele>408</ele>
        <time>2020-05-31T08:40:25Z</time>
      </trkpt>
      <trkpt lat="43.97686" lon="5.17346">
        <ele>408</ele>
        <time>2020-05-31T08:40:26Z</time>
      </trkpt>
      <trkpt lat="43.97688" lon="5.17345">
        <ele>408</ele>
        <time>2020-05-31T08:40:27Z</time>
      </trkpt>
      <trkpt lat="43.9769" lon="5.17346">
        <ele>408</ele>
        <time>2020-05-31T08:40:28Z</time>
      </trkpt>
      <trkpt lat="43.97692" lon="5.17346">
        <ele>409</ele>
        <time>2020-05-31T08:40:29Z</time>
      </trkpt>
      <trkpt lat="43.977" lon="5.1735">
        <ele>414</ele>
        <time>2020-05-31T08:40:33Z</time>
      </trkpt>
      <trkpt lat="43.97702" lon="5.17348">
        <ele>414</ele>
        <time>2020-05-31T08:40:34Z</time>
      </trkpt>
      <trkpt lat="43.97703" lon="5.17346">
        <ele>414</ele>
        <time>2020-05-31T08:40:35Z</time>
      </trkpt>
      <trkpt lat="43.97711" lon="5.17315">
        <ele>409</ele>
        <time>2020-05-31T08:40:45Z</time>
      </trkpt>
      <trkpt lat="43.97716" lon="5.17307">
        <ele>411</ele>
        <time>2020-05-31T08:40:50Z</time>
      </trkpt>
      <trkpt lat="43.97716" lon="5.17303">
        <ele>411</ele>
        <time>2020-05-31T08:40:51Z</time>
      </trkpt>
      <trkpt lat="43.97715" lon="5.173">
        <ele>410</ele>
        <time>2020-05-31T08:40:52Z</time>
      </trkpt>
      <trkpt lat="43.97715" lon="5.17297">
        <ele>410</ele>
        <time>2020-05-31T08:40:53Z</time>
      </trkpt>
      <trkpt lat="43.97714" lon="5.17293">
        <ele>409</ele>
        <time>2020-05-31T08:40:54Z</time>
      </trkpt>
      <trkpt lat="43.97714" lon="5.1729">
        <ele>409</ele>
        <time>2020-05-31T08:40:55Z</time>
      </trkpt>
      <trkpt lat="43.97713" lon="5.17287">
        <ele>409</ele>
        <time>2020-05-31T08:40:56Z</time>
      </trkpt>
      <trkpt lat="43.97713" lon="5.17285">
        <ele>408</ele>
        <time>2020-05-31T08:40:57Z</time>
      </trkpt>
      <trkpt lat="43.97713" lon="5.17283">
        <ele>408</ele>
        <time>2020-05-31T08:40:58Z</time>
      </trkpt>
      <trkpt lat="43.97707" lon="5.17263">
        <ele>401</ele>
        <time>2020-05-31T08:41:06Z</time>
      </trkpt>
      <trkpt lat="43.97713" lon="5.17241">
        <ele>400</ele>
        <time>2020-05-31T08:41:15Z</time>
      </trkpt>
      <trkpt lat="43.9773" lon="5.17222">
        <ele>404</ele>
        <time>2020-05-31T08:41:25Z</time>
      </trkpt>
      <trkpt lat="43.97749" lon="5.17209">
        <ele>406</ele>
        <time>2020-05-31T08:41:34Z</time>
      </trkpt>
      <trkpt lat="43.97752" lon="5.17208">
        <ele>406</ele>
        <time>2020-05-31T08:41:35Z</time>
      </trkpt>
      <trkpt lat="43.97754" lon="5.17207">
        <ele>405</ele>
        <time>2020-05-31T08:41:36Z</time>
      </trkpt>
      <trkpt lat="43.97759" lon="5.17202">
        <ele>404</ele>
        <time>2020-05-31T08:41:44Z</time>
      </trkpt>
      <trkpt lat="43.97766" lon="5.17201">
        <ele>405</ele>
        <time>2020-05-31T08:41:51Z</time>
      </trkpt>
      <trkpt lat="43.97778" lon="5.17204">
        <ele>408</ele>
        <time>2020-05-31T08:41:58Z</time>
      </trkpt>
      <trkpt lat="43.97793" lon="5.17197">
        <ele>404</ele>
        <time>2020-05-31T08:42:07Z</time>
      </trkpt>
      <trkpt lat="43.97795" lon="5.17196">
        <ele>403</ele>
        <time>2020-05-31T08:42:08Z</time>
      </trkpt>
      <trkpt lat="43.97797" lon="5.17195">
        <ele>402</ele>
        <time>2020-05-31T08:42:09Z</time>
      </trkpt>
      <trkpt lat="43.97802" lon="5.17193">
        <ele>401</ele>
        <time>2020-05-31T08:42:12Z</time>
      </trkpt>
      <trkpt lat="43.97804" lon="5.17193">
        <ele>400</ele>
        <time>2020-05-31T08:42:13Z</time>
      </trkpt>
      <trkpt lat="43.97805" lon="5.17193">
        <ele>400</ele>
        <time>2020-05-31T08:42:14Z</time>
      </trkpt>
      <trkpt lat="43.97809" lon="5.17194">
        <ele>400</ele>
        <time>2020-05-31T08:42:16Z</time>
      </trkpt>
      <trkpt lat="43.9781" lon="5.17195">
        <ele>401</ele>
        <time>2020-05-31T08:42:17Z</time>
      </trkpt>
      <trkpt lat="43.97812" lon="5.17196">
        <ele>401</ele>
        <time>2020-05-31T08:42:18Z</time>
      </trkpt>
      <trkpt lat="43.97815" lon="5.17196">
        <ele>401</ele>
        <time>2020-05-31T08:42:20Z</time>
      </trkpt>
      <trkpt lat="43.97816" lon="5.17196">
        <ele>400</ele>
        <time>2020-05-31T08:42:21Z</time>
      </trkpt>
      <trkpt lat="43.97818" lon="5.17196">
        <ele>400</ele>
        <time>2020-05-31T08:42:22Z</time>
      </trkpt>
      <trkpt lat="43.9782" lon="5.17196">
        <ele>400</ele>
        <time>2020-05-31T08:42:23Z</time>
      </trkpt>
      <trkpt lat="43.97821" lon="5.17196">
        <ele>400</ele>
        <time>2020-05-31T08:42:24Z</time>
      </trkpt>
      <trkpt lat="43.97822" lon="5.17197">
        <ele>400</ele>
        <time>2020-05-31T08:42:25Z</time>
      </trkpt>
      <trkpt lat="43.97824" lon="5.17199">
        <ele>401</ele>
        <time>2020-05-31T08:42:26Z</time>
      </trkpt>
      <trkpt lat="43.97825" lon="5.17201">
        <ele>402</ele>
        <time>2020-05-31T08:42:27Z</time>
      </trkpt>
      <trkpt lat="43.97833" lon="5.17204">
        <ele>402</ele>
        <time>2020-05-31T08:42:37Z</time>
      </trkpt>
      <trkpt lat="43.97835" lon="5.17204">
        <ele>402</ele>
        <time>2020-05-31T08:42:38Z</time>
      </trkpt>
      <trkpt lat="43.97836" lon="5.17204">
        <ele>401</ele>
        <time>2020-05-31T08:42:39Z</time>
      </trkpt>
      <trkpt lat="43.97838" lon="5.17204">
        <ele>401</ele>
        <time>2020-05-31T08:42:40Z</time>
      </trkpt>
      <trkpt lat="43.9784" lon="5.17204">
        <ele>401</ele>
        <time>2020-05-31T08:42:41Z</time>
      </trkpt>
      <trkpt lat="43.97841" lon="5.17204">
        <ele>401</ele>
        <time>2020-05-31T08:42:42Z</time>
      </trkpt>
      <trkpt lat="43.97859" lon="5.172">
        <ele>397</ele>
        <time>2020-05-31T08:42:52Z</time>
      </trkpt>
      <trkpt lat="43.9787" lon="5.17195">
        <ele>393</ele>
        <time>2020-05-31T08:42:58Z</time>
      </trkpt>
      <trkpt lat="43.9789" lon="5.17204">
        <ele>392</ele>
        <time>2020-05-31T08:43:08Z</time>
      </trkpt>
      <trkpt lat="43.97901" lon="5.17212">
        <ele>389</ele>
        <time>2020-05-31T08:43:14Z</time>
      </trkpt>
      <trkpt lat="43.97909" lon="5.17216">
        <ele>387</ele>
        <time>2020-05-31T08:43:19Z</time>
      </trkpt>
      <trkpt lat="43.97914" lon="5.1722">
        <ele>386</ele>
        <time>2020-05-31T08:43:22Z</time>
      </trkpt>
      <trkpt lat="43.97924" lon="5.17227">
        <ele>382</ele>
        <time>2020-05-31T08:43:26Z</time>
      </trkpt>
      <trkpt lat="43.9794" lon="5.17241">
        <ele>376</ele>
        <time>2020-05-31T08:43:33Z</time>
      </trkpt>
      <trkpt lat="43.97942" lon="5.17242">
        <ele>376</ele>
        <time>2020-05-31T08:43:34Z</time>
      </trkpt>
      <trkpt lat="43.97944" lon="5.17243">
        <ele>375</ele>
        <time>2020-05-31T08:43:35Z</time>
      </trkpt>
      <trkpt lat="43.97946" lon="5.17245">
        <ele>374</ele>
        <time>2020-05-31T08:43:36Z</time>
      </trkpt>
      <trkpt lat="43.97947" lon="5.17246">
        <ele>373</ele>
        <time>2020-05-31T08:43:37Z</time>
      </trkpt>
      <trkpt lat="43.97948" lon="5.17247">
        <ele>373</ele>
        <time>2020-05-31T08:43:39Z</time>
      </trkpt>
      <trkpt lat="43.97956" lon="5.17248">
        <ele>368</ele>
        <time>2020-05-31T08:43:50Z</time>
      </trkpt>
      <trkpt lat="43.97954" lon="5.17246">
        <ele>369</ele>
        <time>2020-05-31T08:44:04Z</time>
      </trkpt>
      <trkpt lat="43.97956" lon="5.1725">
        <ele>368</ele>
        <time>2020-05-31T08:44:56Z</time>
      </trkpt>
      <trkpt lat="43.97957" lon="5.17251">
        <ele>368</ele>
        <time>2020-05-31T08:44:57Z</time>
      </trkpt>
      <trkpt lat="43.97958" lon="5.17253">
        <ele>368</ele>
        <time>2020-05-31T08:44:58Z</time>
      </trkpt>
      <trkpt lat="43.97959" lon="5.17254">
        <ele>367</ele>
        <time>2020-05-31T08:44:59Z</time>
      </trkpt>
      <trkpt lat="43.9796" lon="5.17256">
        <ele>367</ele>
        <time>2020-05-31T08:45:00Z</time>
      </trkpt>
      <trkpt lat="43.97961" lon="5.17258">
        <ele>367</ele>
        <time>2020-05-31T08:45:01Z</time>
      </trkpt>
      <trkpt lat="43.97963" lon="5.1726">
        <ele>367</ele>
        <time>2020-05-31T08:45:02Z</time>
      </trkpt>
      <trkpt lat="43.97964" lon="5.17262">
        <ele>366</ele>
        <time>2020-05-31T08:45:03Z</time>
      </trkpt>
      <trkpt lat="43.97966" lon="5.17263">
        <ele>366</ele>
        <time>2020-05-31T08:45:04Z</time>
      </trkpt>
      <trkpt lat="43.97967" lon="5.17265">
        <ele>365</ele>
        <time>2020-05-31T08:45:05Z</time>
      </trkpt>
      <trkpt lat="43.97968" lon="5.17268">
        <ele>365</ele>
        <time>2020-05-31T08:45:06Z</time>
      </trkpt>
      <trkpt lat="43.9797" lon="5.1727">
        <ele>365</ele>
        <time>2020-05-31T08:45:07Z</time>
      </trkpt>
      <trkpt lat="43.97971" lon="5.17272">
        <ele>365</ele>
        <time>2020-05-31T08:45:08Z</time>
      </trkpt>
      <trkpt lat="43.97974" lon="5.17277">
        <ele>365</ele>
        <time>2020-05-31T08:45:10Z</time>
      </trkpt>
      <trkpt lat="43.97978" lon="5.17281">
        <ele>362</ele>
        <time>2020-05-31T08:45:18Z</time>
      </trkpt>
      <trkpt lat="43.9798" lon="5.17285">
        <ele>361</ele>
        <time>2020-05-31T08:46:03Z</time>
      </trkpt>
      <trkpt lat="43.97981" lon="5.17286">
        <ele>361</ele>
        <time>2020-05-31T08:46:04Z</time>
      </trkpt>
      <trkpt lat="43.97982" lon="5.17288">
        <ele>361</ele>
        <time>2020-05-31T08:46:05Z</time>
      </trkpt>
      <trkpt lat="43.97983" lon="5.17291">
        <ele>361</ele>
        <time>2020-05-31T08:46:06Z</time>
      </trkpt>
      <trkpt lat="43.97984" lon="5.17294">
        <ele>361</ele>
        <time>2020-05-31T08:46:07Z</time>
      </trkpt>
      <trkpt lat="43.97984" lon="5.17296">
        <ele>362</ele>
        <time>2020-05-31T08:46:08Z</time>
      </trkpt>
      <trkpt lat="43.97985" lon="5.17298">
        <ele>362</ele>
        <time>2020-05-31T08:46:09Z</time>
      </trkpt>
      <trkpt lat="43.97989" lon="5.17307">
        <ele>361</ele>
        <time>2020-05-31T08:46:13Z</time>
      </trkpt>
      <trkpt lat="43.9799" lon="5.17311">
        <ele>362</ele>
        <time>2020-05-31T08:46:14Z</time>
      </trkpt>
      <trkpt lat="43.97999" lon="5.17333">
        <ele>361</ele>
        <time>2020-05-31T08:46:23Z</time>
      </trkpt>
      <trkpt lat="43.98001" lon="5.17335">
        <ele>360</ele>
        <time>2020-05-31T08:46:24Z</time>
      </trkpt>
      <trkpt lat="43.98009" lon="5.17356">
        <ele>360</ele>
        <time>2020-05-31T08:46:34Z</time>
      </trkpt>
      <trkpt lat="43.98023" lon="5.17373">
        <ele>356</ele>
        <time>2020-05-31T08:46:43Z</time>
      </trkpt>
      <trkpt lat="43.98025" lon="5.17376">
        <ele>356</ele>
        <time>2020-05-31T08:46:45Z</time>
      </trkpt>
      <trkpt lat="43.98026" lon="5.17377">
        <ele>355</ele>
        <time>2020-05-31T08:46:46Z</time>
      </trkpt>
      <trkpt lat="43.98027" lon="5.17379">
        <ele>355</ele>
        <time>2020-05-31T08:46:47Z</time>
      </trkpt>
      <trkpt lat="43.98027" lon="5.17382">
        <ele>356</ele>
        <time>2020-05-31T08:46:48Z</time>
      </trkpt>
      <trkpt lat="43.98027" lon="5.17386">
        <ele>357</ele>
        <time>2020-05-31T08:46:49Z</time>
      </trkpt>
      <trkpt lat="43.98028" lon="5.17389">
        <ele>357</ele>
        <time>2020-05-31T08:46:50Z</time>
      </trkpt>
      <trkpt lat="43.98028" lon="5.17392">
        <ele>357</ele>
        <time>2020-05-31T08:46:51Z</time>
      </trkpt>
      <trkpt lat="43.98029" lon="5.17395">
        <ele>357</ele>
        <time>2020-05-31T08:46:52Z</time>
      </trkpt>
      <trkpt lat="43.9803" lon="5.17397">
        <ele>357</ele>
        <time>2020-05-31T08:46:53Z</time>
      </trkpt>
      <trkpt lat="43.98031" lon="5.174">
        <ele>357</ele>
        <time>2020-05-31T08:46:54Z</time>
      </trkpt>
      <trkpt lat="43.98031" lon="5.17402">
        <ele>358</ele>
        <time>2020-05-31T08:46:55Z</time>
      </trkpt>
      <trkpt lat="43.98031" lon="5.17405">
        <ele>358</ele>
        <time>2020-05-31T08:46:56Z</time>
      </trkpt>
      <trkpt lat="43.98031" lon="5.17408">
        <ele>359</ele>
        <time>2020-05-31T08:46:57Z</time>
      </trkpt>
      <trkpt lat="43.98032" lon="5.17411">
        <ele>359</ele>
        <time>2020-05-31T08:46:58Z</time>
      </trkpt>
      <trkpt lat="43.98033" lon="5.17414">
        <ele>358</ele>
        <time>2020-05-31T08:46:59Z</time>
      </trkpt>
      <trkpt lat="43.98035" lon="5.17416">
        <ele>358</ele>
        <time>2020-05-31T08:47:00Z</time>
      </trkpt>
      <trkpt lat="43.98036" lon="5.17417">
        <ele>357</ele>
        <time>2020-05-31T08:47:01Z</time>
      </trkpt>
      <trkpt lat="43.98037" lon="5.17419">
        <ele>357</ele>
        <time>2020-05-31T08:47:02Z</time>
      </trkpt>
      <trkpt lat="43.98039" lon="5.17421">
        <ele>356</ele>
        <time>2020-05-31T08:47:03Z</time>
      </trkpt>
      <trkpt lat="43.98042" lon="5.17427">
        <ele>355</ele>
        <time>2020-05-31T08:47:06Z</time>
      </trkpt>
      <trkpt lat="43.98044" lon="5.17428">
        <ele>355</ele>
        <time>2020-05-31T08:47:07Z</time>
      </trkpt>
      <trkpt lat="43.98052" lon="5.17434">
        <ele>351</ele>
        <time>2020-05-31T08:47:12Z</time>
      </trkpt>
      <trkpt lat="43.98061" lon="5.17448">
        <ele>349</ele>
        <time>2020-05-31T08:47:21Z</time>
      </trkpt>
      <trkpt lat="43.98069" lon="5.17462">
        <ele>349</ele>
        <time>2020-05-31T08:47:28Z</time>
      </trkpt>
      <trkpt lat="43.98081" lon="5.17472">
        <ele>346</ele>
        <time>2020-05-31T08:47:34Z</time>
      </trkpt>
      <trkpt lat="43.98084" lon="5.17473">
        <ele>345</ele>
        <time>2020-05-31T08:47:35Z</time>
      </trkpt>
      <trkpt lat="43.98086" lon="5.17473">
        <ele>345</ele>
        <time>2020-05-31T08:47:36Z</time>
      </trkpt>
      <trkpt lat="43.98088" lon="5.17474">
        <ele>344</ele>
        <time>2020-05-31T08:47:37Z</time>
      </trkpt>
      <trkpt lat="43.9809" lon="5.17475">
        <ele>344</ele>
        <time>2020-05-31T08:47:38Z</time>
      </trkpt>
      <trkpt lat="43.98092" lon="5.17476">
        <ele>344</ele>
        <time>2020-05-31T08:47:39Z</time>
      </trkpt>
      <trkpt lat="43.98094" lon="5.17477">
        <ele>344</ele>
        <time>2020-05-31T08:47:40Z</time>
      </trkpt>
      <trkpt lat="43.98096" lon="5.17479">
        <ele>344</ele>
        <time>2020-05-31T08:47:41Z</time>
      </trkpt>
      <trkpt lat="43.98098" lon="5.1748">
        <ele>344</ele>
        <time>2020-05-31T08:47:42Z</time>
      </trkpt>
      <trkpt lat="43.981" lon="5.17481">
        <ele>343</ele>
        <time>2020-05-31T08:47:43Z</time>
      </trkpt>
      <trkpt lat="43.98102" lon="5.17482">
        <ele>343</ele>
        <time>2020-05-31T08:47:44Z</time>
      </trkpt>
      <trkpt lat="43.98105" lon="5.17482">
        <ele>342</ele>
        <time>2020-05-31T08:47:45Z</time>
      </trkpt>
      <trkpt lat="43.98107" lon="5.17483">
        <ele>342</ele>
        <time>2020-05-31T08:47:46Z</time>
      </trkpt>
      <trkpt lat="43.98109" lon="5.17484">
        <ele>342</ele>
        <time>2020-05-31T08:47:47Z</time>
      </trkpt>
      <trkpt lat="43.98111" lon="5.17485">
        <ele>341</ele>
        <time>2020-05-31T08:47:48Z</time>
      </trkpt>
      <trkpt lat="43.98113" lon="5.17486">
        <ele>341</ele>
        <time>2020-05-31T08:47:49Z</time>
      </trkpt>
      <trkpt lat="43.9813" lon="5.17498">
        <ele>340</ele>
        <time>2020-05-31T08:47:59Z</time>
      </trkpt>
      <trkpt lat="43.98139" lon="5.17501">
        <ele>338</ele>
        <time>2020-05-31T08:48:04Z</time>
      </trkpt>
      <trkpt lat="43.98143" lon="5.17501">
        <ele>337</ele>
        <time>2020-05-31T08:48:06Z</time>
      </trkpt>
      <trkpt lat="43.98154" lon="5.17501">
        <ele>333</ele>
        <time>2020-05-31T08:48:12Z</time>
      </trkpt>
      <trkpt lat="43.98167" lon="5.17501">
        <ele>329</ele>
        <time>2020-05-31T08:48:19Z</time>
      </trkpt>
      <trkpt lat="43.98173" lon="5.17499">
        <ele>327</ele>
        <time>2020-05-31T08:48:22Z</time>
      </trkpt>
      <trkpt lat="43.98182" lon="5.17499">
        <ele>325</ele>
        <time>2020-05-31T08:48:25Z</time>
      </trkpt>
      <trkpt lat="43.98191" lon="5.17505">
        <ele>324</ele>
        <time>2020-05-31T08:48:29Z</time>
      </trkpt>
      <trkpt lat="43.98196" lon="5.17511">
        <ele>323</ele>
        <time>2020-05-31T08:48:33Z</time>
      </trkpt>
      <trkpt lat="43.98198" lon="5.17514">
        <ele>323</ele>
        <time>2020-05-31T08:48:34Z</time>
      </trkpt>
      <trkpt lat="43.98201" lon="5.17517">
        <ele>323</ele>
        <time>2020-05-31T08:48:36Z</time>
      </trkpt>
      <trkpt lat="43.98212" lon="5.17534">
        <ele>321</ele>
        <time>2020-05-31T08:48:42Z</time>
      </trkpt>
      <trkpt lat="43.98214" lon="5.17539">
        <ele>320</ele>
        <time>2020-05-31T08:48:44Z</time>
      </trkpt>
      <trkpt lat="43.98224" lon="5.17551">
        <ele>318</ele>
        <time>2020-05-31T08:48:49Z</time>
      </trkpt>
      <trkpt lat="43.98228" lon="5.17561">
        <ele>318</ele>
        <time>2020-05-31T08:49:00Z</time>
      </trkpt>
      <trkpt lat="43.9823" lon="5.17561">
        <ele>318</ele>
        <time>2020-05-31T08:49:14Z</time>
      </trkpt>
      <trkpt lat="43.98235" lon="5.17567">
        <ele>317</ele>
        <time>2020-05-31T08:49:29Z</time>
      </trkpt>
      <trkpt lat="43.98237" lon="5.17574">
        <ele>317</ele>
        <time>2020-05-31T08:49:32Z</time>
      </trkpt>
      <trkpt lat="43.98233" lon="5.17596">
        <ele>318</ele>
        <time>2020-05-31T08:49:42Z</time>
      </trkpt>
      <trkpt lat="43.98234" lon="5.17599">
        <ele>318</ele>
        <time>2020-05-31T08:49:43Z</time>
      </trkpt>
      <trkpt lat="43.98235" lon="5.17601">
        <ele>318</ele>
        <time>2020-05-31T08:49:44Z</time>
      </trkpt>
      <trkpt lat="43.9824" lon="5.17612">
        <ele>318</ele>
        <time>2020-05-31T08:49:48Z</time>
      </trkpt>
      <trkpt lat="43.98243" lon="5.17612">
        <ele>318</ele>
        <time>2020-05-31T08:51:31Z</time>
      </trkpt>
      <trkpt lat="43.98248" lon="5.17611">
        <ele>318</ele>
        <time>2020-05-31T08:51:53Z</time>
      </trkpt>
      <trkpt lat="43.98253" lon="5.17605">
        <ele>318</ele>
        <time>2020-05-31T08:52:02Z</time>
      </trkpt>
      <trkpt lat="43.98254" lon="5.17604">
        <ele>318</ele>
        <time>2020-05-31T08:52:03Z</time>
      </trkpt>
      <trkpt lat="43.98255" lon="5.17602">
        <ele>318</ele>
        <time>2020-05-31T08:52:04Z</time>
      </trkpt>
      <trkpt lat="43.98256" lon="5.176">
        <ele>318</ele>
        <time>2020-05-31T08:52:05Z</time>
      </trkpt>
      <trkpt lat="43.98257" lon="5.17598">
        <ele>317</ele>
        <time>2020-05-31T08:52:06Z</time>
      </trkpt>
      <trkpt lat="43.98258" lon="5.17595">
        <ele>317</ele>
        <time>2020-05-31T08:52:07Z</time>
      </trkpt>
      <trkpt lat="43.98259" lon="5.17593">
        <ele>317</ele>
        <time>2020-05-31T08:52:08Z</time>
      </trkpt>
      <trkpt lat="43.9826" lon="5.1759">
        <ele>317</ele>
        <time>2020-05-31T08:52:09Z</time>
      </trkpt>
      <trkpt lat="43.98261" lon="5.17587">
        <ele>317</ele>
        <time>2020-05-31T08:52:10Z</time>
      </trkpt>
      <trkpt lat="43.98262" lon="5.17585">
        <ele>317</ele>
        <time>2020-05-31T08:52:11Z</time>
      </trkpt>
      <trkpt lat="43.98263" lon="5.17582">
        <ele>317</ele>
        <time>2020-05-31T08:52:12Z</time>
      </trkpt>
      <trkpt lat="43.98264" lon="5.1758">
        <ele>317</ele>
        <time>2020-05-31T08:52:13Z</time>
      </trkpt>
      <trkpt lat="43.98265" lon="5.17577">
        <ele>317</ele>
        <time>2020-05-31T08:52:14Z</time>
      </trkpt>
      <trkpt lat="43.98266" lon="5.17575">
        <ele>317</ele>
        <time>2020-05-31T08:52:15Z</time>
      </trkpt>
      <trkpt lat="43.98267" lon="5.17572">
        <ele>317</ele>
        <time>2020-05-31T08:52:16Z</time>
      </trkpt>
      <trkpt lat="43.98273" lon="5.17558">
        <ele>317</ele>
        <time>2020-05-31T08:52:23Z</time>
      </trkpt>
      <trkpt lat="43.98274" lon="5.17557">
        <ele>317</ele>
        <time>2020-05-31T08:52:24Z</time>
      </trkpt>
      <trkpt lat="43.98275" lon="5.17555">
        <ele>317</ele>
        <time>2020-05-31T08:52:25Z</time>
      </trkpt>
      <trkpt lat="43.98277" lon="5.17552">
        <ele>317</ele>
        <time>2020-05-31T08:52:27Z</time>
      </trkpt>
      <trkpt lat="43.98279" lon="5.1755">
        <ele>317</ele>
        <time>2020-05-31T08:52:28Z</time>
      </trkpt>
      <trkpt lat="43.98281" lon="5.17549">
        <ele>317</ele>
        <time>2020-05-31T08:52:29Z</time>
      </trkpt>
      <trkpt lat="43.98285" lon="5.17547">
        <ele>317</ele>
        <time>2020-05-31T08:52:31Z</time>
      </trkpt>
      <trkpt lat="43.98287" lon="5.17547">
        <ele>318</ele>
        <time>2020-05-31T08:52:32Z</time>
      </trkpt>
      <trkpt lat="43.98289" lon="5.17546">
        <ele>318</ele>
        <time>2020-05-31T08:52:33Z</time>
      </trkpt>
      <trkpt lat="43.98291" lon="5.17545">
        <ele>318</ele>
        <time>2020-05-31T08:52:34Z</time>
      </trkpt>
      <trkpt lat="43.98293" lon="5.17545">
        <ele>318</ele>
        <time>2020-05-31T08:52:35Z</time>
      </trkpt>
      <trkpt lat="43.98295" lon="5.17544">
        <ele>318</ele>
        <time>2020-05-31T08:52:36Z</time>
      </trkpt>
      <trkpt lat="43.98296" lon="5.17543">
        <ele>319</ele>
        <time>2020-05-31T08:52:37Z</time>
      </trkpt>
      <trkpt lat="43.98298" lon="5.17542">
        <ele>319</ele>
        <time>2020-05-31T08:52:38Z</time>
      </trkpt>
      <trkpt lat="43.98323" lon="5.17533">
        <ele>320</ele>
        <time>2020-05-31T08:52:48Z</time>
      </trkpt>
      <trkpt lat="43.9834" lon="5.17523">
        <ele>320</ele>
        <time>2020-05-31T08:52:57Z</time>
      </trkpt>
      <trkpt lat="43.98341" lon="5.17521">
        <ele>320</ele>
        <time>2020-05-31T08:52:58Z</time>
      </trkpt>
      <trkpt lat="43.98343" lon="5.1752">
        <ele>320</ele>
        <time>2020-05-31T08:52:59Z</time>
      </trkpt>
      <trkpt lat="43.98345" lon="5.17519">
        <ele>320</ele>
        <time>2020-05-31T08:53:00Z</time>
      </trkpt>
      <trkpt lat="43.98346" lon="5.17517">
        <ele>320</ele>
        <time>2020-05-31T08:53:01Z</time>
      </trkpt>
      <trkpt lat="43.98365" lon="5.17503">
        <ele>322</ele>
        <time>2020-05-31T08:53:12Z</time>
      </trkpt>
      <trkpt lat="43.98382" lon="5.1749">
        <ele>323</ele>
        <time>2020-05-31T08:53:22Z</time>
      </trkpt>
      <trkpt lat="43.98401" lon="5.17483">
        <ele>324</ele>
        <time>2020-05-31T08:53:33Z</time>
      </trkpt>
      <trkpt lat="43.98417" lon="5.17478">
        <ele>326</ele>
        <time>2020-05-31T08:53:42Z</time>
      </trkpt>
      <trkpt lat="43.98437" lon="5.17465">
        <ele>327</ele>
        <time>2020-05-31T08:53:53Z</time>
      </trkpt>
      <trkpt lat="43.98455" lon="5.17458">
        <ele>328</ele>
        <time>2020-05-31T08:54:03Z</time>
      </trkpt>
      <trkpt lat="43.98458" lon="5.17456">
        <ele>328</ele>
        <time>2020-05-31T08:54:04Z</time>
      </trkpt>
      <trkpt lat="43.98466" lon="5.17451">
        <ele>329</ele>
        <time>2020-05-31T08:54:07Z</time>
      </trkpt>
      <trkpt lat="43.98468" lon="5.17449">
        <ele>330</ele>
        <time>2020-05-31T08:54:08Z</time>
      </trkpt>
      <trkpt lat="43.98471" lon="5.17446">
        <ele>330</ele>
        <time>2020-05-31T08:54:09Z</time>
      </trkpt>
      <trkpt lat="43.98472" lon="5.17444">
        <ele>330</ele>
        <time>2020-05-31T08:54:10Z</time>
      </trkpt>
      <trkpt lat="43.98474" lon="5.17441">
        <ele>330</ele>
        <time>2020-05-31T08:54:11Z</time>
      </trkpt>
      <trkpt lat="43.98474" lon="5.17438">
        <ele>330</ele>
        <time>2020-05-31T08:54:12Z</time>
      </trkpt>
      <trkpt lat="43.98466" lon="5.17421">
        <ele>329</ele>
        <time>2020-05-31T08:54:20Z</time>
      </trkpt>
      <trkpt lat="43.98464" lon="5.17419">
        <ele>329</ele>
        <time>2020-05-31T08:54:21Z</time>
      </trkpt>
      <trkpt lat="43.98453" lon="5.17397">
        <ele>328</ele>
        <time>2020-05-31T08:54:31Z</time>
      </trkpt>
      <trkpt lat="43.98438" lon="5.17376">
        <ele>328</ele>
        <time>2020-05-31T08:54:41Z</time>
      </trkpt>
      <trkpt lat="43.98428" lon="5.17356">
        <ele>328</ele>
        <time>2020-05-31T08:54:49Z</time>
      </trkpt>
      <trkpt lat="43.9842" lon="5.17348">
        <ele>328</ele>
        <time>2020-05-31T08:54:53Z</time>
      </trkpt>
      <trkpt lat="43.98397" lon="5.17317">
        <ele>328</ele>
        <time>2020-05-31T08:55:08Z</time>
      </trkpt>
      <trkpt lat="43.98378" lon="5.17301">
        <ele>327</ele>
        <time>2020-05-31T08:55:19Z</time>
      </trkpt>
      <trkpt lat="43.98373" lon="5.17297">
        <ele>327</ele>
        <time>2020-05-31T08:55:22Z</time>
      </trkpt>
      <trkpt lat="43.98354" lon="5.17287">
        <ele>325</ele>
        <time>2020-05-31T08:55:31Z</time>
      </trkpt>
      <trkpt lat="43.98328" lon="5.17273">
        <ele>323</ele>
        <time>2020-05-31T08:55:42Z</time>
      </trkpt>
      <trkpt lat="43.98308" lon="5.17259">
        <ele>321</ele>
        <time>2020-05-31T08:55:51Z</time>
      </trkpt>
      <trkpt lat="43.98285" lon="5.17247">
        <ele>320</ele>
        <time>2020-05-31T08:56:02Z</time>
      </trkpt>
      <trkpt lat="43.98257" lon="5.17234">
        <ele>319</ele>
        <time>2020-05-31T08:56:13Z</time>
      </trkpt>
      <trkpt lat="43.98236" lon="5.17226">
        <ele>318</ele>
        <time>2020-05-31T08:56:22Z</time>
      </trkpt>
      <trkpt lat="43.98212" lon="5.1722">
        <ele>316</ele>
        <time>2020-05-31T08:56:31Z</time>
      </trkpt>
      <trkpt lat="43.98198" lon="5.17211">
        <ele>315</ele>
        <time>2020-05-31T08:56:37Z</time>
      </trkpt>
      <trkpt lat="43.98196" lon="5.17209">
        <ele>315</ele>
        <time>2020-05-31T08:56:38Z</time>
      </trkpt>
      <trkpt lat="43.9817" lon="5.17183">
        <ele>315</ele>
        <time>2020-05-31T08:56:46Z</time>
      </trkpt>
      <trkpt lat="43.98152" lon="5.17157">
        <ele>315</ele>
        <time>2020-05-31T08:56:55Z</time>
      </trkpt>
      <trkpt lat="43.98123" lon="5.17129">
        <ele>315</ele>
        <time>2020-05-31T08:57:07Z</time>
      </trkpt>
      <trkpt lat="43.98092" lon="5.17108">
        <ele>316</ele>
        <time>2020-05-31T08:57:18Z</time>
      </trkpt>
      <trkpt lat="43.98082" lon="5.17101">
        <ele>316</ele>
        <time>2020-05-31T08:57:22Z</time>
      </trkpt>
      <trkpt lat="43.98071" lon="5.17088">
        <ele>316</ele>
        <time>2020-05-31T08:57:32Z</time>
      </trkpt>
      <trkpt lat="43.98069" lon="5.17089">
        <ele>315</ele>
        <time>2020-05-31T08:58:22Z</time>
      </trkpt>
      <trkpt lat="43.98068" lon="5.1709">
        <ele>315</ele>
        <time>2020-05-31T08:58:23Z</time>
      </trkpt>
      <trkpt lat="43.98067" lon="5.17092">
        <ele>314</ele>
        <time>2020-05-31T08:58:24Z</time>
      </trkpt>
      <trkpt lat="43.98065" lon="5.17094">
        <ele>314</ele>
        <time>2020-05-31T08:58:25Z</time>
      </trkpt>
      <trkpt lat="43.98064" lon="5.17096">
        <ele>313</ele>
        <time>2020-05-31T08:58:26Z</time>
      </trkpt>
      <trkpt lat="43.98062" lon="5.17098">
        <ele>313</ele>
        <time>2020-05-31T08:58:27Z</time>
      </trkpt>
      <trkpt lat="43.98061" lon="5.171">
        <ele>312</ele>
        <time>2020-05-31T08:58:28Z</time>
      </trkpt>
      <trkpt lat="43.98058" lon="5.17101">
        <ele>312</ele>
        <time>2020-05-31T08:58:29Z</time>
      </trkpt>
      <trkpt lat="43.98056" lon="5.17101">
        <ele>311</ele>
        <time>2020-05-31T08:58:30Z</time>
      </trkpt>
      <trkpt lat="43.98054" lon="5.17101">
        <ele>311</ele>
        <time>2020-05-31T08:58:31Z</time>
      </trkpt>
      <trkpt lat="43.98052" lon="5.171">
        <ele>310</ele>
        <time>2020-05-31T08:58:32Z</time>
      </trkpt>
      <trkpt lat="43.98051" lon="5.17099">
        <ele>310</ele>
        <time>2020-05-31T08:58:33Z</time>
      </trkpt>
      <trkpt lat="43.98049" lon="5.17097">
        <ele>310</ele>
        <time>2020-05-31T08:58:34Z</time>
      </trkpt>
      <trkpt lat="43.98048" lon="5.17096">
        <ele>310</ele>
        <time>2020-05-31T08:58:35Z</time>
      </trkpt>
      <trkpt lat="43.98042" lon="5.17087">
        <ele>309</ele>
        <time>2020-05-31T08:58:41Z</time>
      </trkpt>
      <trkpt lat="43.98042" lon="5.17085">
        <ele>308</ele>
        <time>2020-05-31T08:58:42Z</time>
      </trkpt>
      <trkpt lat="43.9804" lon="5.17083">
        <ele>308</ele>
        <time>2020-05-31T08:58:43Z</time>
      </trkpt>
      <trkpt lat="43.98038" lon="5.17081">
        <ele>308</ele>
        <time>2020-05-31T08:58:44Z</time>
      </trkpt>
      <trkpt lat="43.98036" lon="5.17079">
        <ele>307</ele>
        <time>2020-05-31T08:58:45Z</time>
      </trkpt>
      <trkpt lat="43.98034" lon="5.17078">
        <ele>307</ele>
        <time>2020-05-31T08:58:46Z</time>
      </trkpt>
      <trkpt lat="43.98033" lon="5.17077">
        <ele>306</ele>
        <time>2020-05-31T08:58:47Z</time>
      </trkpt>
      <trkpt lat="43.98031" lon="5.17073">
        <ele>306</ele>
        <time>2020-05-31T08:58:51Z</time>
      </trkpt>
      <trkpt lat="43.98034" lon="5.17064">
        <ele>308</ele>
        <time>2020-05-31T08:59:01Z</time>
      </trkpt>
      <trkpt lat="43.98033" lon="5.17057">
        <ele>308</ele>
        <time>2020-05-31T08:59:11Z</time>
      </trkpt>
      <trkpt lat="43.98034" lon="5.1705">
        <ele>309</ele>
        <time>2020-05-31T08:59:18Z</time>
      </trkpt>
      <trkpt lat="43.98035" lon="5.17047">
        <ele>310</ele>
        <time>2020-05-31T08:59:19Z</time>
      </trkpt>
      <trkpt lat="43.98035" lon="5.17045">
        <ele>310</ele>
        <time>2020-05-31T08:59:20Z</time>
      </trkpt>
      <trkpt lat="43.98034" lon="5.17042">
        <ele>310</ele>
        <time>2020-05-31T08:59:22Z</time>
      </trkpt>
      <trkpt lat="43.98021" lon="5.17041">
        <ele>306</ele>
        <time>2020-05-31T08:59:31Z</time>
      </trkpt>
      <trkpt lat="43.98006" lon="5.17027">
        <ele>302</ele>
        <time>2020-05-31T08:59:39Z</time>
      </trkpt>
      <trkpt lat="43.97992" lon="5.16998">
        <ele>302</ele>
        <time>2020-05-31T08:59:49Z</time>
      </trkpt>
      <trkpt lat="43.97989" lon="5.16996">
        <ele>302</ele>
        <time>2020-05-31T08:59:50Z</time>
      </trkpt>
      <trkpt lat="43.97987" lon="5.16994">
        <ele>302</ele>
        <time>2020-05-31T08:59:51Z</time>
      </trkpt>
      <trkpt lat="43.97985" lon="5.16992">
        <ele>302</ele>
        <time>2020-05-31T08:59:52Z</time>
      </trkpt>
      <trkpt lat="43.97983" lon="5.1699">
        <ele>301</ele>
        <time>2020-05-31T08:59:53Z</time>
      </trkpt>
      <trkpt lat="43.97981" lon="5.16988">
        <ele>301</ele>
        <time>2020-05-31T08:59:54Z</time>
      </trkpt>
      <trkpt lat="43.9798" lon="5.16986">
        <ele>301</ele>
        <time>2020-05-31T08:59:55Z</time>
      </trkpt>
      <trkpt lat="43.97979" lon="5.16984">
        <ele>301</ele>
        <time>2020-05-31T08:59:56Z</time>
      </trkpt>
      <trkpt lat="43.97977" lon="5.16982">
        <ele>301</ele>
        <time>2020-05-31T08:59:57Z</time>
      </trkpt>
      <trkpt lat="43.97975" lon="5.16981">
        <ele>301</ele>
        <time>2020-05-31T08:59:58Z</time>
      </trkpt>
      <trkpt lat="43.97973" lon="5.1698">
        <ele>300</ele>
        <time>2020-05-31T08:59:59Z</time>
      </trkpt>
      <trkpt lat="43.97972" lon="5.16979">
        <ele>300</ele>
        <time>2020-05-31T09:00:00Z</time>
      </trkpt>
      <trkpt lat="43.97969" lon="5.16979">
        <ele>301</ele>
        <time>2020-05-31T09:00:01Z</time>
      </trkpt>
      <trkpt lat="43.97964" lon="5.16975">
        <ele>302</ele>
        <time>2020-05-31T09:00:05Z</time>
      </trkpt>
      <trkpt lat="43.97964" lon="5.16966">
        <ele>302</ele>
        <time>2020-05-31T09:00:09Z</time>
      </trkpt>
      <trkpt lat="43.97964" lon="5.16961">
        <ele>302</ele>
        <time>2020-05-31T09:00:11Z</time>
      </trkpt>
      <trkpt lat="43.97959" lon="5.16928">
        <ele>303</ele>
        <time>2020-05-31T09:00:25Z</time>
      </trkpt>
      <trkpt lat="43.97945" lon="5.16896">
        <ele>300</ele>
        <time>2020-05-31T09:00:36Z</time>
      </trkpt>
      <trkpt lat="43.97944" lon="5.16888">
        <ele>299</ele>
        <time>2020-05-31T09:00:39Z</time>
      </trkpt>
      <trkpt lat="43.97939" lon="5.16855">
        <ele>300</ele>
        <time>2020-05-31T09:00:49Z</time>
      </trkpt>
      <trkpt lat="43.97928" lon="5.1682">
        <ele>297</ele>
        <time>2020-05-31T09:00:59Z</time>
      </trkpt>
      <trkpt lat="43.9793" lon="5.16797">
        <ele>295</ele>
        <time>2020-05-31T09:01:10Z</time>
      </trkpt>
      <trkpt lat="43.97926" lon="5.1678">
        <ele>293</ele>
        <time>2020-05-31T09:01:22Z</time>
      </trkpt>
      <trkpt lat="43.97928" lon="5.16772">
        <ele>293</ele>
        <time>2020-05-31T09:01:30Z</time>
      </trkpt>
      <trkpt lat="43.97928" lon="5.1677">
        <ele>293</ele>
        <time>2020-05-31T09:01:31Z</time>
      </trkpt>
      <trkpt lat="43.97928" lon="5.16763">
        <ele>293</ele>
        <time>2020-05-31T09:01:34Z</time>
      </trkpt>
      <trkpt lat="43.97932" lon="5.16727">
        <ele>294</ele>
        <time>2020-05-31T09:01:45Z</time>
      </trkpt>
      <trkpt lat="43.97938" lon="5.16692">
        <ele>294</ele>
        <time>2020-05-31T09:01:54Z</time>
      </trkpt>
      <trkpt lat="43.97936" lon="5.16676">
        <ele>293</ele>
        <time>2020-05-31T09:01:59Z</time>
      </trkpt>
      <trkpt lat="43.97919" lon="5.16658">
        <ele>291</ele>
        <time>2020-05-31T09:02:08Z</time>
      </trkpt>
      <trkpt lat="43.97892" lon="5.1663">
        <ele>290</ele>
        <time>2020-05-31T09:02:20Z</time>
      </trkpt>
      <trkpt lat="43.9787" lon="5.16604">
        <ele>290</ele>
        <time>2020-05-31T09:02:32Z</time>
      </trkpt>
      <trkpt lat="43.9785" lon="5.16572">
        <ele>291</ele>
        <time>2020-05-31T09:02:45Z</time>
      </trkpt>
      <trkpt lat="43.97849" lon="5.16569">
        <ele>291</ele>
        <time>2020-05-31T09:02:46Z</time>
      </trkpt>
      <trkpt lat="43.97842" lon="5.16557">
        <ele>291</ele>
        <time>2020-05-31T09:02:59Z</time>
      </trkpt>
      <trkpt lat="43.97839" lon="5.16552">
        <ele>290</ele>
        <time>2020-05-31T09:03:15Z</time>
      </trkpt>
      <trkpt lat="43.97836" lon="5.16534">
        <ele>290</ele>
        <time>2020-05-31T09:03:23Z</time>
      </trkpt>
      <trkpt lat="43.97835" lon="5.16499">
        <ele>287</ele>
        <time>2020-05-31T09:03:36Z</time>
      </trkpt>
      <trkpt lat="43.97836" lon="5.16463">
        <ele>286</ele>
        <time>2020-05-31T09:03:47Z</time>
      </trkpt>
      <trkpt lat="43.97833" lon="5.16433">
        <ele>285</ele>
        <time>2020-05-31T09:03:57Z</time>
      </trkpt>
      <trkpt lat="43.97828" lon="5.16409">
        <ele>285</ele>
        <time>2020-05-31T09:04:06Z</time>
      </trkpt>
      <trkpt lat="43.97821" lon="5.16396">
        <ele>286</ele>
        <time>2020-05-31T09:04:11Z</time>
      </trkpt>
      <trkpt lat="43.97821" lon="5.16394">
        <ele>286</ele>
        <time>2020-05-31T09:04:12Z</time>
      </trkpt>
      <trkpt lat="43.97821" lon="5.16388">
        <ele>286</ele>
        <time>2020-05-31T09:04:15Z</time>
      </trkpt>
      <trkpt lat="43.97821" lon="5.16386">
        <ele>286</ele>
        <time>2020-05-31T09:04:16Z</time>
      </trkpt>
      <trkpt lat="43.97818" lon="5.16369">
        <ele>286</ele>
        <time>2020-05-31T09:04:23Z</time>
      </trkpt>
      <trkpt lat="43.97819" lon="5.16367">
        <ele>286</ele>
        <time>2020-05-31T09:04:24Z</time>
      </trkpt>
      <trkpt lat="43.97824" lon="5.16342">
        <ele>284</ele>
        <time>2020-05-31T09:04:33Z</time>
      </trkpt>
      <trkpt lat="43.97823" lon="5.16337">
        <ele>284</ele>
        <time>2020-05-31T09:04:35Z</time>
      </trkpt>
      <trkpt lat="43.97823" lon="5.16335">
        <ele>283</ele>
        <time>2020-05-31T09:04:36Z</time>
      </trkpt>
      <trkpt lat="43.97822" lon="5.16332">
        <ele>283</ele>
        <time>2020-05-31T09:04:37Z</time>
      </trkpt>
      <trkpt lat="43.97822" lon="5.1633">
        <ele>283</ele>
        <time>2020-05-31T09:04:38Z</time>
      </trkpt>
      <trkpt lat="43.97822" lon="5.16328">
        <ele>283</ele>
        <time>2020-05-31T09:04:39Z</time>
      </trkpt>
      <trkpt lat="43.97823" lon="5.16325">
        <ele>283</ele>
        <time>2020-05-31T09:04:40Z</time>
      </trkpt>
      <trkpt lat="43.97824" lon="5.16323">
        <ele>283</ele>
        <time>2020-05-31T09:04:41Z</time>
      </trkpt>
      <trkpt lat="43.97826" lon="5.16321">
        <ele>283</ele>
        <time>2020-05-31T09:04:42Z</time>
      </trkpt>
      <trkpt lat="43.97827" lon="5.16318">
        <ele>283</ele>
        <time>2020-05-31T09:04:43Z</time>
      </trkpt>
      <trkpt lat="43.97828" lon="5.16315">
        <ele>283</ele>
        <time>2020-05-31T09:04:44Z</time>
      </trkpt>
      <trkpt lat="43.97828" lon="5.16312">
        <ele>282</ele>
        <time>2020-05-31T09:04:45Z</time>
      </trkpt>
      <trkpt lat="43.97829" lon="5.16285">
        <ele>282</ele>
        <time>2020-05-31T09:04:54Z</time>
      </trkpt>
      <trkpt lat="43.9784" lon="5.16248">
        <ele>282</ele>
        <time>2020-05-31T09:05:05Z</time>
      </trkpt>
      <trkpt lat="43.9784" lon="5.16246">
        <ele>282</ele>
        <time>2020-05-31T09:05:06Z</time>
      </trkpt>
      <trkpt lat="43.9784" lon="5.16242">
        <ele>282</ele>
        <time>2020-05-31T09:05:07Z</time>
      </trkpt>
      <trkpt lat="43.9784" lon="5.16239">
        <ele>283</ele>
        <time>2020-05-31T09:05:08Z</time>
      </trkpt>
      <trkpt lat="43.97841" lon="5.16236">
        <ele>283</ele>
        <time>2020-05-31T09:05:09Z</time>
      </trkpt>
      <trkpt lat="43.97843" lon="5.16234">
        <ele>283</ele>
        <time>2020-05-31T09:05:10Z</time>
      </trkpt>
      <trkpt lat="43.97844" lon="5.16231">
        <ele>283</ele>
        <time>2020-05-31T09:05:11Z</time>
      </trkpt>
      <trkpt lat="43.97866" lon="5.16204">
        <ele>281</ele>
        <time>2020-05-31T09:05:22Z</time>
      </trkpt>
      <trkpt lat="43.97874" lon="5.16186">
        <ele>281</ele>
        <time>2020-05-31T09:05:31Z</time>
      </trkpt>
      <trkpt lat="43.97873" lon="5.16174">
        <ele>281</ele>
        <time>2020-05-31T09:05:37Z</time>
      </trkpt>
      <trkpt lat="43.97873" lon="5.16156">
        <ele>281</ele>
        <time>2020-05-31T09:05:42Z</time>
      </trkpt>
      <trkpt lat="43.97873" lon="5.16138">
        <ele>281</ele>
        <time>2020-05-31T09:05:51Z</time>
      </trkpt>
      <trkpt lat="43.97877" lon="5.16117">
        <ele>280</ele>
        <time>2020-05-31T09:06:00Z</time>
      </trkpt>
      <trkpt lat="43.97875" lon="5.16102">
        <ele>280</ele>
        <time>2020-05-31T09:06:08Z</time>
      </trkpt>
      <trkpt lat="43.97874" lon="5.161">
        <ele>280</ele>
        <time>2020-05-31T09:06:09Z</time>
      </trkpt>
      <trkpt lat="43.97866" lon="5.16086">
        <ele>280</ele>
        <time>2020-05-31T09:06:16Z</time>
      </trkpt>
      <trkpt lat="43.97852" lon="5.16065">
        <ele>280</ele>
        <time>2020-05-31T09:06:25Z</time>
      </trkpt>
      <trkpt lat="43.9783" lon="5.16043">
        <ele>278</ele>
        <time>2020-05-31T09:06:36Z</time>
      </trkpt>
      <trkpt lat="43.97813" lon="5.16013">
        <ele>277</ele>
        <time>2020-05-31T09:06:46Z</time>
      </trkpt>
      <trkpt lat="43.97799" lon="5.15977">
        <ele>277</ele>
        <time>2020-05-31T09:06:56Z</time>
      </trkpt>
      <trkpt lat="43.97797" lon="5.15954">
        <ele>278</ele>
        <time>2020-05-31T09:07:06Z</time>
      </trkpt>
      <trkpt lat="43.97803" lon="5.15932">
        <ele>275</ele>
        <time>2020-05-31T09:07:14Z</time>
      </trkpt>
      <trkpt lat="43.97804" lon="5.15927">
        <ele>275</ele>
        <time>2020-05-31T09:07:42Z</time>
      </trkpt>
      <trkpt lat="43.97808" lon="5.15921">
        <ele>274</ele>
        <time>2020-05-31T09:07:57Z</time>
      </trkpt>
      <trkpt lat="43.97807" lon="5.15923">
        <ele>274</ele>
        <time>2020-05-31T09:08:14Z</time>
      </trkpt>
      <trkpt lat="43.97817" lon="5.15911">
        <ele>273</ele>
        <time>2020-05-31T09:08:39Z</time>
      </trkpt>
      <trkpt lat="43.97829" lon="5.15894">
        <ele>271</ele>
        <time>2020-05-31T09:08:48Z</time>
      </trkpt>
      <trkpt lat="43.97841" lon="5.15876">
        <ele>271</ele>
        <time>2020-05-31T09:08:57Z</time>
      </trkpt>
      <trkpt lat="43.97853" lon="5.15862">
        <ele>270</ele>
        <time>2020-05-31T09:09:06Z</time>
      </trkpt>
      <trkpt lat="43.97871" lon="5.15848">
        <ele>272</ele>
        <time>2020-05-31T09:09:16Z</time>
      </trkpt>
      <trkpt lat="43.97881" lon="5.15845">
        <ele>271</ele>
        <time>2020-05-31T09:09:21Z</time>
      </trkpt>
      <trkpt lat="43.97883" lon="5.15844">
        <ele>271</ele>
        <time>2020-05-31T09:09:22Z</time>
      </trkpt>
      <trkpt lat="43.97885" lon="5.15844">
        <ele>270</ele>
        <time>2020-05-31T09:09:23Z</time>
      </trkpt>
      <trkpt lat="43.97887" lon="5.15843">
        <ele>270</ele>
        <time>2020-05-31T09:09:24Z</time>
      </trkpt>
      <trkpt lat="43.97889" lon="5.15842">
        <ele>270</ele>
        <time>2020-05-31T09:09:25Z</time>
      </trkpt>
      <trkpt lat="43.9789" lon="5.15841">
        <ele>270</ele>
        <time>2020-05-31T09:09:26Z</time>
      </trkpt>
      <trkpt lat="43.97898" lon="5.1584">
        <ele>270</ele>
        <time>2020-05-31T09:09:30Z</time>
      </trkpt>
      <trkpt lat="43.979" lon="5.15842">
        <ele>269</ele>
        <time>2020-05-31T09:09:31Z</time>
      </trkpt>
      <trkpt lat="43.97908" lon="5.15848">
        <ele>269</ele>
        <time>2020-05-31T09:09:35Z</time>
      </trkpt>
      <trkpt lat="43.9791" lon="5.15848">
        <ele>269</ele>
        <time>2020-05-31T09:09:36Z</time>
      </trkpt>
      <trkpt lat="43.97913" lon="5.15849">
        <ele>269</ele>
        <time>2020-05-31T09:09:37Z</time>
      </trkpt>
      <trkpt lat="43.97916" lon="5.15849">
        <ele>269</ele>
        <time>2020-05-31T09:09:38Z</time>
      </trkpt>
      <trkpt lat="43.9792" lon="5.15847">
        <ele>269</ele>
        <time>2020-05-31T09:09:40Z</time>
      </trkpt>
      <trkpt lat="43.97922" lon="5.15844">
        <ele>269</ele>
        <time>2020-05-31T09:09:41Z</time>
      </trkpt>
      <trkpt lat="43.97923" lon="5.15843">
        <ele>269</ele>
        <time>2020-05-31T09:09:42Z</time>
      </trkpt>
      <trkpt lat="43.97926" lon="5.15841">
        <ele>269</ele>
        <time>2020-05-31T09:09:43Z</time>
      </trkpt>
      <trkpt lat="43.97929" lon="5.1584">
        <ele>269</ele>
        <time>2020-05-31T09:09:44Z</time>
      </trkpt>
      <trkpt lat="43.97931" lon="5.15839">
        <ele>269</ele>
        <time>2020-05-31T09:09:45Z</time>
      </trkpt>
      <trkpt lat="43.97933" lon="5.15838">
        <ele>269</ele>
        <time>2020-05-31T09:09:46Z</time>
      </trkpt>
      <trkpt lat="43.97941" lon="5.15832">
        <ele>268</ele>
        <time>2020-05-31T09:09:50Z</time>
      </trkpt>
      <trkpt lat="43.97941" lon="5.1583">
        <ele>268</ele>
        <time>2020-05-31T09:09:51Z</time>
      </trkpt>
      <trkpt lat="43.97942" lon="5.15827">
        <ele>268</ele>
        <time>2020-05-31T09:09:52Z</time>
      </trkpt>
      <trkpt lat="43.97942" lon="5.15825">
        <ele>268</ele>
        <time>2020-05-31T09:09:53Z</time>
      </trkpt>
      <trkpt lat="43.97941" lon="5.15791">
        <ele>267</ele>
        <time>2020-05-31T09:10:04Z</time>
      </trkpt>
      <trkpt lat="43.97936" lon="5.1575">
        <ele>268</ele>
        <time>2020-05-31T09:10:15Z</time>
      </trkpt>
      <trkpt lat="43.97941" lon="5.15701">
        <ele>261</ele>
        <time>2020-05-31T09:10:28Z</time>
      </trkpt>
      <trkpt lat="43.97953" lon="5.1567">
        <ele>260</ele>
        <time>2020-05-31T09:10:38Z</time>
      </trkpt>
      <trkpt lat="43.97968" lon="5.15645">
        <ele>261</ele>
        <time>2020-05-31T09:10:47Z</time>
      </trkpt>
      <trkpt lat="43.97988" lon="5.15621">
        <ele>262</ele>
        <time>2020-05-31T09:10:57Z</time>
      </trkpt>
      <trkpt lat="43.98018" lon="5.15607">
        <ele>263</ele>
        <time>2020-05-31T09:11:09Z</time>
      </trkpt>
      <trkpt lat="43.98042" lon="5.15592">
        <ele>262</ele>
        <time>2020-05-31T09:11:21Z</time>
      </trkpt>
      <trkpt lat="43.9806" lon="5.15573">
        <ele>261</ele>
        <time>2020-05-31T09:11:35Z</time>
      </trkpt>
      <trkpt lat="43.98078" lon="5.15548">
        <ele>260</ele>
        <time>2020-05-31T09:11:49Z</time>
      </trkpt>
      <trkpt lat="43.98097" lon="5.15521">
        <ele>261</ele>
        <time>2020-05-31T09:12:03Z</time>
      </trkpt>
      <trkpt lat="43.98117" lon="5.15496">
        <ele>261</ele>
        <time>2020-05-31T09:12:14Z</time>
      </trkpt>
      <trkpt lat="43.98138" lon="5.15475">
        <ele>260</ele>
        <time>2020-05-31T09:12:25Z</time>
      </trkpt>
      <trkpt lat="43.98165" lon="5.15455">
        <ele>258</ele>
        <time>2020-05-31T09:12:39Z</time>
      </trkpt>
      <trkpt lat="43.98192" lon="5.15447">
        <ele>255</ele>
        <time>2020-05-31T09:12:52Z</time>
      </trkpt>
      <trkpt lat="43.98223" lon="5.1544">
        <ele>251</ele>
        <time>2020-05-31T09:13:06Z</time>
      </trkpt>
      <trkpt lat="43.98237" lon="5.15437">
        <ele>250</ele>
        <time>2020-05-31T09:13:12Z</time>
      </trkpt>
      <trkpt lat="43.98239" lon="5.15436">
        <ele>250</ele>
        <time>2020-05-31T09:13:13Z</time>
      </trkpt>
      <trkpt lat="43.9824" lon="5.15434">
        <ele>250</ele>
        <time>2020-05-31T09:13:14Z</time>
      </trkpt>
      <trkpt lat="43.98241" lon="5.15431">
        <ele>250</ele>
        <time>2020-05-31T09:13:15Z</time>
      </trkpt>
      <trkpt lat="43.98242" lon="5.15429">
        <ele>250</ele>
        <time>2020-05-31T09:13:16Z</time>
      </trkpt>
      <trkpt lat="43.98243" lon="5.15426">
        <ele>250</ele>
        <time>2020-05-31T09:13:25Z</time>
      </trkpt>
      <trkpt lat="43.98243" lon="5.15425">
        <ele>250</ele>
        <time>2020-05-31T09:13:40Z</time>
      </trkpt>
      <trkpt lat="43.98239" lon="5.15427">
        <ele>251</ele>
        <time>2020-05-31T09:13:55Z</time>
      </trkpt>
      <trkpt lat="43.98234" lon="5.15428">
        <ele>251</ele>
        <time>2020-05-31T09:14:01Z</time>
      </trkpt>
      <trkpt lat="43.98232" lon="5.15428">
        <ele>252</ele>
        <time>2020-05-31T09:14:02Z</time>
      </trkpt>
      <trkpt lat="43.98221" lon="5.15427">
        <ele>253</ele>
        <time>2020-05-31T09:14:10Z</time>
      </trkpt>
      <trkpt lat="43.98219" lon="5.15425">
        <ele>254</ele>
        <time>2020-05-31T09:14:13Z</time>
      </trkpt>
      <trkpt lat="43.98217" lon="5.15424">
        <ele>255</ele>
        <time>2020-05-31T09:14:14Z</time>
      </trkpt>
      <trkpt lat="43.98204" lon="5.1542">
        <ele>258</ele>
        <time>2020-05-31T09:14:22Z</time>
      </trkpt>
      <trkpt lat="43.98183" lon="5.15418">
        <ele>263</ele>
        <time>2020-05-31T09:14:32Z</time>
      </trkpt>
      <trkpt lat="43.98181" lon="5.15417">
        <ele>263</ele>
        <time>2020-05-31T09:14:33Z</time>
      </trkpt>
      <trkpt lat="43.98164" lon="5.15415">
        <ele>266</ele>
        <time>2020-05-31T09:14:42Z</time>
      </trkpt>
      <trkpt lat="43.98162" lon="5.15416">
        <ele>266</ele>
        <time>2020-05-31T09:14:43Z</time>
      </trkpt>
      <trkpt lat="43.98146" lon="5.15418">
        <ele>269</ele>
        <time>2020-05-31T09:14:52Z</time>
      </trkpt>
      <trkpt lat="43.98122" lon="5.15422">
        <ele>274</ele>
        <time>2020-05-31T09:15:03Z</time>
      </trkpt>
      <trkpt lat="43.98098" lon="5.15429">
        <ele>278</ele>
        <time>2020-05-31T09:15:15Z</time>
      </trkpt>
      <trkpt lat="43.98085" lon="5.15428">
        <ele>281</ele>
        <time>2020-05-31T09:15:23Z</time>
      </trkpt>
      <trkpt lat="43.9807" lon="5.1543">
        <ele>283</ele>
        <time>2020-05-31T09:15:32Z</time>
      </trkpt>
      <trkpt lat="43.98056" lon="5.15431">
        <ele>286</ele>
        <time>2020-05-31T09:15:40Z</time>
      </trkpt>
      <trkpt lat="43.9804" lon="5.15429">
        <ele>291</ele>
        <time>2020-05-31T09:15:49Z</time>
      </trkpt>
      <trkpt lat="43.98029" lon="5.15426">
        <ele>295</ele>
        <time>2020-05-31T09:15:56Z</time>
      </trkpt>
      <trkpt lat="43.98012" lon="5.15431">
        <ele>298</ele>
        <time>2020-05-31T09:16:05Z</time>
      </trkpt>
      <trkpt lat="43.98" lon="5.15446">
        <ele>299</ele>
        <time>2020-05-31T09:16:14Z</time>
      </trkpt>
      <trkpt lat="43.97984" lon="5.15448">
        <ele>300</ele>
        <time>2020-05-31T09:16:22Z</time>
      </trkpt>
      <trkpt lat="43.97964" lon="5.15437">
        <ele>303</ele>
        <time>2020-05-31T09:16:33Z</time>
      </trkpt>
      <trkpt lat="43.97939" lon="5.15421">
        <ele>306</ele>
        <time>2020-05-31T09:16:46Z</time>
      </trkpt>
      <trkpt lat="43.97935" lon="5.15418">
        <ele>306</ele>
        <time>2020-05-31T09:17:16Z</time>
      </trkpt>
      <trkpt lat="43.97933" lon="5.15412">
        <ele>308</ele>
        <time>2020-05-31T09:19:52Z</time>
      </trkpt>
      <trkpt lat="43.97923" lon="5.15409">
        <ele>309</ele>
        <time>2020-05-31T09:21:23Z</time>
      </trkpt>
      <trkpt lat="43.97908" lon="5.15402">
        <ele>312</ele>
        <time>2020-05-31T09:21:31Z</time>
      </trkpt>
      <trkpt lat="43.97887" lon="5.15399">
        <ele>314</ele>
        <time>2020-05-31T09:21:42Z</time>
      </trkpt>
      <trkpt lat="43.97885" lon="5.15399">
        <ele>314</ele>
        <time>2020-05-31T09:21:43Z</time>
      </trkpt>
      <trkpt lat="43.97883" lon="5.15399">
        <ele>315</ele>
        <time>2020-05-31T09:21:44Z</time>
      </trkpt>
      <trkpt lat="43.97881" lon="5.15399">
        <ele>315</ele>
        <time>2020-05-31T09:21:45Z</time>
      </trkpt>
      <trkpt lat="43.97879" lon="5.15398">
        <ele>315</ele>
        <time>2020-05-31T09:21:46Z</time>
      </trkpt>
      <trkpt lat="43.97878" lon="5.15397">
        <ele>315</ele>
        <time>2020-05-31T09:21:47Z</time>
      </trkpt>
      <trkpt lat="43.97861" lon="5.15388">
        <ele>318</ele>
        <time>2020-05-31T09:21:57Z</time>
      </trkpt>
      <trkpt lat="43.97842" lon="5.15378">
        <ele>323</ele>
        <time>2020-05-31T09:22:07Z</time>
      </trkpt>
      <trkpt lat="43.97831" lon="5.15378">
        <ele>325</ele>
        <time>2020-05-31T09:22:13Z</time>
      </trkpt>
      <trkpt lat="43.97829" lon="5.15378">
        <ele>325</ele>
        <time>2020-05-31T09:22:14Z</time>
      </trkpt>
      <trkpt lat="43.97828" lon="5.15377">
        <ele>326</ele>
        <time>2020-05-31T09:22:15Z</time>
      </trkpt>
      <trkpt lat="43.97826" lon="5.15376">
        <ele>326</ele>
        <time>2020-05-31T09:22:16Z</time>
      </trkpt>
      <trkpt lat="43.97825" lon="5.15375">
        <ele>327</ele>
        <time>2020-05-31T09:22:17Z</time>
      </trkpt>
      <trkpt lat="43.97813" lon="5.15367">
        <ele>331</ele>
        <time>2020-05-31T09:22:25Z</time>
      </trkpt>
      <trkpt lat="43.97808" lon="5.15362">
        <ele>332</ele>
        <time>2020-05-31T09:22:29Z</time>
      </trkpt>
      <trkpt lat="43.97807" lon="5.1536">
        <ele>333</ele>
        <time>2020-05-31T09:22:30Z</time>
      </trkpt>
      <trkpt lat="43.97805" lon="5.15358">
        <ele>334</ele>
        <time>2020-05-31T09:22:31Z</time>
      </trkpt>
      <trkpt lat="43.97804" lon="5.15356">
        <ele>334</ele>
        <time>2020-05-31T09:22:32Z</time>
      </trkpt>
      <trkpt lat="43.97803" lon="5.15355">
        <ele>335</ele>
        <time>2020-05-31T09:22:33Z</time>
      </trkpt>
      <trkpt lat="43.97802" lon="5.15353">
        <ele>335</ele>
        <time>2020-05-31T09:22:34Z</time>
      </trkpt>
      <trkpt lat="43.97801" lon="5.15352">
        <ele>335</ele>
        <time>2020-05-31T09:22:35Z</time>
      </trkpt>
      <trkpt lat="43.97794" lon="5.15349">
        <ele>337</ele>
        <time>2020-05-31T09:22:43Z</time>
      </trkpt>
      <trkpt lat="43.9779" lon="5.15348">
        <ele>337</ele>
        <time>2020-05-31T09:22:47Z</time>
      </trkpt>
      <trkpt lat="43.97778" lon="5.15349">
        <ele>339</ele>
        <time>2020-05-31T09:22:56Z</time>
      </trkpt>
      <trkpt lat="43.97775" lon="5.15348">
        <ele>339</ele>
        <time>2020-05-31T09:22:58Z</time>
      </trkpt>
      <trkpt lat="43.97773" lon="5.15346">
        <ele>339</ele>
        <time>2020-05-31T09:22:59Z</time>
      </trkpt>
      <trkpt lat="43.97772" lon="5.15345">
        <ele>339</ele>
        <time>2020-05-31T09:23:00Z</time>
      </trkpt>
      <trkpt lat="43.9777" lon="5.15343">
        <ele>340</ele>
        <time>2020-05-31T09:23:05Z</time>
      </trkpt>
      <trkpt lat="43.97769" lon="5.15342">
        <ele>340</ele>
        <time>2020-05-31T09:23:06Z</time>
      </trkpt>
      <trkpt lat="43.97768" lon="5.15337">
        <ele>340</ele>
        <time>2020-05-31T09:23:14Z</time>
      </trkpt>
      <trkpt lat="43.97762" lon="5.15331">
        <ele>342</ele>
        <time>2020-05-31T09:23:20Z</time>
      </trkpt>
      <trkpt lat="43.9776" lon="5.15329">
        <ele>342</ele>
        <time>2020-05-31T09:23:21Z</time>
      </trkpt>
      <trkpt lat="43.97758" lon="5.15328">
        <ele>342</ele>
        <time>2020-05-31T09:23:22Z</time>
      </trkpt>
      <trkpt lat="43.97757" lon="5.15327">
        <ele>342</ele>
        <time>2020-05-31T09:23:23Z</time>
      </trkpt>
      <trkpt lat="43.97756" lon="5.15325">
        <ele>343</ele>
        <time>2020-05-31T09:23:24Z</time>
      </trkpt>
      <trkpt lat="43.97755" lon="5.15324">
        <ele>343</ele>
        <time>2020-05-31T09:23:25Z</time>
      </trkpt>
      <trkpt lat="43.97749" lon="5.15313">
        <ele>345</ele>
        <time>2020-05-31T09:23:34Z</time>
      </trkpt>
      <trkpt lat="43.97741" lon="5.15303">
        <ele>348</ele>
        <time>2020-05-31T09:23:47Z</time>
      </trkpt>
      <trkpt lat="43.97732" lon="5.15294">
        <ele>351</ele>
        <time>2020-05-31T09:23:55Z</time>
      </trkpt>
      <trkpt lat="43.97724" lon="5.15278">
        <ele>355</ele>
        <time>2020-05-31T09:24:03Z</time>
      </trkpt>
      <trkpt lat="43.97723" lon="5.15276">
        <ele>356</ele>
        <time>2020-05-31T09:24:04Z</time>
      </trkpt>
      <trkpt lat="43.97721" lon="5.15273">
        <ele>357</ele>
        <time>2020-05-31T09:24:05Z</time>
      </trkpt>
      <trkpt lat="43.9772" lon="5.15271">
        <ele>358</ele>
        <time>2020-05-31T09:24:06Z</time>
      </trkpt>
      <trkpt lat="43.97719" lon="5.15269">
        <ele>358</ele>
        <time>2020-05-31T09:24:07Z</time>
      </trkpt>
      <trkpt lat="43.97716" lon="5.15263">
        <ele>360</ele>
        <time>2020-05-31T09:24:10Z</time>
      </trkpt>
      <trkpt lat="43.97714" lon="5.15262">
        <ele>361</ele>
        <time>2020-05-31T09:24:11Z</time>
      </trkpt>
      <trkpt lat="43.97713" lon="5.1526">
        <ele>361</ele>
        <time>2020-05-31T09:24:12Z</time>
      </trkpt>
      <trkpt lat="43.97703" lon="5.15249">
        <ele>364</ele>
        <time>2020-05-31T09:24:21Z</time>
      </trkpt>
      <trkpt lat="43.97694" lon="5.15233">
        <ele>367</ele>
        <time>2020-05-31T09:24:28Z</time>
      </trkpt>
      <trkpt lat="43.97694" lon="5.15231">
        <ele>367</ele>
        <time>2020-05-31T09:24:29Z</time>
      </trkpt>
      <trkpt lat="43.97688" lon="5.15217">
        <ele>369</ele>
        <time>2020-05-31T09:24:39Z</time>
      </trkpt>
      <trkpt lat="43.97686" lon="5.15213">
        <ele>369</ele>
        <time>2020-05-31T09:26:51Z</time>
      </trkpt>
      <trkpt lat="43.97685" lon="5.15207">
        <ele>370</ele>
        <time>2020-05-31T09:27:25Z</time>
      </trkpt>
      <trkpt lat="43.97683" lon="5.15195">
        <ele>370</ele>
        <time>2020-05-31T09:27:35Z</time>
      </trkpt>
      <trkpt lat="43.97673" lon="5.15184">
        <ele>370</ele>
        <time>2020-05-31T09:27:45Z</time>
      </trkpt>
      <trkpt lat="43.97666" lon="5.15178">
        <ele>371</ele>
        <time>2020-05-31T09:27:50Z</time>
      </trkpt>
      <trkpt lat="43.97664" lon="5.15177">
        <ele>371</ele>
        <time>2020-05-31T09:27:52Z</time>
      </trkpt>
      <trkpt lat="43.97663" lon="5.15177">
        <ele>371</ele>
        <time>2020-05-31T09:27:53Z</time>
      </trkpt>
      <trkpt lat="43.97661" lon="5.15176">
        <ele>372</ele>
        <time>2020-05-31T09:27:54Z</time>
      </trkpt>
      <trkpt lat="43.9766" lon="5.15176">
        <ele>372</ele>
        <time>2020-05-31T09:27:55Z</time>
      </trkpt>
      <trkpt lat="43.97658" lon="5.15176">
        <ele>372</ele>
        <time>2020-05-31T09:27:56Z</time>
      </trkpt>
      <trkpt lat="43.97644" lon="5.15173">
        <ele>375</ele>
        <time>2020-05-31T09:28:07Z</time>
      </trkpt>
      <trkpt lat="43.97635" lon="5.15169">
        <ele>377</ele>
        <time>2020-05-31T09:28:17Z</time>
      </trkpt>
      <trkpt lat="43.97627" lon="5.15168">
        <ele>379</ele>
        <time>2020-05-31T09:28:27Z</time>
      </trkpt>
      <trkpt lat="43.97617" lon="5.15165">
        <ele>382</ele>
        <time>2020-05-31T09:28:41Z</time>
      </trkpt>
      <trkpt lat="43.97611" lon="5.15162">
        <ele>384</ele>
        <time>2020-05-31T09:28:51Z</time>
      </trkpt>
      <trkpt lat="43.97602" lon="5.15157">
        <ele>386</ele>
        <time>2020-05-31T09:29:01Z</time>
      </trkpt>
      <trkpt lat="43.97594" lon="5.15155">
        <ele>388</ele>
        <time>2020-05-31T09:29:10Z</time>
      </trkpt>
      <trkpt lat="43.97591" lon="5.15156">
        <ele>389</ele>
        <time>2020-05-31T09:29:18Z</time>
      </trkpt>
      <trkpt lat="43.97586" lon="5.15162">
        <ele>391</ele>
        <time>2020-05-31T09:29:54Z</time>
      </trkpt>
      <trkpt lat="43.9758" lon="5.15162">
        <ele>393</ele>
        <time>2020-05-31T09:30:03Z</time>
      </trkpt>
      <trkpt lat="43.97576" lon="5.15161">
        <ele>394</ele>
        <time>2020-05-31T09:30:06Z</time>
      </trkpt>
      <trkpt lat="43.97567" lon="5.15159">
        <ele>396</ele>
        <time>2020-05-31T09:30:17Z</time>
      </trkpt>
      <trkpt lat="43.97564" lon="5.15159">
        <ele>397</ele>
        <time>2020-05-31T09:30:23Z</time>
      </trkpt>
      <trkpt lat="43.97562" lon="5.15159">
        <ele>398</ele>
        <time>2020-05-31T09:30:24Z</time>
      </trkpt>
      <trkpt lat="43.97561" lon="5.15159">
        <ele>398</ele>
        <time>2020-05-31T09:30:25Z</time>
      </trkpt>
      <trkpt lat="43.97555" lon="5.15161">
        <ele>400</ele>
        <time>2020-05-31T09:30:34Z</time>
      </trkpt>
      <trkpt lat="43.9755" lon="5.15161">
        <ele>401</ele>
        <time>2020-05-31T09:30:41Z</time>
      </trkpt>
      <trkpt lat="43.97547" lon="5.15161">
        <ele>402</ele>
        <time>2020-05-31T09:30:43Z</time>
      </trkpt>
      <trkpt lat="43.97546" lon="5.15161">
        <ele>402</ele>
        <time>2020-05-31T09:30:44Z</time>
      </trkpt>
      <trkpt lat="43.97543" lon="5.15161">
        <ele>403</ele>
        <time>2020-05-31T09:30:47Z</time>
      </trkpt>
      <trkpt lat="43.97534" lon="5.15148">
        <ele>406</ele>
        <time>2020-05-31T09:30:59Z</time>
      </trkpt>
      <trkpt lat="43.97523" lon="5.15135">
        <ele>409</ele>
        <time>2020-05-31T09:31:10Z</time>
      </trkpt>
      <trkpt lat="43.97522" lon="5.15133">
        <ele>409</ele>
        <time>2020-05-31T09:31:13Z</time>
      </trkpt>
      <trkpt lat="43.97521" lon="5.15132">
        <ele>409</ele>
        <time>2020-05-31T09:31:14Z</time>
      </trkpt>
      <trkpt lat="43.9752" lon="5.15131">
        <ele>409</ele>
        <time>2020-05-31T09:31:15Z</time>
      </trkpt>
      <trkpt lat="43.9751" lon="5.15119">
        <ele>410</ele>
        <time>2020-05-31T09:31:28Z</time>
      </trkpt>
      <trkpt lat="43.97496" lon="5.15114">
        <ele>413</ele>
        <time>2020-05-31T09:31:41Z</time>
      </trkpt>
      <trkpt lat="43.97489" lon="5.15112">
        <ele>414</ele>
        <time>2020-05-31T09:31:47Z</time>
      </trkpt>
      <trkpt lat="43.97479" lon="5.15115">
        <ele>416</ele>
        <time>2020-05-31T09:31:57Z</time>
      </trkpt>
      <trkpt lat="43.97466" lon="5.15119">
        <ele>418</ele>
        <time>2020-05-31T09:32:07Z</time>
      </trkpt>
      <trkpt lat="43.97465" lon="5.15118">
        <ele>418</ele>
        <time>2020-05-31T09:32:08Z</time>
      </trkpt>
      <trkpt lat="43.97463" lon="5.15118">
        <ele>418</ele>
        <time>2020-05-31T09:32:09Z</time>
      </trkpt>
      <trkpt lat="43.97455" lon="5.15117">
        <ele>419</ele>
        <time>2020-05-31T09:32:19Z</time>
      </trkpt>
      <trkpt lat="43.97454" lon="5.15118">
        <ele>419</ele>
        <time>2020-05-31T09:32:35Z</time>
      </trkpt>
      <trkpt lat="43.97451" lon="5.15115">
        <ele>419</ele>
        <time>2020-05-31T09:32:39Z</time>
      </trkpt>
      <trkpt lat="43.9745" lon="5.15113">
        <ele>419</ele>
        <time>2020-05-31T09:32:48Z</time>
      </trkpt>
      <trkpt lat="43.97452" lon="5.15111">
        <ele>419</ele>
        <time>2020-05-31T09:36:12Z</time>
      </trkpt>
      <trkpt lat="43.97455" lon="5.15102">
        <ele>419</ele>
        <time>2020-05-31T09:36:17Z</time>
      </trkpt>
      <trkpt lat="43.97456" lon="5.15099">
        <ele>419</ele>
        <time>2020-05-31T09:36:18Z</time>
      </trkpt>
      <trkpt lat="43.97457" lon="5.15097">
        <ele>419</ele>
        <time>2020-05-31T09:36:19Z</time>
      </trkpt>
      <trkpt lat="43.97458" lon="5.15094">
        <ele>419</ele>
        <time>2020-05-31T09:36:20Z</time>
      </trkpt>
      <trkpt lat="43.97459" lon="5.15092">
        <ele>418</ele>
        <time>2020-05-31T09:36:21Z</time>
      </trkpt>
      <trkpt lat="43.9746" lon="5.1509">
        <ele>418</ele>
        <time>2020-05-31T09:36:22Z</time>
      </trkpt>
      <trkpt lat="43.97462" lon="5.15088">
        <ele>418</ele>
        <time>2020-05-31T09:36:23Z</time>
      </trkpt>
      <trkpt lat="43.97464" lon="5.15087">
        <ele>418</ele>
        <time>2020-05-31T09:36:24Z</time>
      </trkpt>
      <trkpt lat="43.97466" lon="5.15085">
        <ele>418</ele>
        <time>2020-05-31T09:36:25Z</time>
      </trkpt>
      <trkpt lat="43.97467" lon="5.15084">
        <ele>418</ele>
        <time>2020-05-31T09:36:26Z</time>
      </trkpt>
      <trkpt lat="43.97469" lon="5.15082">
        <ele>417</ele>
        <time>2020-05-31T09:36:27Z</time>
      </trkpt>
      <trkpt lat="43.97471" lon="5.1508">
        <ele>417</ele>
        <time>2020-05-31T09:36:28Z</time>
      </trkpt>
      <trkpt lat="43.97481" lon="5.15055">
        <ele>416</ele>
        <time>2020-05-31T09:36:37Z</time>
      </trkpt>
      <trkpt lat="43.97488" lon="5.15031">
        <ele>414</ele>
        <time>2020-05-31T09:36:46Z</time>
      </trkpt>
      <trkpt lat="43.97494" lon="5.15">
        <ele>412</ele>
        <time>2020-05-31T09:36:56Z</time>
      </trkpt>
      <trkpt lat="43.97498" lon="5.14969">
        <ele>410</ele>
        <time>2020-05-31T09:37:06Z</time>
      </trkpt>
      <trkpt lat="43.97499" lon="5.14939">
        <ele>409</ele>
        <time>2020-05-31T09:37:16Z</time>
      </trkpt>
      <trkpt lat="43.97498" lon="5.14935">
        <ele>408</ele>
        <time>2020-05-31T09:37:23Z</time>
      </trkpt>
      <trkpt lat="43.97497" lon="5.14934">
        <ele>408</ele>
        <time>2020-05-31T09:37:25Z</time>
      </trkpt>
      <trkpt lat="43.97496" lon="5.14933">
        <ele>408</ele>
        <time>2020-05-31T09:37:26Z</time>
      </trkpt>
      <trkpt lat="43.97494" lon="5.14932">
        <ele>408</ele>
        <time>2020-05-31T09:37:27Z</time>
      </trkpt>
      <trkpt lat="43.97493" lon="5.14931">
        <ele>408</ele>
        <time>2020-05-31T09:37:28Z</time>
      </trkpt>
      <trkpt lat="43.97491" lon="5.1493">
        <ele>408</ele>
        <time>2020-05-31T09:37:29Z</time>
      </trkpt>
      <trkpt lat="43.97489" lon="5.14929">
        <ele>408</ele>
        <time>2020-05-31T09:37:30Z</time>
      </trkpt>
      <trkpt lat="43.97469" lon="5.14918">
        <ele>409</ele>
        <time>2020-05-31T09:37:40Z</time>
      </trkpt>
      <trkpt lat="43.97462" lon="5.14916">
        <ele>410</ele>
        <time>2020-05-31T09:37:43Z</time>
      </trkpt>
      <trkpt lat="43.9746" lon="5.14915">
        <ele>410</ele>
        <time>2020-05-31T09:37:44Z</time>
      </trkpt>
      <trkpt lat="43.97459" lon="5.14913">
        <ele>410</ele>
        <time>2020-05-31T09:37:45Z</time>
      </trkpt>
      <trkpt lat="43.97457" lon="5.14911">
        <ele>410</ele>
        <time>2020-05-31T09:37:46Z</time>
      </trkpt>
      <trkpt lat="43.97456" lon="5.14909">
        <ele>410</ele>
        <time>2020-05-31T09:37:47Z</time>
      </trkpt>
      <trkpt lat="43.97455" lon="5.14907">
        <ele>410</ele>
        <time>2020-05-31T09:37:48Z</time>
      </trkpt>
      <trkpt lat="43.97454" lon="5.14905">
        <ele>410</ele>
        <time>2020-05-31T09:37:49Z</time>
      </trkpt>
      <trkpt lat="43.97449" lon="5.14894">
        <ele>410</ele>
        <time>2020-05-31T09:37:53Z</time>
      </trkpt>
      <trkpt lat="43.97448" lon="5.14892">
        <ele>410</ele>
        <time>2020-05-31T09:37:54Z</time>
      </trkpt>
      <trkpt lat="43.97446" lon="5.14889">
        <ele>410</ele>
        <time>2020-05-31T09:37:55Z</time>
      </trkpt>
      <trkpt lat="43.97445" lon="5.14887">
        <ele>410</ele>
        <time>2020-05-31T09:37:56Z</time>
      </trkpt>
      <trkpt lat="43.97444" lon="5.14884">
        <ele>410</ele>
        <time>2020-05-31T09:37:57Z</time>
      </trkpt>
      <trkpt lat="43.97443" lon="5.14882">
        <ele>409</ele>
        <time>2020-05-31T09:37:58Z</time>
      </trkpt>
      <trkpt lat="43.97441" lon="5.14879">
        <ele>409</ele>
        <time>2020-05-31T09:37:59Z</time>
      </trkpt>
      <trkpt lat="43.9744" lon="5.14877">
        <ele>409</ele>
        <time>2020-05-31T09:38:00Z</time>
      </trkpt>
      <trkpt lat="43.9744" lon="5.14874">
        <ele>409</ele>
        <time>2020-05-31T09:38:01Z</time>
      </trkpt>
      <trkpt lat="43.97439" lon="5.14871">
        <ele>408</ele>
        <time>2020-05-31T09:38:02Z</time>
      </trkpt>
      <trkpt lat="43.97438" lon="5.14866">
        <ele>408</ele>
        <time>2020-05-31T09:38:04Z</time>
      </trkpt>
      <trkpt lat="43.97434" lon="5.14857">
        <ele>407</ele>
        <time>2020-05-31T09:38:14Z</time>
      </trkpt>
      <trkpt lat="43.97432" lon="5.14853">
        <ele>406</ele>
        <time>2020-05-31T09:38:23Z</time>
      </trkpt>
      <trkpt lat="43.9743" lon="5.14842">
        <ele>405</ele>
        <time>2020-05-31T09:38:35Z</time>
      </trkpt>
      <trkpt lat="43.97429" lon="5.14838">
        <ele>405</ele>
        <time>2020-05-31T09:38:37Z</time>
      </trkpt>
      <trkpt lat="43.97429" lon="5.14837">
        <ele>405</ele>
        <time>2020-05-31T09:38:38Z</time>
      </trkpt>
      <trkpt lat="43.97429" lon="5.14835">
        <ele>404</ele>
        <time>2020-05-31T09:38:39Z</time>
      </trkpt>
      <trkpt lat="43.97428" lon="5.14831">
        <ele>404</ele>
        <time>2020-05-31T09:38:41Z</time>
      </trkpt>
      <trkpt lat="43.97426" lon="5.14828">
        <ele>403</ele>
        <time>2020-05-31T09:38:43Z</time>
      </trkpt>
      <trkpt lat="43.97426" lon="5.14826">
        <ele>403</ele>
        <time>2020-05-31T09:38:44Z</time>
      </trkpt>
      <trkpt lat="43.97426" lon="5.14824">
        <ele>403</ele>
        <time>2020-05-31T09:38:45Z</time>
      </trkpt>
      <trkpt lat="43.97426" lon="5.14822">
        <ele>403</ele>
        <time>2020-05-31T09:38:46Z</time>
      </trkpt>
      <trkpt lat="43.97426" lon="5.1482">
        <ele>403</ele>
        <time>2020-05-31T09:38:47Z</time>
      </trkpt>
      <trkpt lat="43.97427" lon="5.14799">
        <ele>401</ele>
        <time>2020-05-31T09:38:57Z</time>
      </trkpt>
      <trkpt lat="43.97427" lon="5.14797">
        <ele>401</ele>
        <time>2020-05-31T09:38:58Z</time>
      </trkpt>
      <trkpt lat="43.97428" lon="5.14795">
        <ele>401</ele>
        <time>2020-05-31T09:38:59Z</time>
      </trkpt>
      <trkpt lat="43.97428" lon="5.14793">
        <ele>401</ele>
        <time>2020-05-31T09:39:00Z</time>
      </trkpt>
      <trkpt lat="43.97428" lon="5.14791">
        <ele>401</ele>
        <time>2020-05-31T09:39:01Z</time>
      </trkpt>
      <trkpt lat="43.97426" lon="5.14765">
        <ele>398</ele>
        <time>2020-05-31T09:39:11Z</time>
      </trkpt>
      <trkpt lat="43.97428" lon="5.14761">
        <ele>397</ele>
        <time>2020-05-31T09:39:12Z</time>
      </trkpt>
      <trkpt lat="43.97429" lon="5.14758">
        <ele>397</ele>
        <time>2020-05-31T09:39:13Z</time>
      </trkpt>
      <trkpt lat="43.97429" lon="5.14755">
        <ele>397</ele>
        <time>2020-05-31T09:39:14Z</time>
      </trkpt>
      <trkpt lat="43.9743" lon="5.14751">
        <ele>397</ele>
        <time>2020-05-31T09:39:15Z</time>
      </trkpt>
      <trkpt lat="43.97431" lon="5.14748">
        <ele>396</ele>
        <time>2020-05-31T09:39:16Z</time>
      </trkpt>
      <trkpt lat="43.97432" lon="5.14745">
        <ele>396</ele>
        <time>2020-05-31T09:39:17Z</time>
      </trkpt>
      <trkpt lat="43.97434" lon="5.14742">
        <ele>395</ele>
        <time>2020-05-31T09:39:18Z</time>
      </trkpt>
      <trkpt lat="43.97435" lon="5.14739">
        <ele>395</ele>
        <time>2020-05-31T09:39:19Z</time>
      </trkpt>
      <trkpt lat="43.97445" lon="5.1473">
        <ele>394</ele>
        <time>2020-05-31T09:39:28Z</time>
      </trkpt>
      <trkpt lat="43.97441" lon="5.14727">
        <ele>393</ele>
        <time>2020-05-31T09:39:33Z</time>
      </trkpt>
      <trkpt lat="43.97439" lon="5.14727">
        <ele>393</ele>
        <time>2020-05-31T09:39:34Z</time>
      </trkpt>
      <trkpt lat="43.97438" lon="5.14726">
        <ele>392</ele>
        <time>2020-05-31T09:39:35Z</time>
      </trkpt>
      <trkpt lat="43.97434" lon="5.14725">
        <ele>391</ele>
        <time>2020-05-31T09:39:39Z</time>
      </trkpt>
      <trkpt lat="43.97433" lon="5.14724">
        <ele>391</ele>
        <time>2020-05-31T09:39:40Z</time>
      </trkpt>
      <trkpt lat="43.97429" lon="5.1472">
        <ele>390</ele>
        <time>2020-05-31T09:39:43Z</time>
      </trkpt>
      <trkpt lat="43.97427" lon="5.1472">
        <ele>390</ele>
        <time>2020-05-31T09:39:44Z</time>
      </trkpt>
      <trkpt lat="43.97426" lon="5.1472">
        <ele>389</ele>
        <time>2020-05-31T09:39:45Z</time>
      </trkpt>
      <trkpt lat="43.97414" lon="5.14721">
        <ele>388</ele>
        <time>2020-05-31T09:39:55Z</time>
      </trkpt>
      <trkpt lat="43.97408" lon="5.14726">
        <ele>386</ele>
        <time>2020-05-31T09:40:07Z</time>
      </trkpt>
      <trkpt lat="43.97407" lon="5.14727">
        <ele>386</ele>
        <time>2020-05-31T09:40:08Z</time>
      </trkpt>
      <trkpt lat="43.97401" lon="5.14728">
        <ele>384</ele>
        <time>2020-05-31T09:40:13Z</time>
      </trkpt>
      <trkpt lat="43.97399" lon="5.14728">
        <ele>383</ele>
        <time>2020-05-31T09:40:14Z</time>
      </trkpt>
      <trkpt lat="43.97397" lon="5.14729">
        <ele>382</ele>
        <time>2020-05-31T09:40:15Z</time>
      </trkpt>
      <trkpt lat="43.97395" lon="5.14731">
        <ele>382</ele>
        <time>2020-05-31T09:40:16Z</time>
      </trkpt>
      <trkpt lat="43.97394" lon="5.14732">
        <ele>381</ele>
        <time>2020-05-31T09:40:17Z</time>
      </trkpt>
      <trkpt lat="43.97393" lon="5.14735">
        <ele>381</ele>
        <time>2020-05-31T09:40:18Z</time>
      </trkpt>
      <trkpt lat="43.97392" lon="5.14737">
        <ele>381</ele>
        <time>2020-05-31T09:40:19Z</time>
      </trkpt>
      <trkpt lat="43.97391" lon="5.14739">
        <ele>381</ele>
        <time>2020-05-31T09:40:20Z</time>
      </trkpt>
      <trkpt lat="43.97391" lon="5.14742">
        <ele>382</ele>
        <time>2020-05-31T09:40:21Z</time>
      </trkpt>
      <trkpt lat="43.97391" lon="5.14744">
        <ele>382</ele>
        <time>2020-05-31T09:40:22Z</time>
      </trkpt>
      <trkpt lat="43.97391" lon="5.14747">
        <ele>382</ele>
        <time>2020-05-31T09:40:23Z</time>
      </trkpt>
      <trkpt lat="43.9739" lon="5.1475">
        <ele>383</ele>
        <time>2020-05-31T09:40:24Z</time>
      </trkpt>
      <trkpt lat="43.9739" lon="5.14752">
        <ele>383</ele>
        <time>2020-05-31T09:40:25Z</time>
      </trkpt>
      <trkpt lat="43.97391" lon="5.14755">
        <ele>383</ele>
        <time>2020-05-31T09:40:26Z</time>
      </trkpt>
      <trkpt lat="43.9739" lon="5.14776">
        <ele>385</ele>
        <time>2020-05-31T09:40:34Z</time>
      </trkpt>
      <trkpt lat="43.97388" lon="5.14801">
        <ele>387</ele>
        <time>2020-05-31T09:40:43Z</time>
      </trkpt>
      <trkpt lat="43.97388" lon="5.14803">
        <ele>387</ele>
        <time>2020-05-31T09:40:44Z</time>
      </trkpt>
      <trkpt lat="43.97388" lon="5.14805">
        <ele>387</ele>
        <time>2020-05-31T09:40:45Z</time>
      </trkpt>
      <trkpt lat="43.97385" lon="5.14836">
        <ele>388</ele>
        <time>2020-05-31T09:40:56Z</time>
      </trkpt>
      <trkpt lat="43.9738" lon="5.14853">
        <ele>387</ele>
        <time>2020-05-31T09:41:05Z</time>
      </trkpt>
      <trkpt lat="43.97378" lon="5.14859">
        <ele>386</ele>
        <time>2020-05-31T09:42:39Z</time>
      </trkpt>
      <trkpt lat="43.97376" lon="5.14867">
        <ele>385</ele>
        <time>2020-05-31T09:42:44Z</time>
      </trkpt>
      <trkpt lat="43.97372" lon="5.14883">
        <ele>384</ele>
        <time>2020-05-31T09:42:54Z</time>
      </trkpt>
      <trkpt lat="43.97369" lon="5.14892">
        <ele>383</ele>
        <time>2020-05-31T09:43:00Z</time>
      </trkpt>
      <trkpt lat="43.97365" lon="5.14896">
        <ele>382</ele>
        <time>2020-05-31T09:43:10Z</time>
      </trkpt>
      <trkpt lat="43.97359" lon="5.14901">
        <ele>379</ele>
        <time>2020-05-31T09:43:19Z</time>
      </trkpt>
      <trkpt lat="43.97358" lon="5.14902">
        <ele>379</ele>
        <time>2020-05-31T09:43:20Z</time>
      </trkpt>
      <trkpt lat="43.97358" lon="5.14904">
        <ele>379</ele>
        <time>2020-05-31T09:43:21Z</time>
      </trkpt>
      <trkpt lat="43.97357" lon="5.14907">
        <ele>379</ele>
        <time>2020-05-31T09:43:25Z</time>
      </trkpt>
      <trkpt lat="43.97354" lon="5.14913">
        <ele>379</ele>
        <time>2020-05-31T09:43:34Z</time>
      </trkpt>
      <trkpt lat="43.97353" lon="5.14914">
        <ele>378</ele>
        <time>2020-05-31T09:43:36Z</time>
      </trkpt>
      <trkpt lat="43.97352" lon="5.14916">
        <ele>378</ele>
        <time>2020-05-31T09:43:38Z</time>
      </trkpt>
      <trkpt lat="43.97351" lon="5.14919">
        <ele>378</ele>
        <time>2020-05-31T09:43:40Z</time>
      </trkpt>
      <trkpt lat="43.97345" lon="5.1493">
        <ele>377</ele>
        <time>2020-05-31T09:43:51Z</time>
      </trkpt>
      <trkpt lat="43.97342" lon="5.14932">
        <ele>376</ele>
        <time>2020-05-31T09:43:54Z</time>
      </trkpt>
      <trkpt lat="43.9734" lon="5.14933">
        <ele>375</ele>
        <time>2020-05-31T09:43:55Z</time>
      </trkpt>
      <trkpt lat="43.97339" lon="5.14934">
        <ele>375</ele>
        <time>2020-05-31T09:43:56Z</time>
      </trkpt>
      <trkpt lat="43.97338" lon="5.14935">
        <ele>375</ele>
        <time>2020-05-31T09:43:57Z</time>
      </trkpt>
      <trkpt lat="43.97337" lon="5.14936">
        <ele>374</ele>
        <time>2020-05-31T09:43:58Z</time>
      </trkpt>
      <trkpt lat="43.97334" lon="5.14937">
        <ele>374</ele>
        <time>2020-05-31T09:44:00Z</time>
      </trkpt>
      <trkpt lat="43.97333" lon="5.14937">
        <ele>373</ele>
        <time>2020-05-31T09:44:01Z</time>
      </trkpt>
      <trkpt lat="43.97332" lon="5.14937">
        <ele>373</ele>
        <time>2020-05-31T09:44:02Z</time>
      </trkpt>
      <trkpt lat="43.9733" lon="5.14937">
        <ele>372</ele>
        <time>2020-05-31T09:44:03Z</time>
      </trkpt>
      <trkpt lat="43.97329" lon="5.14937">
        <ele>372</ele>
        <time>2020-05-31T09:44:04Z</time>
      </trkpt>
      <trkpt lat="43.97328" lon="5.14938">
        <ele>372</ele>
        <time>2020-05-31T09:44:05Z</time>
      </trkpt>
      <trkpt lat="43.97326" lon="5.14938">
        <ele>371</ele>
        <time>2020-05-31T09:44:06Z</time>
      </trkpt>
      <trkpt lat="43.97324" lon="5.14938">
        <ele>370</ele>
        <time>2020-05-31T09:44:07Z</time>
      </trkpt>
      <trkpt lat="43.97323" lon="5.14938">
        <ele>370</ele>
        <time>2020-05-31T09:44:08Z</time>
      </trkpt>
      <trkpt lat="43.97321" lon="5.14939">
        <ele>370</ele>
        <time>2020-05-31T09:44:09Z</time>
      </trkpt>
      <trkpt lat="43.9732" lon="5.14939">
        <ele>369</ele>
        <time>2020-05-31T09:44:10Z</time>
      </trkpt>
      <trkpt lat="43.97312" lon="5.14939">
        <ele>367</ele>
        <time>2020-05-31T09:44:19Z</time>
      </trkpt>
      <trkpt lat="43.97309" lon="5.1494">
        <ele>366</ele>
        <time>2020-05-31T09:44:30Z</time>
      </trkpt>
      <trkpt lat="43.97305" lon="5.1494">
        <ele>364</ele>
        <time>2020-05-31T09:44:38Z</time>
      </trkpt>
      <trkpt lat="43.97294" lon="5.14944">
        <ele>365</ele>
        <time>2020-05-31T09:44:49Z</time>
      </trkpt>
      <trkpt lat="43.97287" lon="5.14946">
        <ele>365</ele>
        <time>2020-05-31T09:45:00Z</time>
      </trkpt>
      <trkpt lat="43.97286" lon="5.14945">
        <ele>365</ele>
        <time>2020-05-31T09:45:05Z</time>
      </trkpt>
      <trkpt lat="43.97274" lon="5.14943">
        <ele>366</ele>
        <time>2020-05-31T09:45:15Z</time>
      </trkpt>
      <trkpt lat="43.97261" lon="5.14944">
        <ele>367</ele>
        <time>2020-05-31T09:45:25Z</time>
      </trkpt>
      <trkpt lat="43.9726" lon="5.14944">
        <ele>368</ele>
        <time>2020-05-31T09:45:26Z</time>
      </trkpt>
      <trkpt lat="43.97251" lon="5.14951">
        <ele>369</ele>
        <time>2020-05-31T09:45:34Z</time>
      </trkpt>
      <trkpt lat="43.9725" lon="5.14952">
        <ele>369</ele>
        <time>2020-05-31T09:45:35Z</time>
      </trkpt>
      <trkpt lat="43.97247" lon="5.14957">
        <ele>370</ele>
        <time>2020-05-31T09:45:45Z</time>
      </trkpt>
      <trkpt lat="43.97245" lon="5.14957">
        <ele>370</ele>
        <time>2020-05-31T09:45:56Z</time>
      </trkpt>
      <trkpt lat="43.97245" lon="5.14958">
        <ele>370</ele>
        <time>2020-05-31T09:46:14Z</time>
      </trkpt>
      <trkpt lat="43.97245" lon="5.14956">
        <ele>370</ele>
        <time>2020-05-31T09:46:24Z</time>
      </trkpt>
      <trkpt lat="43.97244" lon="5.14954">
        <ele>370</ele>
        <time>2020-05-31T09:46:25Z</time>
      </trkpt>
      <trkpt lat="43.97243" lon="5.14953">
        <ele>370</ele>
        <time>2020-05-31T09:46:26Z</time>
      </trkpt>
      <trkpt lat="43.97242" lon="5.14952">
        <ele>370</ele>
        <time>2020-05-31T09:46:27Z</time>
      </trkpt>
      <trkpt lat="43.97242" lon="5.14951">
        <ele>370</ele>
        <time>2020-05-31T09:46:28Z</time>
      </trkpt>
      <trkpt lat="43.97241" lon="5.1495">
        <ele>371</ele>
        <time>2020-05-31T09:46:29Z</time>
      </trkpt>
      <trkpt lat="43.9724" lon="5.14949">
        <ele>371</ele>
        <time>2020-05-31T09:46:30Z</time>
      </trkpt>
      <trkpt lat="43.97238" lon="5.14949">
        <ele>371</ele>
        <time>2020-05-31T09:46:31Z</time>
      </trkpt>
      <trkpt lat="43.97237" lon="5.14949">
        <ele>371</ele>
        <time>2020-05-31T09:46:32Z</time>
      </trkpt>
      <trkpt lat="43.97235" lon="5.14949">
        <ele>372</ele>
        <time>2020-05-31T09:46:33Z</time>
      </trkpt>
      <trkpt lat="43.97233" lon="5.1495">
        <ele>372</ele>
        <time>2020-05-31T09:46:34Z</time>
      </trkpt>
      <trkpt lat="43.97215" lon="5.14967">
        <ele>375</ele>
        <time>2020-05-31T09:46:43Z</time>
      </trkpt>
      <trkpt lat="43.97211" lon="5.14975">
        <ele>375</ele>
        <time>2020-05-31T09:46:46Z</time>
      </trkpt>
      <trkpt lat="43.97211" lon="5.14977">
        <ele>376</ele>
        <time>2020-05-31T09:46:47Z</time>
      </trkpt>
      <trkpt lat="43.9721" lon="5.1498">
        <ele>376</ele>
        <time>2020-05-31T09:46:48Z</time>
      </trkpt>
      <trkpt lat="43.97209" lon="5.14982">
        <ele>376</ele>
        <time>2020-05-31T09:46:49Z</time>
      </trkpt>
      <trkpt lat="43.97208" lon="5.14984">
        <ele>376</ele>
        <time>2020-05-31T09:46:50Z</time>
      </trkpt>
      <trkpt lat="43.97207" lon="5.14985">
        <ele>376</ele>
        <time>2020-05-31T09:46:51Z</time>
      </trkpt>
      <trkpt lat="43.97206" lon="5.14986">
        <ele>376</ele>
        <time>2020-05-31T09:46:52Z</time>
      </trkpt>
      <trkpt lat="43.97204" lon="5.14987">
        <ele>377</ele>
        <time>2020-05-31T09:46:53Z</time>
      </trkpt>
      <trkpt lat="43.97203" lon="5.14989">
        <ele>377</ele>
        <time>2020-05-31T09:46:54Z</time>
      </trkpt>
      <trkpt lat="43.97201" lon="5.1499">
        <ele>377</ele>
        <time>2020-05-31T09:46:55Z</time>
      </trkpt>
      <trkpt lat="43.972" lon="5.14991">
        <ele>377</ele>
        <time>2020-05-31T09:46:56Z</time>
      </trkpt>
      <trkpt lat="43.97193" lon="5.14993">
        <ele>379</ele>
        <time>2020-05-31T09:47:05Z</time>
      </trkpt>
      <trkpt lat="43.97189" lon="5.14991">
        <ele>379</ele>
        <time>2020-05-31T09:47:11Z</time>
      </trkpt>
      <trkpt lat="43.97188" lon="5.1499">
        <ele>380</ele>
        <time>2020-05-31T09:47:12Z</time>
      </trkpt>
      <trkpt lat="43.97183" lon="5.14984">
        <ele>381</ele>
        <time>2020-05-31T09:47:18Z</time>
      </trkpt>
      <trkpt lat="43.97183" lon="5.14983">
        <ele>381</ele>
        <time>2020-05-31T09:47:19Z</time>
      </trkpt>
      <trkpt lat="43.97181" lon="5.1496">
        <ele>382</ele>
        <time>2020-05-31T09:47:30Z</time>
      </trkpt>
      <trkpt lat="43.97182" lon="5.14951">
        <ele>383</ele>
        <time>2020-05-31T09:47:35Z</time>
      </trkpt>
      <trkpt lat="43.97182" lon="5.14949">
        <ele>383</ele>
        <time>2020-05-31T09:47:36Z</time>
      </trkpt>
      <trkpt lat="43.97181" lon="5.14933">
        <ele>383</ele>
        <time>2020-05-31T09:47:44Z</time>
      </trkpt>
      <trkpt lat="43.97178" lon="5.14914">
        <ele>385</ele>
        <time>2020-05-31T09:47:54Z</time>
      </trkpt>
      <trkpt lat="43.97172" lon="5.14868">
        <ele>388</ele>
        <time>2020-05-31T09:48:07Z</time>
      </trkpt>
      <trkpt lat="43.9717" lon="5.14825">
        <ele>392</ele>
        <time>2020-05-31T09:48:21Z</time>
      </trkpt>
      <trkpt lat="43.97173" lon="5.14791">
        <ele>397</ele>
        <time>2020-05-31T09:48:31Z</time>
      </trkpt>
      <trkpt lat="43.97177" lon="5.14754">
        <ele>401</ele>
        <time>2020-05-31T09:48:43Z</time>
      </trkpt>
      <trkpt lat="43.97183" lon="5.14723">
        <ele>402</ele>
        <time>2020-05-31T09:48:54Z</time>
      </trkpt>
      <trkpt lat="43.97194" lon="5.14695">
        <ele>402</ele>
        <time>2020-05-31T09:49:05Z</time>
      </trkpt>
      <trkpt lat="43.97203" lon="5.14671">
        <ele>401</ele>
        <time>2020-05-31T09:49:17Z</time>
      </trkpt>
      <trkpt lat="43.97203" lon="5.14653">
        <ele>402</ele>
        <time>2020-05-31T09:50:51Z</time>
      </trkpt>
      <trkpt lat="43.97201" lon="5.14639">
        <ele>403</ele>
        <time>2020-05-31T09:51:03Z</time>
      </trkpt>
      <trkpt lat="43.97201" lon="5.14631">
        <ele>402</ele>
        <time>2020-05-31T09:51:08Z</time>
      </trkpt>
      <trkpt lat="43.97195" lon="5.1462">
        <ele>402</ele>
        <time>2020-05-31T09:51:16Z</time>
      </trkpt>
      <trkpt lat="43.97197" lon="5.14611">
        <ele>400</ele>
        <time>2020-05-31T09:51:21Z</time>
      </trkpt>
      <trkpt lat="43.97196" lon="5.14607">
        <ele>400</ele>
        <time>2020-05-31T09:51:23Z</time>
      </trkpt>
      <trkpt lat="43.97195" lon="5.14598">
        <ele>397</ele>
        <time>2020-05-31T09:51:33Z</time>
      </trkpt>
      <trkpt lat="43.972" lon="5.14597">
        <ele>396</ele>
        <time>2020-05-31T09:52:13Z</time>
      </trkpt>
      <trkpt lat="43.97209" lon="5.14601">
        <ele>395</ele>
        <time>2020-05-31T09:52:18Z</time>
      </trkpt>
      <trkpt lat="43.97212" lon="5.14604">
        <ele>395</ele>
        <time>2020-05-31T09:52:20Z</time>
      </trkpt>
      <trkpt lat="43.9722" lon="5.14608">
        <ele>395</ele>
        <time>2020-05-31T09:52:24Z</time>
      </trkpt>
      <trkpt lat="43.97222" lon="5.14609">
        <ele>395</ele>
        <time>2020-05-31T09:52:25Z</time>
      </trkpt>
      <trkpt lat="43.97224" lon="5.14611">
        <ele>395</ele>
        <time>2020-05-31T09:52:26Z</time>
      </trkpt>
      <trkpt lat="43.97226" lon="5.14613">
        <ele>395</ele>
        <time>2020-05-31T09:52:27Z</time>
      </trkpt>
      <trkpt lat="43.97227" lon="5.14614">
        <ele>394</ele>
        <time>2020-05-31T09:52:28Z</time>
      </trkpt>
      <trkpt lat="43.97229" lon="5.14615">
        <ele>394</ele>
        <time>2020-05-31T09:52:29Z</time>
      </trkpt>
      <trkpt lat="43.97231" lon="5.14617">
        <ele>394</ele>
        <time>2020-05-31T09:52:30Z</time>
      </trkpt>
      <trkpt lat="43.97232" lon="5.14619">
        <ele>394</ele>
        <time>2020-05-31T09:52:31Z</time>
      </trkpt>
      <trkpt lat="43.97233" lon="5.14621">
        <ele>393</ele>
        <time>2020-05-31T09:52:32Z</time>
      </trkpt>
      <trkpt lat="43.97236" lon="5.14626">
        <ele>393</ele>
        <time>2020-05-31T09:52:35Z</time>
      </trkpt>
      <trkpt lat="43.97237" lon="5.14628">
        <ele>393</ele>
        <time>2020-05-31T09:52:36Z</time>
      </trkpt>
      <trkpt lat="43.97238" lon="5.1463">
        <ele>393</ele>
        <time>2020-05-31T09:52:37Z</time>
      </trkpt>
      <trkpt lat="43.97239" lon="5.14633">
        <ele>393</ele>
        <time>2020-05-31T09:52:38Z</time>
      </trkpt>
      <trkpt lat="43.97239" lon="5.14635">
        <ele>393</ele>
        <time>2020-05-31T09:52:39Z</time>
      </trkpt>
      <trkpt lat="43.9724" lon="5.14638">
        <ele>393</ele>
        <time>2020-05-31T09:52:40Z</time>
      </trkpt>
      <trkpt lat="43.9724" lon="5.14641">
        <ele>392</ele>
        <time>2020-05-31T09:52:41Z</time>
      </trkpt>
      <trkpt lat="43.97241" lon="5.14643">
        <ele>392</ele>
        <time>2020-05-31T09:52:42Z</time>
      </trkpt>
      <trkpt lat="43.97241" lon="5.14648">
        <ele>391</ele>
        <time>2020-05-31T09:52:44Z</time>
      </trkpt>
      <trkpt lat="43.97241" lon="5.14651">
        <ele>391</ele>
        <time>2020-05-31T09:52:46Z</time>
      </trkpt>
      <trkpt lat="43.97242" lon="5.14653">
        <ele>390</ele>
        <time>2020-05-31T09:52:47Z</time>
      </trkpt>
      <trkpt lat="43.97242" lon="5.14655">
        <ele>390</ele>
        <time>2020-05-31T09:52:48Z</time>
      </trkpt>
      <trkpt lat="43.97243" lon="5.14657">
        <ele>389</ele>
        <time>2020-05-31T09:52:49Z</time>
      </trkpt>
      <trkpt lat="43.97243" lon="5.14659">
        <ele>389</ele>
        <time>2020-05-31T09:52:50Z</time>
      </trkpt>
      <trkpt lat="43.97243" lon="5.14661">
        <ele>389</ele>
        <time>2020-05-31T09:52:51Z</time>
      </trkpt>
      <trkpt lat="43.97244" lon="5.14665">
        <ele>388</ele>
        <time>2020-05-31T09:52:53Z</time>
      </trkpt>
      <trkpt lat="43.97245" lon="5.14667">
        <ele>387</ele>
        <time>2020-05-31T09:52:54Z</time>
      </trkpt>
      <trkpt lat="43.97247" lon="5.14668">
        <ele>386</ele>
        <time>2020-05-31T09:52:55Z</time>
      </trkpt>
      <trkpt lat="43.97248" lon="5.14669">
        <ele>385</ele>
        <time>2020-05-31T09:52:56Z</time>
      </trkpt>
      <trkpt lat="43.9725" lon="5.14668">
        <ele>385</ele>
        <time>2020-05-31T09:52:57Z</time>
      </trkpt>
      <trkpt lat="43.97251" lon="5.14668">
        <ele>384</ele>
        <time>2020-05-31T09:52:58Z</time>
      </trkpt>
      <trkpt lat="43.97252" lon="5.14667">
        <ele>384</ele>
        <time>2020-05-31T09:52:59Z</time>
      </trkpt>
      <trkpt lat="43.97255" lon="5.14666">
        <ele>382</ele>
        <time>2020-05-31T09:53:05Z</time>
      </trkpt>
      <trkpt lat="43.97262" lon="5.14661">
        <ele>380</ele>
        <time>2020-05-31T09:53:13Z</time>
      </trkpt>
      <trkpt lat="43.97265" lon="5.14656">
        <ele>379</ele>
        <time>2020-05-31T09:53:23Z</time>
      </trkpt>
      <trkpt lat="43.97269" lon="5.14659">
        <ele>377</ele>
        <time>2020-05-31T09:54:20Z</time>
      </trkpt>
      <trkpt lat="43.97276" lon="5.14647">
        <ele>375</ele>
        <time>2020-05-31T09:54:31Z</time>
      </trkpt>
      <trkpt lat="43.97281" lon="5.14621">
        <ele>376</ele>
        <time>2020-05-31T09:54:40Z</time>
      </trkpt>
      <trkpt lat="43.97289" lon="5.14601">
        <ele>371</ele>
        <time>2020-05-31T09:54:48Z</time>
      </trkpt>
      <trkpt lat="43.97291" lon="5.14593">
        <ele>370</ele>
        <time>2020-05-31T09:54:51Z</time>
      </trkpt>
      <trkpt lat="43.97289" lon="5.14578">
        <ele>370</ele>
        <time>2020-05-31T09:54:56Z</time>
      </trkpt>
      <trkpt lat="43.97288" lon="5.1457">
        <ele>368</ele>
        <time>2020-05-31T09:54:59Z</time>
      </trkpt>
      <trkpt lat="43.97287" lon="5.14566">
        <ele>368</ele>
        <time>2020-05-31T09:55:00Z</time>
      </trkpt>
      <trkpt lat="43.97286" lon="5.14564">
        <ele>368</ele>
        <time>2020-05-31T09:55:01Z</time>
      </trkpt>
      <trkpt lat="43.97284" lon="5.14562">
        <ele>368</ele>
        <time>2020-05-31T09:55:02Z</time>
      </trkpt>
      <trkpt lat="43.97283" lon="5.14559">
        <ele>368</ele>
        <time>2020-05-31T09:55:03Z</time>
      </trkpt>
      <trkpt lat="43.97282" lon="5.14556">
        <ele>368</ele>
        <time>2020-05-31T09:55:04Z</time>
      </trkpt>
      <trkpt lat="43.97281" lon="5.14553">
        <ele>369</ele>
        <time>2020-05-31T09:55:05Z</time>
      </trkpt>
      <trkpt lat="43.97281" lon="5.1455">
        <ele>369</ele>
        <time>2020-05-31T09:55:06Z</time>
      </trkpt>
      <trkpt lat="43.97282" lon="5.14547">
        <ele>370</ele>
        <time>2020-05-31T09:55:07Z</time>
      </trkpt>
      <trkpt lat="43.97283" lon="5.14545">
        <ele>370</ele>
        <time>2020-05-31T09:55:08Z</time>
      </trkpt>
      <trkpt lat="43.97284" lon="5.14542">
        <ele>370</ele>
        <time>2020-05-31T09:55:09Z</time>
      </trkpt>
      <trkpt lat="43.97285" lon="5.14539">
        <ele>371</ele>
        <time>2020-05-31T09:55:10Z</time>
      </trkpt>
      <trkpt lat="43.97286" lon="5.14537">
        <ele>371</ele>
        <time>2020-05-31T09:55:11Z</time>
      </trkpt>
      <trkpt lat="43.97287" lon="5.14535">
        <ele>371</ele>
        <time>2020-05-31T09:55:12Z</time>
      </trkpt>
      <trkpt lat="43.97289" lon="5.14534">
        <ele>371</ele>
        <time>2020-05-31T09:55:13Z</time>
      </trkpt>
      <trkpt lat="43.97292" lon="5.14533">
        <ele>371</ele>
        <time>2020-05-31T09:55:14Z</time>
      </trkpt>
      <trkpt lat="43.9732" lon="5.14528">
        <ele>369</ele>
        <time>2020-05-31T09:55:25Z</time>
      </trkpt>
      <trkpt lat="43.97343" lon="5.1452">
        <ele>367</ele>
        <time>2020-05-31T09:55:35Z</time>
      </trkpt>
      <trkpt lat="43.97345" lon="5.14518">
        <ele>367</ele>
        <time>2020-05-31T09:55:36Z</time>
      </trkpt>
      <trkpt lat="43.97346" lon="5.14516">
        <ele>367</ele>
        <time>2020-05-31T09:55:37Z</time>
      </trkpt>
      <trkpt lat="43.97351" lon="5.14511">
        <ele>368</ele>
        <time>2020-05-31T09:55:41Z</time>
      </trkpt>
      <trkpt lat="43.97353" lon="5.1451">
        <ele>367</ele>
        <time>2020-05-31T09:55:42Z</time>
      </trkpt>
      <trkpt lat="43.97358" lon="5.14509">
        <ele>366</ele>
        <time>2020-05-31T09:55:44Z</time>
      </trkpt>
      <trkpt lat="43.9736" lon="5.14509">
        <ele>365</ele>
        <time>2020-05-31T09:55:45Z</time>
      </trkpt>
      <trkpt lat="43.97363" lon="5.14508">
        <ele>365</ele>
        <time>2020-05-31T09:55:46Z</time>
      </trkpt>
      <trkpt lat="43.97365" lon="5.14506">
        <ele>365</ele>
        <time>2020-05-31T09:55:47Z</time>
      </trkpt>
      <trkpt lat="43.97366" lon="5.14504">
        <ele>365</ele>
        <time>2020-05-31T09:55:48Z</time>
      </trkpt>
      <trkpt lat="43.97367" lon="5.14502">
        <ele>366</ele>
        <time>2020-05-31T09:55:49Z</time>
      </trkpt>
      <trkpt lat="43.97369" lon="5.145">
        <ele>366</ele>
        <time>2020-05-31T09:55:50Z</time>
      </trkpt>
      <trkpt lat="43.9737" lon="5.14497">
        <ele>367</ele>
        <time>2020-05-31T09:55:51Z</time>
      </trkpt>
      <trkpt lat="43.97371" lon="5.14494">
        <ele>367</ele>
        <time>2020-05-31T09:55:52Z</time>
      </trkpt>
      <trkpt lat="43.97373" lon="5.14492">
        <ele>368</ele>
        <time>2020-05-31T09:55:53Z</time>
      </trkpt>
      <trkpt lat="43.97375" lon="5.1449">
        <ele>368</ele>
        <time>2020-05-31T09:55:54Z</time>
      </trkpt>
      <trkpt lat="43.97377" lon="5.14488">
        <ele>368</ele>
        <time>2020-05-31T09:55:55Z</time>
      </trkpt>
      <trkpt lat="43.97379" lon="5.14487">
        <ele>368</ele>
        <time>2020-05-31T09:55:56Z</time>
      </trkpt>
      <trkpt lat="43.97381" lon="5.14487">
        <ele>368</ele>
        <time>2020-05-31T09:55:57Z</time>
      </trkpt>
      <trkpt lat="43.97383" lon="5.14487">
        <ele>367</ele>
        <time>2020-05-31T09:55:58Z</time>
      </trkpt>
      <trkpt lat="43.97385" lon="5.14487">
        <ele>366</ele>
        <time>2020-05-31T09:55:59Z</time>
      </trkpt>
      <trkpt lat="43.97388" lon="5.14487">
        <ele>366</ele>
        <time>2020-05-31T09:56:00Z</time>
      </trkpt>
      <trkpt lat="43.9739" lon="5.14487">
        <ele>366</ele>
        <time>2020-05-31T09:56:01Z</time>
      </trkpt>
      <trkpt lat="43.97392" lon="5.14486">
        <ele>365</ele>
        <time>2020-05-31T09:56:02Z</time>
      </trkpt>
      <trkpt lat="43.97394" lon="5.14486">
        <ele>365</ele>
        <time>2020-05-31T09:56:03Z</time>
      </trkpt>
      <trkpt lat="43.97396" lon="5.14485">
        <ele>365</ele>
        <time>2020-05-31T09:56:04Z</time>
      </trkpt>
      <trkpt lat="43.97398" lon="5.14484">
        <ele>365</ele>
        <time>2020-05-31T09:56:05Z</time>
      </trkpt>
      <trkpt lat="43.974" lon="5.14483">
        <ele>364</ele>
        <time>2020-05-31T09:56:06Z</time>
      </trkpt>
      <trkpt lat="43.97403" lon="5.14482">
        <ele>364</ele>
        <time>2020-05-31T09:56:07Z</time>
      </trkpt>
      <trkpt lat="43.97406" lon="5.14481">
        <ele>364</ele>
        <time>2020-05-31T09:56:08Z</time>
      </trkpt>
      <trkpt lat="43.97408" lon="5.14481">
        <ele>363</ele>
        <time>2020-05-31T09:56:09Z</time>
      </trkpt>
      <trkpt lat="43.97411" lon="5.14482">
        <ele>362</ele>
        <time>2020-05-31T09:56:10Z</time>
      </trkpt>
      <trkpt lat="43.97412" lon="5.14482">
        <ele>362</ele>
        <time>2020-05-31T09:56:11Z</time>
      </trkpt>
      <trkpt lat="43.97414" lon="5.14482">
        <ele>362</ele>
        <time>2020-05-31T09:56:12Z</time>
      </trkpt>
      <trkpt lat="43.97416" lon="5.14481">
        <ele>362</ele>
        <time>2020-05-31T09:56:13Z</time>
      </trkpt>
      <trkpt lat="43.97427" lon="5.14475">
        <ele>361</ele>
        <time>2020-05-31T09:56:18Z</time>
      </trkpt>
      <trkpt lat="43.97429" lon="5.14475">
        <ele>361</ele>
        <time>2020-05-31T09:56:19Z</time>
      </trkpt>
      <trkpt lat="43.97431" lon="5.14474">
        <ele>361</ele>
        <time>2020-05-31T09:56:20Z</time>
      </trkpt>
      <trkpt lat="43.97434" lon="5.14471">
        <ele>361</ele>
        <time>2020-05-31T09:56:22Z</time>
      </trkpt>
      <trkpt lat="43.97437" lon="5.14471">
        <ele>360</ele>
        <time>2020-05-31T09:56:23Z</time>
      </trkpt>
      <trkpt lat="43.97438" lon="5.14471">
        <ele>360</ele>
        <time>2020-05-31T09:56:24Z</time>
      </trkpt>
      <trkpt lat="43.97451" lon="5.14469">
        <ele>357</ele>
        <time>2020-05-31T09:56:29Z</time>
      </trkpt>
      <trkpt lat="43.97453" lon="5.14468">
        <ele>357</ele>
        <time>2020-05-31T09:56:30Z</time>
      </trkpt>
      <trkpt lat="43.97456" lon="5.14466">
        <ele>357</ele>
        <time>2020-05-31T09:56:31Z</time>
      </trkpt>
      <trkpt lat="43.97458" lon="5.14465">
        <ele>356</ele>
        <time>2020-05-31T09:56:32Z</time>
      </trkpt>
      <trkpt lat="43.97461" lon="5.14465">
        <ele>356</ele>
        <time>2020-05-31T09:56:33Z</time>
      </trkpt>
      <trkpt lat="43.97464" lon="5.14464">
        <ele>355</ele>
        <time>2020-05-31T09:56:34Z</time>
      </trkpt>
      <trkpt lat="43.97466" lon="5.14463">
        <ele>355</ele>
        <time>2020-05-31T09:56:35Z</time>
      </trkpt>
      <trkpt lat="43.97468" lon="5.14462">
        <ele>355</ele>
        <time>2020-05-31T09:56:36Z</time>
      </trkpt>
      <trkpt lat="43.97471" lon="5.14462">
        <ele>354</ele>
        <time>2020-05-31T09:56:37Z</time>
      </trkpt>
      <trkpt lat="43.97473" lon="5.14461">
        <ele>354</ele>
        <time>2020-05-31T09:56:38Z</time>
      </trkpt>
      <trkpt lat="43.97487" lon="5.14456">
        <ele>353</ele>
        <time>2020-05-31T09:56:44Z</time>
      </trkpt>
      <trkpt lat="43.9749" lon="5.14456">
        <ele>352</ele>
        <time>2020-05-31T09:56:45Z</time>
      </trkpt>
      <trkpt lat="43.97492" lon="5.14455">
        <ele>352</ele>
        <time>2020-05-31T09:56:46Z</time>
      </trkpt>
      <trkpt lat="43.97495" lon="5.14453">
        <ele>352</ele>
        <time>2020-05-31T09:56:47Z</time>
      </trkpt>
      <trkpt lat="43.97497" lon="5.14452">
        <ele>352</ele>
        <time>2020-05-31T09:56:48Z</time>
      </trkpt>
      <trkpt lat="43.97499" lon="5.14451">
        <ele>352</ele>
        <time>2020-05-31T09:56:49Z</time>
      </trkpt>
      <trkpt lat="43.97502" lon="5.1445">
        <ele>351</ele>
        <time>2020-05-31T09:56:50Z</time>
      </trkpt>
      <trkpt lat="43.97504" lon="5.14449">
        <ele>351</ele>
        <time>2020-05-31T09:56:51Z</time>
      </trkpt>
      <trkpt lat="43.97505" lon="5.14447">
        <ele>351</ele>
        <time>2020-05-31T09:56:52Z</time>
      </trkpt>
      <trkpt lat="43.97507" lon="5.14445">
        <ele>351</ele>
        <time>2020-05-31T09:56:53Z</time>
      </trkpt>
      <trkpt lat="43.97526" lon="5.14434">
        <ele>346</ele>
        <time>2020-05-31T09:57:02Z</time>
      </trkpt>
      <trkpt lat="43.97539" lon="5.14425">
        <ele>343</ele>
        <time>2020-05-31T09:57:07Z</time>
      </trkpt>
      <trkpt lat="43.97553" lon="5.14412">
        <ele>340</ele>
        <time>2020-05-31T09:57:15Z</time>
      </trkpt>
      <trkpt lat="43.97555" lon="5.14412">
        <ele>340</ele>
        <time>2020-05-31T09:57:16Z</time>
      </trkpt>
      <trkpt lat="43.97556" lon="5.1441">
        <ele>339</ele>
        <time>2020-05-31T09:57:17Z</time>
      </trkpt>
      <trkpt lat="43.97558" lon="5.14407">
        <ele>339</ele>
        <time>2020-05-31T09:57:18Z</time>
      </trkpt>
      <trkpt lat="43.9756" lon="5.14405">
        <ele>339</ele>
        <time>2020-05-31T09:57:19Z</time>
      </trkpt>
      <trkpt lat="43.97561" lon="5.14402">
        <ele>339</ele>
        <time>2020-05-31T09:57:20Z</time>
      </trkpt>
      <trkpt lat="43.97563" lon="5.144">
        <ele>339</ele>
        <time>2020-05-31T09:57:21Z</time>
      </trkpt>
      <trkpt lat="43.97564" lon="5.14397">
        <ele>339</ele>
        <time>2020-05-31T09:57:22Z</time>
      </trkpt>
      <trkpt lat="43.97566" lon="5.14395">
        <ele>339</ele>
        <time>2020-05-31T09:57:23Z</time>
      </trkpt>
      <trkpt lat="43.97567" lon="5.14392">
        <ele>339</ele>
        <time>2020-05-31T09:57:24Z</time>
      </trkpt>
      <trkpt lat="43.9758" lon="5.14365">
        <ele>340</ele>
        <time>2020-05-31T09:57:33Z</time>
      </trkpt>
      <trkpt lat="43.97594" lon="5.14344">
        <ele>340</ele>
        <time>2020-05-31T09:57:42Z</time>
      </trkpt>
      <trkpt lat="43.97609" lon="5.14322">
        <ele>339</ele>
        <time>2020-05-31T09:57:52Z</time>
      </trkpt>
      <trkpt lat="43.97617" lon="5.14316">
        <ele>337</ele>
        <time>2020-05-31T09:57:55Z</time>
      </trkpt>
      <trkpt lat="43.97637" lon="5.14292">
        <ele>334</ele>
        <time>2020-05-31T09:58:04Z</time>
      </trkpt>
      <trkpt lat="43.97652" lon="5.14276">
        <ele>332</ele>
        <time>2020-05-31T09:58:13Z</time>
      </trkpt>
      <trkpt lat="43.97658" lon="5.14254">
        <ele>335</ele>
        <time>2020-05-31T09:58:22Z</time>
      </trkpt>
      <trkpt lat="43.97672" lon="5.14235">
        <ele>334</ele>
        <time>2020-05-31T09:58:30Z</time>
      </trkpt>
      <trkpt lat="43.97681" lon="5.1421">
        <ele>335</ele>
        <time>2020-05-31T09:58:39Z</time>
      </trkpt>
      <trkpt lat="43.97702" lon="5.14176">
        <ele>334</ele>
        <time>2020-05-31T09:58:50Z</time>
      </trkpt>
      <trkpt lat="43.97713" lon="5.14155">
        <ele>333</ele>
        <time>2020-05-31T09:58:58Z</time>
      </trkpt>
      <trkpt lat="43.97715" lon="5.14154">
        <ele>333</ele>
        <time>2020-05-31T09:58:59Z</time>
      </trkpt>
      <trkpt lat="43.97716" lon="5.14152">
        <ele>333</ele>
        <time>2020-05-31T09:59:00Z</time>
      </trkpt>
      <trkpt lat="43.97717" lon="5.14149">
        <ele>333</ele>
        <time>2020-05-31T09:59:01Z</time>
      </trkpt>
      <trkpt lat="43.97717" lon="5.14146">
        <ele>333</ele>
        <time>2020-05-31T09:59:02Z</time>
      </trkpt>
      <trkpt lat="43.97718" lon="5.14144">
        <ele>334</ele>
        <time>2020-05-31T09:59:03Z</time>
      </trkpt>
      <trkpt lat="43.97735" lon="5.14126">
        <ele>331</ele>
        <time>2020-05-31T09:59:12Z</time>
      </trkpt>
      <trkpt lat="43.9775" lon="5.14117">
        <ele>326</ele>
        <time>2020-05-31T09:59:19Z</time>
      </trkpt>
      <trkpt lat="43.97755" lon="5.14113">
        <ele>325</ele>
        <time>2020-05-31T09:59:21Z</time>
      </trkpt>
      <trkpt lat="43.97768" lon="5.1409">
        <ele>324</ele>
        <time>2020-05-31T09:59:29Z</time>
      </trkpt>
      <trkpt lat="43.97783" lon="5.1406">
        <ele>321</ele>
        <time>2020-05-31T09:59:39Z</time>
      </trkpt>
      <trkpt lat="43.97794" lon="5.14028">
        <ele>316</ele>
        <time>2020-05-31T09:59:49Z</time>
      </trkpt>
      <trkpt lat="43.97799" lon="5.14007">
        <ele>314</ele>
        <time>2020-05-31T09:59:56Z</time>
      </trkpt>
      <trkpt lat="43.97801" lon="5.14004">
        <ele>313</ele>
        <time>2020-05-31T09:59:57Z</time>
      </trkpt>
      <trkpt lat="43.97812" lon="5.13992">
        <ele>311</ele>
        <time>2020-05-31T10:00:04Z</time>
      </trkpt>
      <trkpt lat="43.97814" lon="5.1399">
        <ele>311</ele>
        <time>2020-05-31T10:00:05Z</time>
      </trkpt>
      <trkpt lat="43.97815" lon="5.13988">
        <ele>311</ele>
        <time>2020-05-31T10:00:06Z</time>
      </trkpt>
      <trkpt lat="43.97817" lon="5.13988">
        <ele>311</ele>
        <time>2020-05-31T10:00:08Z</time>
      </trkpt>
      <trkpt lat="43.97818" lon="5.1399">
        <ele>310</ele>
        <time>2020-05-31T10:00:09Z</time>
      </trkpt>
      <trkpt lat="43.9782" lon="5.1399">
        <ele>310</ele>
        <time>2020-05-31T10:00:10Z</time>
      </trkpt>
      <trkpt lat="43.97821" lon="5.1399">
        <ele>310</ele>
        <time>2020-05-31T10:00:11Z</time>
      </trkpt>
      <trkpt lat="43.97823" lon="5.13989">
        <ele>309</ele>
        <time>2020-05-31T10:00:12Z</time>
      </trkpt>
      <trkpt lat="43.97825" lon="5.13987">
        <ele>309</ele>
        <time>2020-05-31T10:00:13Z</time>
      </trkpt>
      <trkpt lat="43.97826" lon="5.13986">
        <ele>309</ele>
        <time>2020-05-31T10:00:14Z</time>
      </trkpt>
      <trkpt lat="43.97829" lon="5.13986">
        <ele>308</ele>
        <time>2020-05-31T10:00:15Z</time>
      </trkpt>
      <trkpt lat="43.97831" lon="5.13986">
        <ele>308</ele>
        <time>2020-05-31T10:00:16Z</time>
      </trkpt>
      <trkpt lat="43.97833" lon="5.13986">
        <ele>308</ele>
        <time>2020-05-31T10:00:17Z</time>
      </trkpt>
      <trkpt lat="43.97834" lon="5.13988">
        <ele>307</ele>
        <time>2020-05-31T10:00:18Z</time>
      </trkpt>
      <trkpt lat="43.97836" lon="5.13989">
        <ele>307</ele>
        <time>2020-05-31T10:00:19Z</time>
      </trkpt>
      <trkpt lat="43.97841" lon="5.13989">
        <ele>306</ele>
        <time>2020-05-31T10:00:24Z</time>
      </trkpt>
      <trkpt lat="43.97847" lon="5.13989">
        <ele>304</ele>
        <time>2020-05-31T10:00:28Z</time>
      </trkpt>
      <trkpt lat="43.97859" lon="5.1399">
        <ele>302</ele>
        <time>2020-05-31T10:00:38Z</time>
      </trkpt>
      <trkpt lat="43.9786" lon="5.1399">
        <ele>301</ele>
        <time>2020-05-31T10:00:53Z</time>
      </trkpt>
      <trkpt lat="43.97861" lon="5.13985">
        <ele>301</ele>
        <time>2020-05-31T10:02:03Z</time>
      </trkpt>
      <trkpt lat="43.97862" lon="5.13982">
        <ele>301</ele>
        <time>2020-05-31T10:02:25Z</time>
      </trkpt>
      <trkpt lat="43.97863" lon="5.13978">
        <ele>301</ele>
        <time>2020-05-31T10:02:28Z</time>
      </trkpt>
      <trkpt lat="43.97863" lon="5.13976">
        <ele>301</ele>
        <time>2020-05-31T10:02:29Z</time>
      </trkpt>
      <trkpt lat="43.97864" lon="5.13974">
        <ele>301</ele>
        <time>2020-05-31T10:02:30Z</time>
      </trkpt>
      <trkpt lat="43.97865" lon="5.13971">
        <ele>301</ele>
        <time>2020-05-31T10:02:31Z</time>
      </trkpt>
      <trkpt lat="43.97866" lon="5.13968">
        <ele>301</ele>
        <time>2020-05-31T10:02:32Z</time>
      </trkpt>
      <trkpt lat="43.97867" lon="5.13965">
        <ele>301</ele>
        <time>2020-05-31T10:02:33Z</time>
      </trkpt>
      <trkpt lat="43.97868" lon="5.13962">
        <ele>301</ele>
        <time>2020-05-31T10:02:34Z</time>
      </trkpt>
      <trkpt lat="43.97869" lon="5.13959">
        <ele>301</ele>
        <time>2020-05-31T10:02:35Z</time>
      </trkpt>
      <trkpt lat="43.9787" lon="5.13956">
        <ele>301</ele>
        <time>2020-05-31T10:02:36Z</time>
      </trkpt>
      <trkpt lat="43.97871" lon="5.13953">
        <ele>301</ele>
        <time>2020-05-31T10:02:37Z</time>
      </trkpt>
      <trkpt lat="43.97872" lon="5.1395">
        <ele>301</ele>
        <time>2020-05-31T10:02:38Z</time>
      </trkpt>
      <trkpt lat="43.97873" lon="5.13946">
        <ele>300</ele>
        <time>2020-05-31T10:02:39Z</time>
      </trkpt>
      <trkpt lat="43.97874" lon="5.13943">
        <ele>300</ele>
        <time>2020-05-31T10:02:40Z</time>
      </trkpt>
      <trkpt lat="43.97875" lon="5.13939">
        <ele>300</ele>
        <time>2020-05-31T10:02:41Z</time>
      </trkpt>
      <trkpt lat="43.97876" lon="5.13936">
        <ele>300</ele>
        <time>2020-05-31T10:02:42Z</time>
      </trkpt>
      <trkpt lat="43.97876" lon="5.13932">
        <ele>300</ele>
        <time>2020-05-31T10:02:43Z</time>
      </trkpt>
      <trkpt lat="43.97877" lon="5.13929">
        <ele>300</ele>
        <time>2020-05-31T10:02:44Z</time>
      </trkpt>
      <trkpt lat="43.97878" lon="5.13925">
        <ele>300</ele>
        <time>2020-05-31T10:02:45Z</time>
      </trkpt>
      <trkpt lat="43.97879" lon="5.13921">
        <ele>299</ele>
        <time>2020-05-31T10:02:46Z</time>
      </trkpt>
      <trkpt lat="43.9788" lon="5.13917">
        <ele>299</ele>
        <time>2020-05-31T10:02:47Z</time>
      </trkpt>
      <trkpt lat="43.97886" lon="5.13876">
        <ele>296</ele>
        <time>2020-05-31T10:02:58Z</time>
      </trkpt>
      <trkpt lat="43.97881" lon="5.13838">
        <ele>296</ele>
        <time>2020-05-31T10:03:09Z</time>
      </trkpt>
      <trkpt lat="43.97877" lon="5.13813">
        <ele>297</ele>
        <time>2020-05-31T10:03:19Z</time>
      </trkpt>
      <trkpt lat="43.97871" lon="5.13775">
        <ele>299</ele>
        <time>2020-05-31T10:03:30Z</time>
      </trkpt>
      <trkpt lat="43.97868" lon="5.13745">
        <ele>299</ele>
        <time>2020-05-31T10:03:39Z</time>
      </trkpt>
      <trkpt lat="43.97865" lon="5.13718">
        <ele>300</ele>
        <time>2020-05-31T10:03:47Z</time>
      </trkpt>
      <trkpt lat="43.97865" lon="5.13715">
        <ele>301</ele>
        <time>2020-05-31T10:03:48Z</time>
      </trkpt>
      <trkpt lat="43.97864" lon="5.13695">
        <ele>301</ele>
        <time>2020-05-31T10:03:55Z</time>
      </trkpt>
      <trkpt lat="43.97866" lon="5.13663">
        <ele>301</ele>
        <time>2020-05-31T10:04:03Z</time>
      </trkpt>
      <trkpt lat="43.9786" lon="5.13634">
        <ele>302</ele>
        <time>2020-05-31T10:04:11Z</time>
      </trkpt>
      <trkpt lat="43.97852" lon="5.13603">
        <ele>303</ele>
        <time>2020-05-31T10:04:21Z</time>
      </trkpt>
      <trkpt lat="43.97856" lon="5.13564">
        <ele>303</ele>
        <time>2020-05-31T10:04:33Z</time>
      </trkpt>
      <trkpt lat="43.97865" lon="5.13536">
        <ele>304</ele>
        <time>2020-05-31T10:04:41Z</time>
      </trkpt>
      <trkpt lat="43.97878" lon="5.13507">
        <ele>304</ele>
        <time>2020-05-31T10:04:50Z</time>
      </trkpt>
      <trkpt lat="43.9789" lon="5.13482">
        <ele>303</ele>
        <time>2020-05-31T10:04:58Z</time>
      </trkpt>
      <trkpt lat="43.97903" lon="5.13448">
        <ele>301</ele>
        <time>2020-05-31T10:05:08Z</time>
      </trkpt>
      <trkpt lat="43.97918" lon="5.13404">
        <ele>298</ele>
        <time>2020-05-31T10:05:21Z</time>
      </trkpt>
      <trkpt lat="43.97924" lon="5.13377">
        <ele>297</ele>
        <time>2020-05-31T10:05:30Z</time>
      </trkpt>
      <trkpt lat="43.97922" lon="5.13345">
        <ele>299</ele>
        <time>2020-05-31T10:05:40Z</time>
      </trkpt>
      <trkpt lat="43.97919" lon="5.13328">
        <ele>299</ele>
        <time>2020-05-31T10:05:49Z</time>
      </trkpt>
      <trkpt lat="43.9792" lon="5.13325">
        <ele>299</ele>
        <time>2020-05-31T10:06:05Z</time>
      </trkpt>
      <trkpt lat="43.97921" lon="5.1332">
        <ele>298</ele>
        <time>2020-05-31T10:06:21Z</time>
      </trkpt>
      <trkpt lat="43.97923" lon="5.13321">
        <ele>298</ele>
        <time>2020-05-31T10:06:29Z</time>
      </trkpt>
      <trkpt lat="43.97925" lon="5.13323">
        <ele>298</ele>
        <time>2020-05-31T10:06:30Z</time>
      </trkpt>
      <trkpt lat="43.97926" lon="5.13325">
        <ele>298</ele>
        <time>2020-05-31T10:06:31Z</time>
      </trkpt>
      <trkpt lat="43.97927" lon="5.13328">
        <ele>298</ele>
        <time>2020-05-31T10:06:32Z</time>
      </trkpt>
      <trkpt lat="43.97929" lon="5.13329">
        <ele>297</ele>
        <time>2020-05-31T10:06:33Z</time>
      </trkpt>
      <trkpt lat="43.97931" lon="5.13331">
        <ele>297</ele>
        <time>2020-05-31T10:06:34Z</time>
      </trkpt>
      <trkpt lat="43.97939" lon="5.13335">
        <ele>296</ele>
        <time>2020-05-31T10:06:38Z</time>
      </trkpt>
      <trkpt lat="43.97942" lon="5.13334">
        <ele>296</ele>
        <time>2020-05-31T10:06:39Z</time>
      </trkpt>
      <trkpt lat="43.97943" lon="5.13334">
        <ele>295</ele>
        <time>2020-05-31T10:06:40Z</time>
      </trkpt>
      <trkpt lat="43.97945" lon="5.13334">
        <ele>295</ele>
        <time>2020-05-31T10:06:41Z</time>
      </trkpt>
      <trkpt lat="43.97947" lon="5.13335">
        <ele>294</ele>
        <time>2020-05-31T10:06:42Z</time>
      </trkpt>
      <trkpt lat="43.97948" lon="5.13335">
        <ele>294</ele>
        <time>2020-05-31T10:06:43Z</time>
      </trkpt>
      <trkpt lat="43.9795" lon="5.13336">
        <ele>294</ele>
        <time>2020-05-31T10:06:44Z</time>
      </trkpt>
      <trkpt lat="43.97952" lon="5.13337">
        <ele>293</ele>
        <time>2020-05-31T10:06:45Z</time>
      </trkpt>
      <trkpt lat="43.97956" lon="5.13337">
        <ele>292</ele>
        <time>2020-05-31T10:06:47Z</time>
      </trkpt>
      <trkpt lat="43.97958" lon="5.13337">
        <ele>292</ele>
        <time>2020-05-31T10:06:48Z</time>
      </trkpt>
      <trkpt lat="43.9796" lon="5.13337">
        <ele>291</ele>
        <time>2020-05-31T10:06:49Z</time>
      </trkpt>
      <trkpt lat="43.97961" lon="5.13337">
        <ele>291</ele>
        <time>2020-05-31T10:06:50Z</time>
      </trkpt>
      <trkpt lat="43.97963" lon="5.13337">
        <ele>291</ele>
        <time>2020-05-31T10:06:51Z</time>
      </trkpt>
      <trkpt lat="43.97964" lon="5.13337">
        <ele>290</ele>
        <time>2020-05-31T10:06:52Z</time>
      </trkpt>
      <trkpt lat="43.97966" lon="5.13336">
        <ele>290</ele>
        <time>2020-05-31T10:06:53Z</time>
      </trkpt>
      <trkpt lat="43.97968" lon="5.13336">
        <ele>290</ele>
        <time>2020-05-31T10:06:54Z</time>
      </trkpt>
      <trkpt lat="43.9797" lon="5.13336">
        <ele>289</ele>
        <time>2020-05-31T10:06:55Z</time>
      </trkpt>
      <trkpt lat="43.97981" lon="5.13335">
        <ele>286</ele>
        <time>2020-05-31T10:07:01Z</time>
      </trkpt>
      <trkpt lat="43.9799" lon="5.13332">
        <ele>283</ele>
        <time>2020-05-31T10:07:05Z</time>
      </trkpt>
      <trkpt lat="43.97992" lon="5.13331">
        <ele>283</ele>
        <time>2020-05-31T10:07:06Z</time>
      </trkpt>
      <trkpt lat="43.97994" lon="5.1333">
        <ele>282</ele>
        <time>2020-05-31T10:07:07Z</time>
      </trkpt>
      <trkpt lat="43.97995" lon="5.13329">
        <ele>282</ele>
        <time>2020-05-31T10:07:08Z</time>
      </trkpt>
      <trkpt lat="43.98" lon="5.13326">
        <ele>281</ele>
        <time>2020-05-31T10:07:11Z</time>
      </trkpt>
      <trkpt lat="43.98011" lon="5.13318">
        <ele>279</ele>
        <time>2020-05-31T10:07:19Z</time>
      </trkpt>
      <trkpt lat="43.98012" lon="5.13318">
        <ele>279</ele>
        <time>2020-05-31T10:07:20Z</time>
      </trkpt>
      <trkpt lat="43.98024" lon="5.13307">
        <ele>276</ele>
        <time>2020-05-31T10:07:28Z</time>
      </trkpt>
      <trkpt lat="43.98035" lon="5.13301">
        <ele>274</ele>
        <time>2020-05-31T10:07:34Z</time>
      </trkpt>
      <trkpt lat="43.98037" lon="5.13299">
        <ele>274</ele>
        <time>2020-05-31T10:07:35Z</time>
      </trkpt>
      <trkpt lat="43.98038" lon="5.13297">
        <ele>274</ele>
        <time>2020-05-31T10:07:36Z</time>
      </trkpt>
      <trkpt lat="43.98043" lon="5.13293">
        <ele>273</ele>
        <time>2020-05-31T10:07:45Z</time>
      </trkpt>
      <trkpt lat="43.98045" lon="5.13295">
        <ele>272</ele>
        <time>2020-05-31T10:07:53Z</time>
      </trkpt>
      <trkpt lat="43.98046" lon="5.13297">
        <ele>272</ele>
        <time>2020-05-31T10:07:54Z</time>
      </trkpt>
      <trkpt lat="43.98048" lon="5.13298">
        <ele>272</ele>
        <time>2020-05-31T10:07:55Z</time>
      </trkpt>
      <trkpt lat="43.98051" lon="5.13302">
        <ele>271</ele>
        <time>2020-05-31T10:07:58Z</time>
      </trkpt>
      <trkpt lat="43.98072" lon="5.13297">
        <ele>272</ele>
        <time>2020-05-31T10:08:09Z</time>
      </trkpt>
      <trkpt lat="43.98089" lon="5.13287">
        <ele>273</ele>
        <time>2020-05-31T10:08:19Z</time>
      </trkpt>
      <trkpt lat="43.98093" lon="5.13283">
        <ele>273</ele>
        <time>2020-05-31T10:08:22Z</time>
      </trkpt>
      <trkpt lat="43.98101" lon="5.13273">
        <ele>273</ele>
        <time>2020-05-31T10:08:31Z</time>
      </trkpt>
      <trkpt lat="43.98115" lon="5.13271">
        <ele>275</ele>
        <time>2020-05-31T10:08:38Z</time>
      </trkpt>
      <trkpt lat="43.98117" lon="5.13271">
        <ele>275</ele>
        <time>2020-05-31T10:08:39Z</time>
      </trkpt>
      <trkpt lat="43.98118" lon="5.13272">
        <ele>276</ele>
        <time>2020-05-31T10:08:40Z</time>
      </trkpt>
      <trkpt lat="43.98128" lon="5.13278">
        <ele>279</ele>
        <time>2020-05-31T10:08:47Z</time>
      </trkpt>
      <trkpt lat="43.98139" lon="5.13274">
        <ele>280</ele>
        <time>2020-05-31T10:08:57Z</time>
      </trkpt>
      <trkpt lat="43.98154" lon="5.13268">
        <ele>282</ele>
        <time>2020-05-31T10:09:06Z</time>
      </trkpt>
      <trkpt lat="43.98164" lon="5.13263">
        <ele>283</ele>
        <time>2020-05-31T10:09:15Z</time>
      </trkpt>
      <trkpt lat="43.98167" lon="5.13259">
        <ele>283</ele>
        <time>2020-05-31T10:09:26Z</time>
      </trkpt>
      <trkpt lat="43.98168" lon="5.13256">
        <ele>283</ele>
        <time>2020-05-31T10:09:31Z</time>
      </trkpt>
      <trkpt lat="43.98169" lon="5.13254">
        <ele>283</ele>
        <time>2020-05-31T10:09:32Z</time>
      </trkpt>
      <trkpt lat="43.98171" lon="5.13251">
        <ele>283</ele>
        <time>2020-05-31T10:09:34Z</time>
      </trkpt>
      <trkpt lat="43.98172" lon="5.13249">
        <ele>283</ele>
        <time>2020-05-31T10:09:35Z</time>
      </trkpt>
      <trkpt lat="43.98183" lon="5.13229">
        <ele>283</ele>
        <time>2020-05-31T10:09:46Z</time>
      </trkpt>
      <trkpt lat="43.98196" lon="5.132">
        <ele>282</ele>
        <time>2020-05-31T10:09:57Z</time>
      </trkpt>
      <trkpt lat="43.98212" lon="5.13177">
        <ele>282</ele>
        <time>2020-05-31T10:10:06Z</time>
      </trkpt>
      <trkpt lat="43.98223" lon="5.13161">
        <ele>281</ele>
        <time>2020-05-31T10:10:14Z</time>
      </trkpt>
      <trkpt lat="43.98224" lon="5.13157">
        <ele>281</ele>
        <time>2020-05-31T10:10:15Z</time>
      </trkpt>
      <trkpt lat="43.98235" lon="5.13127">
        <ele>279</ele>
        <time>2020-05-31T10:10:25Z</time>
      </trkpt>
      <trkpt lat="43.98249" lon="5.1311">
        <ele>279</ele>
        <time>2020-05-31T10:10:33Z</time>
      </trkpt>
      <trkpt lat="43.98269" lon="5.13085">
        <ele>278</ele>
        <time>2020-05-31T10:10:44Z</time>
      </trkpt>
      <trkpt lat="43.98278" lon="5.13073">
        <ele>278</ele>
        <time>2020-05-31T10:10:50Z</time>
      </trkpt>
      <trkpt lat="43.98279" lon="5.1307">
        <ele>277</ele>
        <time>2020-05-31T10:10:51Z</time>
      </trkpt>
      <trkpt lat="43.98281" lon="5.13067">
        <ele>277</ele>
        <time>2020-05-31T10:10:52Z</time>
      </trkpt>
      <trkpt lat="43.98282" lon="5.13064">
        <ele>277</ele>
        <time>2020-05-31T10:10:53Z</time>
      </trkpt>
      <trkpt lat="43.98283" lon="5.13061">
        <ele>277</ele>
        <time>2020-05-31T10:10:54Z</time>
      </trkpt>
      <trkpt lat="43.98284" lon="5.13058">
        <ele>277</ele>
        <time>2020-05-31T10:10:55Z</time>
      </trkpt>
      <trkpt lat="43.98285" lon="5.13055">
        <ele>276</ele>
        <time>2020-05-31T10:10:56Z</time>
      </trkpt>
      <trkpt lat="43.98286" lon="5.13053">
        <ele>276</ele>
        <time>2020-05-31T10:10:57Z</time>
      </trkpt>
      <trkpt lat="43.98288" lon="5.1305">
        <ele>276</ele>
        <time>2020-05-31T10:10:58Z</time>
      </trkpt>
      <trkpt lat="43.9829" lon="5.13048">
        <ele>276</ele>
        <time>2020-05-31T10:10:59Z</time>
      </trkpt>
      <trkpt lat="43.98309" lon="5.13019">
        <ele>276</ele>
        <time>2020-05-31T10:11:11Z</time>
      </trkpt>
      <trkpt lat="43.98326" lon="5.12997">
        <ele>275</ele>
        <time>2020-05-31T10:11:21Z</time>
      </trkpt>
      <trkpt lat="43.98332" lon="5.12993">
        <ele>276</ele>
        <time>2020-05-31T10:11:24Z</time>
      </trkpt>
      <trkpt lat="43.98341" lon="5.12974">
        <ele>274</ele>
        <time>2020-05-31T10:11:32Z</time>
      </trkpt>
      <trkpt lat="43.98345" lon="5.12957">
        <ele>273</ele>
        <time>2020-05-31T10:11:42Z</time>
      </trkpt>
      <trkpt lat="43.98352" lon="5.12942">
        <ele>273</ele>
        <time>2020-05-31T10:11:51Z</time>
      </trkpt>
      <trkpt lat="43.98362" lon="5.12923">
        <ele>273</ele>
        <time>2020-05-31T10:12:00Z</time>
      </trkpt>
      <trkpt lat="43.98376" lon="5.12903">
        <ele>272</ele>
        <time>2020-05-31T10:12:09Z</time>
      </trkpt>
      <trkpt lat="43.98378" lon="5.129">
        <ele>272</ele>
        <time>2020-05-31T10:12:10Z</time>
      </trkpt>
      <trkpt lat="43.98393" lon="5.12884">
        <ele>272</ele>
        <time>2020-05-31T10:12:19Z</time>
      </trkpt>
      <trkpt lat="43.98396" lon="5.12875">
        <ele>272</ele>
        <time>2020-05-31T10:12:23Z</time>
      </trkpt>
      <trkpt lat="43.98396" lon="5.12874">
        <ele>272</ele>
        <time>2020-05-31T10:12:24Z</time>
      </trkpt>
      <trkpt lat="43.98396" lon="5.12871">
        <ele>271</ele>
        <time>2020-05-31T10:12:25Z</time>
      </trkpt>
      <trkpt lat="43.98397" lon="5.12869">
        <ele>271</ele>
        <time>2020-05-31T10:12:26Z</time>
      </trkpt>
      <trkpt lat="43.98398" lon="5.12868">
        <ele>271</ele>
        <time>2020-05-31T10:12:27Z</time>
      </trkpt>
      <trkpt lat="43.98407" lon="5.12845">
        <ele>270</ele>
        <time>2020-05-31T10:12:36Z</time>
      </trkpt>
      <trkpt lat="43.98425" lon="5.12828">
        <ele>271</ele>
        <time>2020-05-31T10:12:45Z</time>
      </trkpt>
      <trkpt lat="43.9844" lon="5.12814">
        <ele>272</ele>
        <time>2020-05-31T10:12:53Z</time>
      </trkpt>
      <trkpt lat="43.98445" lon="5.12802">
        <ele>272</ele>
        <time>2020-05-31T10:12:57Z</time>
      </trkpt>
      <trkpt lat="43.98445" lon="5.12799">
        <ele>272</ele>
        <time>2020-05-31T10:12:58Z</time>
      </trkpt>
      <trkpt lat="43.98444" lon="5.12796">
        <ele>272</ele>
        <time>2020-05-31T10:12:59Z</time>
      </trkpt>
      <trkpt lat="43.98434" lon="5.12771">
        <ele>270</ele>
        <time>2020-05-31T10:13:09Z</time>
      </trkpt>
      <trkpt lat="43.98421" lon="5.12747">
        <ele>271</ele>
        <time>2020-05-31T10:13:18Z</time>
      </trkpt>
      <trkpt lat="43.98414" lon="5.12727">
        <ele>271</ele>
        <time>2020-05-31T10:13:24Z</time>
      </trkpt>
      <trkpt lat="43.98412" lon="5.12715">
        <ele>271</ele>
        <time>2020-05-31T10:13:28Z</time>
      </trkpt>
      <trkpt lat="43.98412" lon="5.12712">
        <ele>271</ele>
        <time>2020-05-31T10:13:29Z</time>
      </trkpt>
      <trkpt lat="43.98413" lon="5.12708">
        <ele>272</ele>
        <time>2020-05-31T10:13:30Z</time>
      </trkpt>
      <trkpt lat="43.98413" lon="5.12705">
        <ele>272</ele>
        <time>2020-05-31T10:13:31Z</time>
      </trkpt>
      <trkpt lat="43.98413" lon="5.12702">
        <ele>272</ele>
        <time>2020-05-31T10:13:32Z</time>
      </trkpt>
      <trkpt lat="43.98413" lon="5.12699">
        <ele>272</ele>
        <time>2020-05-31T10:13:33Z</time>
      </trkpt>
      <trkpt lat="43.98414" lon="5.12696">
        <ele>273</ele>
        <time>2020-05-31T10:13:34Z</time>
      </trkpt>
      <trkpt lat="43.98414" lon="5.12694">
        <ele>273</ele>
        <time>2020-05-31T10:13:35Z</time>
      </trkpt>
      <trkpt lat="43.98415" lon="5.12691">
        <ele>273</ele>
        <time>2020-05-31T10:13:36Z</time>
      </trkpt>
      <trkpt lat="43.98424" lon="5.12661">
        <ele>271</ele>
        <time>2020-05-31T10:13:46Z</time>
      </trkpt>
      <trkpt lat="43.98434" lon="5.12649">
        <ele>272</ele>
        <time>2020-05-31T10:13:52Z</time>
      </trkpt>
      <trkpt lat="43.98436" lon="5.12646">
        <ele>272</ele>
        <time>2020-05-31T10:13:53Z</time>
      </trkpt>
      <trkpt lat="43.98437" lon="5.12644">
        <ele>272</ele>
        <time>2020-05-31T10:13:54Z</time>
      </trkpt>
      <trkpt lat="43.98439" lon="5.12641">
        <ele>272</ele>
        <time>2020-05-31T10:13:55Z</time>
      </trkpt>
      <trkpt lat="43.98439" lon="5.12638">
        <ele>272</ele>
        <time>2020-05-31T10:13:56Z</time>
      </trkpt>
      <trkpt lat="43.9844" lon="5.12635">
        <ele>272</ele>
        <time>2020-05-31T10:13:57Z</time>
      </trkpt>
      <trkpt lat="43.98441" lon="5.12633">
        <ele>272</ele>
        <time>2020-05-31T10:13:58Z</time>
      </trkpt>
      <trkpt lat="43.98441" lon="5.1263">
        <ele>272</ele>
        <time>2020-05-31T10:13:59Z</time>
      </trkpt>
      <trkpt lat="43.98442" lon="5.12627">
        <ele>272</ele>
        <time>2020-05-31T10:14:00Z</time>
      </trkpt>
      <trkpt lat="43.98443" lon="5.12625">
        <ele>272</ele>
        <time>2020-05-31T10:14:01Z</time>
      </trkpt>
      <trkpt lat="43.98449" lon="5.12604">
        <ele>272</ele>
        <time>2020-05-31T10:14:10Z</time>
      </trkpt>
      <trkpt lat="43.98457" lon="5.12579">
        <ele>274</ele>
        <time>2020-05-31T10:14:21Z</time>
      </trkpt>
      <trkpt lat="43.98458" lon="5.12575">
        <ele>273</ele>
        <time>2020-05-31T10:14:23Z</time>
      </trkpt>
      <trkpt lat="43.98459" lon="5.12572">
        <ele>273</ele>
        <time>2020-05-31T10:14:24Z</time>
      </trkpt>
      <trkpt lat="43.9846" lon="5.12569">
        <ele>274</ele>
        <time>2020-05-31T10:14:25Z</time>
      </trkpt>
      <trkpt lat="43.98469" lon="5.12538">
        <ele>273</ele>
        <time>2020-05-31T10:14:36Z</time>
      </trkpt>
      <trkpt lat="43.98476" lon="5.12514">
        <ele>268</ele>
        <time>2020-05-31T10:14:45Z</time>
      </trkpt>
      <trkpt lat="43.98497" lon="5.12502">
        <ele>271</ele>
        <time>2020-05-31T10:14:55Z</time>
      </trkpt>
      <trkpt lat="43.98502" lon="5.12501">
        <ele>272</ele>
        <time>2020-05-31T10:14:58Z</time>
      </trkpt>
      <trkpt lat="43.98504" lon="5.12502">
        <ele>273</ele>
        <time>2020-05-31T10:14:59Z</time>
      </trkpt>
      <trkpt lat="43.98506" lon="5.12503">
        <ele>274</ele>
        <time>2020-05-31T10:15:00Z</time>
      </trkpt>
      <trkpt lat="43.98508" lon="5.12503">
        <ele>274</ele>
        <time>2020-05-31T10:15:01Z</time>
      </trkpt>
      <trkpt lat="43.9851" lon="5.12504">
        <ele>275</ele>
        <time>2020-05-31T10:15:02Z</time>
      </trkpt>
      <trkpt lat="43.98512" lon="5.12504">
        <ele>276</ele>
        <time>2020-05-31T10:15:03Z</time>
      </trkpt>
      <trkpt lat="43.98514" lon="5.12505">
        <ele>277</ele>
        <time>2020-05-31T10:15:04Z</time>
      </trkpt>
      <trkpt lat="43.98535" lon="5.12505">
        <ele>283</ele>
        <time>2020-05-31T10:15:14Z</time>
      </trkpt>
      <trkpt lat="43.98544" lon="5.12486">
        <ele>286</ele>
        <time>2020-05-31T10:15:24Z</time>
      </trkpt>
      <trkpt lat="43.98535" lon="5.12461">
        <ele>284</ele>
        <time>2020-05-31T10:15:34Z</time>
      </trkpt>
      <trkpt lat="43.98525" lon="5.12423">
        <ele>283</ele>
        <time>2020-05-31T10:15:47Z</time>
      </trkpt>
      <trkpt lat="43.98531" lon="5.12399">
        <ele>282</ele>
        <time>2020-05-31T10:15:56Z</time>
      </trkpt>
      <trkpt lat="43.98544" lon="5.12372">
        <ele>282</ele>
        <time>2020-05-31T10:16:06Z</time>
      </trkpt>
      <trkpt lat="43.98561" lon="5.12341">
        <ele>282</ele>
        <time>2020-05-31T10:16:17Z</time>
      </trkpt>
      <trkpt lat="43.98567" lon="5.12329">
        <ele>282</ele>
        <time>2020-05-31T10:16:24Z</time>
      </trkpt>
      <trkpt lat="43.98571" lon="5.1232">
        <ele>283</ele>
        <time>2020-05-31T10:18:04Z</time>
      </trkpt>
      <trkpt lat="43.98573" lon="5.12317">
        <ele>283</ele>
        <time>2020-05-31T10:18:25Z</time>
      </trkpt>
      <trkpt lat="43.98576" lon="5.12304">
        <ele>283</ele>
        <time>2020-05-31T10:18:34Z</time>
      </trkpt>
      <trkpt lat="43.98579" lon="5.12286">
        <ele>282</ele>
        <time>2020-05-31T10:18:45Z</time>
      </trkpt>
      <trkpt lat="43.98581" lon="5.12276">
        <ele>282</ele>
        <time>2020-05-31T10:18:56Z</time>
      </trkpt>
      <trkpt lat="43.98581" lon="5.12271">
        <ele>282</ele>
        <time>2020-05-31T10:19:26Z</time>
      </trkpt>
      <trkpt lat="43.98584" lon="5.12263">
        <ele>283</ele>
        <time>2020-05-31T10:20:08Z</time>
      </trkpt>
      <trkpt lat="43.9859" lon="5.12251">
        <ele>284</ele>
        <time>2020-05-31T10:20:13Z</time>
      </trkpt>
      <trkpt lat="43.9859" lon="5.12248">
        <ele>284</ele>
        <time>2020-05-31T10:20:14Z</time>
      </trkpt>
      <trkpt lat="43.98591" lon="5.12245">
        <ele>284</ele>
        <time>2020-05-31T10:20:15Z</time>
      </trkpt>
      <trkpt lat="43.98599" lon="5.12213">
        <ele>284</ele>
        <time>2020-05-31T10:20:24Z</time>
      </trkpt>
      <trkpt lat="43.98601" lon="5.12178">
        <ele>280</ele>
        <time>2020-05-31T10:20:34Z</time>
      </trkpt>
      <trkpt lat="43.98608" lon="5.12153">
        <ele>279</ele>
        <time>2020-05-31T10:20:41Z</time>
      </trkpt>
      <trkpt lat="43.98618" lon="5.12127">
        <ele>277</ele>
        <time>2020-05-31T10:20:51Z</time>
      </trkpt>
      <trkpt lat="43.98622" lon="5.12123">
        <ele>277</ele>
        <time>2020-05-31T10:20:53Z</time>
      </trkpt>
      <trkpt lat="43.98623" lon="5.12122">
        <ele>277</ele>
        <time>2020-05-31T10:20:54Z</time>
      </trkpt>
      <trkpt lat="43.98626" lon="5.12118">
        <ele>277</ele>
        <time>2020-05-31T10:20:55Z</time>
      </trkpt>
      <trkpt lat="43.98628" lon="5.12116">
        <ele>278</ele>
        <time>2020-05-31T10:20:56Z</time>
      </trkpt>
      <trkpt lat="43.9863" lon="5.12113">
        <ele>278</ele>
        <time>2020-05-31T10:20:57Z</time>
      </trkpt>
      <trkpt lat="43.98633" lon="5.12111">
        <ele>279</ele>
        <time>2020-05-31T10:20:58Z</time>
      </trkpt>
      <trkpt lat="43.98635" lon="5.1211">
        <ele>279</ele>
        <time>2020-05-31T10:20:59Z</time>
      </trkpt>
      <trkpt lat="43.98638" lon="5.12108">
        <ele>280</ele>
        <time>2020-05-31T10:21:00Z</time>
      </trkpt>
      <trkpt lat="43.9864" lon="5.12107">
        <ele>280</ele>
        <time>2020-05-31T10:21:01Z</time>
      </trkpt>
      <trkpt lat="43.98659" lon="5.12104">
        <ele>282</ele>
        <time>2020-05-31T10:21:09Z</time>
      </trkpt>
      <trkpt lat="43.98677" lon="5.12105">
        <ele>283</ele>
        <time>2020-05-31T10:21:16Z</time>
      </trkpt>
      <trkpt lat="43.98698" lon="5.12101">
        <ele>282</ele>
        <time>2020-05-31T10:21:24Z</time>
      </trkpt>
      <trkpt lat="43.98719" lon="5.12094">
        <ele>283</ele>
        <time>2020-05-31T10:21:33Z</time>
      </trkpt>
      <trkpt lat="43.98734" lon="5.1209">
        <ele>285</ele>
        <time>2020-05-31T10:21:43Z</time>
      </trkpt>
      <trkpt lat="43.98736" lon="5.12085">
        <ele>285</ele>
        <time>2020-05-31T10:21:50Z</time>
      </trkpt>
      <trkpt lat="43.98736" lon="5.12083">
        <ele>284</ele>
        <time>2020-05-31T10:21:51Z</time>
      </trkpt>
      <trkpt lat="43.98735" lon="5.1208">
        <ele>284</ele>
        <time>2020-05-31T10:21:52Z</time>
      </trkpt>
      <trkpt lat="43.98735" lon="5.12079">
        <ele>283</ele>
        <time>2020-05-31T10:21:53Z</time>
      </trkpt>
      <trkpt lat="43.98735" lon="5.12077">
        <ele>283</ele>
        <time>2020-05-31T10:21:54Z</time>
      </trkpt>
      <trkpt lat="43.98732" lon="5.1206">
        <ele>278</ele>
        <time>2020-05-31T10:22:01Z</time>
      </trkpt>
      <trkpt lat="43.98736" lon="5.12035">
        <ele>271</ele>
        <time>2020-05-31T10:22:10Z</time>
      </trkpt>
      <trkpt lat="43.98735" lon="5.12035">
        <ele>271</ele>
        <time>2020-05-31T10:22:20Z</time>
      </trkpt>
      <trkpt lat="43.98739" lon="5.12034">
        <ele>272</ele>
        <time>2020-05-31T10:22:32Z</time>
      </trkpt>
      <trkpt lat="43.98741" lon="5.12032">
        <ele>272</ele>
        <time>2020-05-31T10:22:34Z</time>
      </trkpt>
      <trkpt lat="43.98742" lon="5.12032">
        <ele>272</ele>
        <time>2020-05-31T10:22:35Z</time>
      </trkpt>
      <trkpt lat="43.98753" lon="5.1203">
        <ele>274</ele>
        <time>2020-05-31T10:22:44Z</time>
      </trkpt>
      <trkpt lat="43.98755" lon="5.1203">
        <ele>275</ele>
        <time>2020-05-31T10:22:46Z</time>
      </trkpt>
      <trkpt lat="43.98757" lon="5.12029">
        <ele>275</ele>
        <time>2020-05-31T10:22:47Z</time>
      </trkpt>
      <trkpt lat="43.98758" lon="5.12028">
        <ele>275</ele>
        <time>2020-05-31T10:22:48Z</time>
      </trkpt>
      <trkpt lat="43.98759" lon="5.12027">
        <ele>275</ele>
        <time>2020-05-31T10:22:49Z</time>
      </trkpt>
      <trkpt lat="43.98761" lon="5.12027">
        <ele>275</ele>
        <time>2020-05-31T10:22:50Z</time>
      </trkpt>
      <trkpt lat="43.98763" lon="5.12026">
        <ele>276</ele>
        <time>2020-05-31T10:22:51Z</time>
      </trkpt>
      <trkpt lat="43.98764" lon="5.12026">
        <ele>276</ele>
        <time>2020-05-31T10:22:52Z</time>
      </trkpt>
      <trkpt lat="43.98769" lon="5.12019">
        <ele>275</ele>
        <time>2020-05-31T10:23:00Z</time>
      </trkpt>
      <trkpt lat="43.98765" lon="5.12018">
        <ele>273</ele>
        <time>2020-05-31T10:23:05Z</time>
      </trkpt>
      <trkpt lat="43.98763" lon="5.12009">
        <ele>270</ele>
        <time>2020-05-31T10:23:14Z</time>
      </trkpt>
      <trkpt lat="43.98764" lon="5.12007">
        <ele>269</ele>
        <time>2020-05-31T10:23:15Z</time>
      </trkpt>
      <trkpt lat="43.98764" lon="5.12004">
        <ele>268</ele>
        <time>2020-05-31T10:23:16Z</time>
      </trkpt>
      <trkpt lat="43.98764" lon="5.11996">
        <ele>266</ele>
        <time>2020-05-31T10:23:20Z</time>
      </trkpt>
      <trkpt lat="43.98764" lon="5.11994">
        <ele>265</ele>
        <time>2020-05-31T10:23:21Z</time>
      </trkpt>
      <trkpt lat="43.98763" lon="5.1199">
        <ele>263</ele>
        <time>2020-05-31T10:23:23Z</time>
      </trkpt>
      <trkpt lat="43.98763" lon="5.11987">
        <ele>262</ele>
        <time>2020-05-31T10:23:25Z</time>
      </trkpt>
      <trkpt lat="43.98761" lon="5.11985">
        <ele>260</ele>
        <time>2020-05-31T10:23:29Z</time>
      </trkpt>
      <trkpt lat="43.98757" lon="5.11988">
        <ele>260</ele>
        <time>2020-05-31T10:23:35Z</time>
      </trkpt>
      <trkpt lat="43.9875" lon="5.11982">
        <ele>256</ele>
        <time>2020-05-31T10:23:40Z</time>
      </trkpt>
      <trkpt lat="43.98739" lon="5.11972">
        <ele>252</ele>
        <time>2020-05-31T10:23:48Z</time>
      </trkpt>
      <trkpt lat="43.98732" lon="5.11961">
        <ele>249</ele>
        <time>2020-05-31T10:23:54Z</time>
      </trkpt>
      <trkpt lat="43.98725" lon="5.11949">
        <ele>246</ele>
        <time>2020-05-31T10:23:58Z</time>
      </trkpt>
      <trkpt lat="43.98716" lon="5.11935">
        <ele>241</ele>
        <time>2020-05-31T10:24:02Z</time>
      </trkpt>
      <trkpt lat="43.98698" lon="5.11927">
        <ele>236</ele>
        <time>2020-05-31T10:24:08Z</time>
      </trkpt>
      <trkpt lat="43.98693" lon="5.11928">
        <ele>236</ele>
        <time>2020-05-31T10:24:10Z</time>
      </trkpt>
      <trkpt lat="43.98671" lon="5.11936">
        <ele>234</ele>
        <time>2020-05-31T10:24:19Z</time>
      </trkpt>
      <trkpt lat="43.98656" lon="5.11943">
        <ele>232</ele>
        <time>2020-05-31T10:24:26Z</time>
      </trkpt>
      <trkpt lat="43.98634" lon="5.11952">
        <ele>230</ele>
        <time>2020-05-31T10:24:36Z</time>
      </trkpt>
      <trkpt lat="43.9861" lon="5.11961">
        <ele>227</ele>
        <time>2020-05-31T10:24:48Z</time>
      </trkpt>
      <trkpt lat="43.9861" lon="5.11963">
        <ele>227</ele>
        <time>2020-05-31T10:24:49Z</time>
      </trkpt>
      <trkpt lat="43.98598" lon="5.11981">
        <ele>228</ele>
        <time>2020-05-31T10:25:01Z</time>
      </trkpt>
      <trkpt lat="43.98579" lon="5.12001">
        <ele>228</ele>
        <time>2020-05-31T10:25:13Z</time>
      </trkpt>
      <trkpt lat="43.98564" lon="5.12013">
        <ele>228</ele>
        <time>2020-05-31T10:25:23Z</time>
      </trkpt>
      <trkpt lat="43.98548" lon="5.12024">
        <ele>227</ele>
        <time>2020-05-31T10:25:34Z</time>
      </trkpt>
      <trkpt lat="43.98525" lon="5.12024">
        <ele>227</ele>
        <time>2020-05-31T10:25:42Z</time>
      </trkpt>
      <trkpt lat="43.9852" lon="5.12024">
        <ele>227</ele>
        <time>2020-05-31T10:25:58Z</time>
      </trkpt>
      <trkpt lat="43.98518" lon="5.12023">
        <ele>227</ele>
        <time>2020-05-31T10:26:11Z</time>
      </trkpt>
      <trkpt lat="43.98509" lon="5.12022">
        <ele>226</ele>
        <time>2020-05-31T10:26:22Z</time>
      </trkpt>
      <trkpt lat="43.98508" lon="5.12022">
        <ele>226</ele>
        <time>2020-05-31T10:26:23Z</time>
      </trkpt>
      <trkpt lat="43.98503" lon="5.12015">
        <ele>226</ele>
        <time>2020-05-31T10:26:32Z</time>
      </trkpt>
      <trkpt lat="43.985" lon="5.12013">
        <ele>226</ele>
        <time>2020-05-31T10:26:35Z</time>
      </trkpt>
      <trkpt lat="43.98496" lon="5.1201">
        <ele>226</ele>
        <time>2020-05-31T10:26:39Z</time>
      </trkpt>
      <trkpt lat="43.98484" lon="5.12">
        <ele>226</ele>
        <time>2020-05-31T10:26:46Z</time>
      </trkpt>
      <trkpt lat="43.98478" lon="5.11999">
        <ele>226</ele>
        <time>2020-05-31T10:26:52Z</time>
      </trkpt>
      <trkpt lat="43.98475" lon="5.11998">
        <ele>226</ele>
        <time>2020-05-31T10:26:54Z</time>
      </trkpt>
      <trkpt lat="43.98463" lon="5.11983">
        <ele>227</ele>
        <time>2020-05-31T10:27:04Z</time>
      </trkpt>
      <trkpt lat="43.98463" lon="5.11981">
        <ele>227</ele>
        <time>2020-05-31T10:27:05Z</time>
      </trkpt>
      <trkpt lat="43.98461" lon="5.11977">
        <ele>228</ele>
        <time>2020-05-31T10:27:07Z</time>
      </trkpt>
      <trkpt lat="43.98455" lon="5.1196">
        <ele>228</ele>
        <time>2020-05-31T10:27:16Z</time>
      </trkpt>
      <trkpt lat="43.98455" lon="5.11958">
        <ele>228</ele>
        <time>2020-05-31T10:27:17Z</time>
      </trkpt>
      <trkpt lat="43.98453" lon="5.11957">
        <ele>229</ele>
        <time>2020-05-31T10:27:18Z</time>
      </trkpt>
      <trkpt lat="43.98453" lon="5.11955">
        <ele>229</ele>
        <time>2020-05-31T10:27:19Z</time>
      </trkpt>
      <trkpt lat="43.98452" lon="5.11953">
        <ele>229</ele>
        <time>2020-05-31T10:27:20Z</time>
      </trkpt>
      <trkpt lat="43.98451" lon="5.11952">
        <ele>229</ele>
        <time>2020-05-31T10:27:21Z</time>
      </trkpt>
      <trkpt lat="43.98441" lon="5.11936">
        <ele>230</ele>
        <time>2020-05-31T10:27:30Z</time>
      </trkpt>
      <trkpt lat="43.9843" lon="5.11917">
        <ele>232</ele>
        <time>2020-05-31T10:27:41Z</time>
      </trkpt>
      <trkpt lat="43.98429" lon="5.1191">
        <ele>232</ele>
        <time>2020-05-31T10:27:49Z</time>
      </trkpt>
      <trkpt lat="43.98429" lon="5.11903">
        <ele>232</ele>
        <time>2020-05-31T10:27:59Z</time>
      </trkpt>
      <trkpt lat="43.98428" lon="5.11897">
        <ele>232</ele>
        <time>2020-05-31T10:28:03Z</time>
      </trkpt>
      <trkpt lat="43.98429" lon="5.11895">
        <ele>232</ele>
        <time>2020-05-31T10:28:04Z</time>
      </trkpt>
      <trkpt lat="43.98429" lon="5.11894">
        <ele>231</ele>
        <time>2020-05-31T10:28:05Z</time>
      </trkpt>
      <trkpt lat="43.98429" lon="5.11891">
        <ele>231</ele>
        <time>2020-05-31T10:28:06Z</time>
      </trkpt>
      <trkpt lat="43.98428" lon="5.11889">
        <ele>231</ele>
        <time>2020-05-31T10:28:07Z</time>
      </trkpt>
      <trkpt lat="43.98428" lon="5.11887">
        <ele>231</ele>
        <time>2020-05-31T10:28:08Z</time>
      </trkpt>
      <trkpt lat="43.98428" lon="5.11885">
        <ele>231</ele>
        <time>2020-05-31T10:28:09Z</time>
      </trkpt>
      <trkpt lat="43.98428" lon="5.11882">
        <ele>231</ele>
        <time>2020-05-31T10:28:10Z</time>
      </trkpt>
      <trkpt lat="43.98428" lon="5.11879">
        <ele>231</ele>
        <time>2020-05-31T10:28:11Z</time>
      </trkpt>
      <trkpt lat="43.98428" lon="5.11876">
        <ele>231</ele>
        <time>2020-05-31T10:28:12Z</time>
      </trkpt>
      <trkpt lat="43.98427" lon="5.11873">
        <ele>231</ele>
        <time>2020-05-31T10:28:13Z</time>
      </trkpt>
      <trkpt lat="43.98427" lon="5.1187">
        <ele>231</ele>
        <time>2020-05-31T10:28:14Z</time>
      </trkpt>
      <trkpt lat="43.98427" lon="5.11867">
        <ele>231</ele>
        <time>2020-05-31T10:28:15Z</time>
      </trkpt>
      <trkpt lat="43.98421" lon="5.11836">
        <ele>233</ele>
        <time>2020-05-31T10:28:24Z</time>
      </trkpt>
      <trkpt lat="43.9842" lon="5.11832">
        <ele>233</ele>
        <time>2020-05-31T10:28:25Z</time>
      </trkpt>
      <trkpt lat="43.98411" lon="5.11811">
        <ele>235</ele>
        <time>2020-05-31T10:28:33Z</time>
      </trkpt>
      <trkpt lat="43.98408" lon="5.11811">
        <ele>236</ele>
        <time>2020-05-31T10:28:34Z</time>
      </trkpt>
      <trkpt lat="43.98392" lon="5.11817">
        <ele>240</ele>
        <time>2020-05-31T10:28:41Z</time>
      </trkpt>
      <trkpt lat="43.98374" lon="5.11834">
        <ele>243</ele>
        <time>2020-05-31T10:28:50Z</time>
      </trkpt>
      <trkpt lat="43.98359" lon="5.11847">
        <ele>244</ele>
        <time>2020-05-31T10:28:58Z</time>
      </trkpt>
      <trkpt lat="43.98353" lon="5.11853">
        <ele>245</ele>
        <time>2020-05-31T10:29:02Z</time>
      </trkpt>
      <trkpt lat="43.98351" lon="5.11854">
        <ele>245</ele>
        <time>2020-05-31T10:29:03Z</time>
      </trkpt>
      <trkpt lat="43.98349" lon="5.11856">
        <ele>246</ele>
        <time>2020-05-31T10:29:04Z</time>
      </trkpt>
      <trkpt lat="43.98348" lon="5.11858">
        <ele>246</ele>
        <time>2020-05-31T10:29:05Z</time>
      </trkpt>
      <trkpt lat="43.98346" lon="5.11859">
        <ele>246</ele>
        <time>2020-05-31T10:29:06Z</time>
      </trkpt>
      <trkpt lat="43.98344" lon="5.11861">
        <ele>246</ele>
        <time>2020-05-31T10:29:07Z</time>
      </trkpt>
      <trkpt lat="43.98342" lon="5.11862">
        <ele>246</ele>
        <time>2020-05-31T10:29:08Z</time>
      </trkpt>
      <trkpt lat="43.9834" lon="5.11864">
        <ele>246</ele>
        <time>2020-05-31T10:29:09Z</time>
      </trkpt>
      <trkpt lat="43.98338" lon="5.11866">
        <ele>247</ele>
        <time>2020-05-31T10:29:10Z</time>
      </trkpt>
      <trkpt lat="43.98337" lon="5.11868">
        <ele>247</ele>
        <time>2020-05-31T10:29:11Z</time>
      </trkpt>
      <trkpt lat="43.98335" lon="5.11869">
        <ele>247</ele>
        <time>2020-05-31T10:29:12Z</time>
      </trkpt>
      <trkpt lat="43.98323" lon="5.11879">
        <ele>248</ele>
        <time>2020-05-31T10:29:23Z</time>
      </trkpt>
      <trkpt lat="43.9832" lon="5.11885">
        <ele>248</ele>
        <time>2020-05-31T10:29:45Z</time>
      </trkpt>
    </trkseg>
  </trk>
</gpx>